GFSGL_500_spd_003.txt.gz
Wind_Speed
77 78 80 82 83 83 87 90 86 87 92 98 96 95 91 77 62 56 47 48 45 51 50 49 48 51 56 57 61 63 62 64 69 64 68 72 70 66 65 62 59 61 68
78 79 80 83 87 87 87 85 88 93 100 97 91 81 66 52 44 43 47 50 53 50 48 47 49 50 51 52 54 57 60 62 66 66 63 60 55 53 54 56 56 57 62
78 80 82 82 83 87 85 90 95 97 97 90 67 53 44 40 39 43 46 47 48 48 48 49 48 48 50 53 55 54 54 55 56 57 57 57 58 58 58 59 60 60 61
78 80 81 86 86 85 91 94 96 95 82 58 46 41 40 42 45 46 46 47 47 48 46 44 43 42 44 46 48 49 51 52 53 56 57 58 60 61 61 62 62 64 63
76 78 84 85 87 91 96 100 85 69 54 48 45 46 46 46 48 49 49 48 46 44 44 43 44 46 46 47 47 47 50 52 54 55 55 56 57 60 60 62 64 68 68
76 83 85 88 90 96 98 77 58 50 50 50 50 48 47 47 47 46 45 44 43 43 43 46 47 48 48 47 47 49 50 49 48 51 56 59 55 54 55 59 65 70 69
80 84 87 91 91 86 68 57 53 53 52 50 49 48 49 49 49 49 48 48 48 48 48 48 48 47 47 47 47 46 46 47 50 43 34 32 32 32 32 31 32 38 49
82 86 90 85 75 67 57 55 55 52 52 54 55 55 55 56 55 54 53 52 51 51 49 47 45 43 43 42 40 41 41 32 31 32 33 37 39 41 41 39 37 34 33
85 88 82 70 60 53 55 54 54 56 58 60 61 61 60 59 58 58 57 55 53 52 49 46 42 39 38 36 35 30 26 31 36 39 40 40 41 43 45 46 44 43 41
83 77 65 55 51 52 53 55 57 60 61 60 58 56 54 52 50 49 48 48 47 46 44 41 37 35 32 30 23 22 26 28 29 28 28 27 28 30 31 35 41 43 43
73 66 55 50 50 52 54 58 60 59 56 54 52 49 47 46 42 40 39 36 33 30 30 30 28 26 25 16 16 15 13 10 9 9 9 11 13 15 18 21 25 29 31
64 51 48 48 50 53 56 58 57 55 51 46 44 43 43 41 40 36 33 30 24 19 20 18 19 19 14 11 11 9 7 8 9 11 10 12 13 14 16 22 26 28 30
52 46 46 47 50 53 55 54 52 49 46 44 43 37 36 36 35 32 26 20 14 11 11 11 12 13 10 11 12 9 9 12 13 15 16 17 16 16 16 14 13 16 21
43 43 44 47 48 51 52 51 49 49 45 41 37 36 34 32 30 26 17 9 7 10 8 6 9 10 11 13 8 6 8 11 11 11 11 11 13 16 14 16 16 15 14
40 40 43 44 46 49 49 48 47 44 41 36 34 28 26 25 23 15 4 7 11 11 8 6 5 4 9 10 6 3 7 8 12 14 17 16 12 12 17 21 23 24 21
36 39 41 41 44 46 46 44 43 43 41 36 31 26 25 22 15 3 6 11 11 9 9 9 9 9 9 8 6 1 4 9 11 12 15 19 21 19 14 13 19 26 28
34 37 38 39 42 43 44 40 39 42 41 35 30 27 21 13 4 6 11 10 7 6 9 11 12 12 11 9 6 2 2 8 10 9 12 16 19 23 25 21 17 11 11
32 35 35 37 40 41 41 38 38 38 35 32 29 20 15 6 2 10 11 9 7 6 7 8 7 7 7 7 5 2 2 5 8 9 10 13 17 20 24 27 26 17 8
31 33 35 35 38 39 39 38 36 36 33 28 24 16 9 3 6 10 11 9 9 8 7 5 4 4 3 3 2 0 3 5 6 7 8 11 15 18 21 24 26 27 19
30 34 36 35 37 38 38 36 34 34 31 26 20 14 10 1 7 10 10 9 7 7 6 6 4 3 2 2 2 3 4 5 5 6 7 10 13 17 19 18 21 24 25
31 35 36 36 36 37 35 34 32 31 29 23 18 13 8 3 8 11 11 10 8 5 2 1 0 2 3 4 4 5 5 5 5 6 8 9 11 14 16 18 17 18 21
32 36 35 36 36 37 33 32 30 29 27 23 19 14 8 5 9 13 14 14 13 10 9 7 6 6 5 6 6 6 7 7 7 7 8 9 10 12 14 15 15 15 17
32 36 35 35 36 36 32 30 29 27 26 23 19 16 12 7 7 13 16 17 18 17 15 13 11 10 8 7 7 7 7 8 8 8 9 9 10 10 11 13 14 13 14
33 35 34 34 36 36 32 28 27 27 26 22 20 16 14 11 8 9 16 18 19 19 19 17 16 15 13 12 10 10 10 10 9 9 10 11 12 13 12 12 12 13 14
32 33 33 34 36 35 32 28 26 26 25 24 21 19 15 13 11 10 10 16 21 21 20 20 20 20 19 17 16 15 14 14 13 13 13 14 14 15 15 15 13 13 14
31 30 33 35 37 34 30 27 26 26 25 24 23 21 18 14 12 11 10 10 15 21 23 22 21 21 21 21 20 19 19 18 18 17 17 18 18 19 18 17 16 15 15

GFSGL_500_spd_006.txt.gz
Wind_Speed
72 74 75 78 81 81 82 81 79 82 86 88 89 91 95 85 71 56 48 45 40 47 49 54 48 50 52 52 50 53 64 68 68 65 66 69 66 68 69 71 77 77 77
74 76 80 83 83 81 81 78 79 87 88 91 91 82 72 61 47 45 44 43 45 50 50 50 51 53 52 51 49 49 50 56 63 65 63 68 71 68 62 63 65 65 68
76 83 87 87 83 83 80 81 85 87 92 86 72 62 52 48 45 47 47 48 50 50 49 49 48 48 48 50 50 48 50 51 52 55 53 55 57 57 56 58 63 66 67
74 87 88 83 83 81 83 84 89 91 81 69 60 52 52 51 49 48 50 50 51 51 51 49 47 45 44 42 41 40 41 44 47 50 50 50 53 54 55 55 57 61 62
83 95 89 84 83 83 85 85 85 72 62 55 55 55 52 50 49 48 49 49 48 48 48 47 45 43 42 42 40 40 41 41 43 46 48 48 50 53 55 56 58 60 62
94 90 86 84 85 86 84 78 67 61 55 56 54 53 54 54 52 52 52 52 52 51 51 51 49 46 44 43 43 42 43 43 43 45 45 43 44 48 50 51 53 55 59
88 84 84 84 83 81 70 63 56 53 54 54 56 58 59 60 58 57 56 55 54 54 53 52 51 49 48 46 46 45 45 43 41 40 39 40 42 43 43 41 42 43 47
81 81 82 81 75 67 57 52 52 53 55 58 60 61 60 59 57 55 54 53 52 51 52 52 52 49 47 44 43 41 38 36 35 37 38 32 30 33 34 35 36 35 35
80 79 78 72 65 55 49 49 51 54 56 60 60 58 54 51 50 48 46 44 42 42 43 44 46 44 42 40 36 32 29 28 31 28 29 33 35 38 40 42 42 44 43
76 74 69 64 56 48 48 49 52 55 58 58 55 53 50 48 47 42 39 36 34 34 34 35 37 35 32 30 26 22 21 22 24 25 25 26 28 31 34 36 38 41 45
73 68 62 57 48 47 47 50 52 55 55 53 50 47 45 43 42 41 39 34 31 28 29 28 27 22 21 19 17 16 16 13 10 10 12 14 15 15 17 18 20 23 26
68 63 57 48 46 44 47 48 51 54 52 48 45 45 44 42 38 37 36 29 26 23 21 17 13 13 13 13 17 15 13 12 14 16 18 18 18 18 19 20 20 23 26
65 55 46 42 41 44 45 47 50 52 49 44 45 43 40 38 36 35 31 23 16 12 5 3 3 5 8 12 12 12 12 14 13 13 12 12 15 16 19 20 23 22 20
53 42 37 37 39 42 43 47 50 50 45 44 42 39 37 35 34 28 21 12 4 5 7 4 2 3 5 8 10 12 9 5 3 2 6 8 9 11 14 19 22 24 24
34 30 33 34 38 39 41 44 48 48 42 42 41 37 35 31 25 17 9 5 5 8 7 7 7 8 11 14 12 7 3 2 4 8 11 13 16 18 16 13 17 25 28
24 28 28 33 36 37 40 44 46 44 41 40 39 34 31 23 14 8 5 6 6 5 7 9 12 13 15 13 9 7 5 4 5 7 9 11 13 16 20 21 18 13 15
24 23 28 33 36 37 39 42 43 41 38 38 36 29 25 15 11 4 5 6 5 4 6 10 12 13 14 12 10 7 5 4 3 3 6 9 12 14 17 21 24 23 15
20 24 29 35 37 37 38 41 40 38 35 36 32 27 21 14 5 3 5 6 5 4 4 6 7 8 8 7 6 5 4 3 2 1 2 5 9 12 15 18 22 25 25
21 27 31 36 37 37 38 40 38 36 33 33 30 25 19 11 2 3 5 5 6 6 3 3 2 2 3 5 6 5 4 3 2 2 2 4 8 10 13 16 18 20 23
23 28 32 37 38 37 38 39 37 35 31 29 28 24 19 10 4 7 7 5 5 5 6 4 3 3 3 2 2 2 2 2 3 3 3 5 7 8 10 13 14 16 18
25 29 33 37 37 36 38 39 36 32 31 27 26 23 18 13 8 11 12 11 9 6 4 2 1 0 1 1 1 2 3 4 5 4 5 6 7 8 10 11 11 11 13
27 30 33 36 36 37 38 39 36 31 29 28 24 23 20 15 13 13 17 17 16 14 13 11 9 8 7 6 5 6 6 6 6 6 7 8 7 8 9 10 9 9 10
28 30 32 35 35 37 39 38 34 31 29 27 25 22 20 18 15 14 15 20 21 21 20 18 16 15 13 12 10 9 8 8 7 7 8 8 9 10 11 11 10 10 10
27 29 31 32 33 37 39 36 31 29 29 29 25 23 21 19 17 16 15 16 21 24 24 23 22 20 19 18 16 15 13 12 12 11 11 11 11 11 12 13 13 13 13
26 28 30 30 32 37 38 34 29 28 29 30 27 24 22 20 18 17 17 16 17 21 25 25 25 24 23 23 22 21 19 18 17 17 16 16 15 15 15 16 17 17 17
26 27 27 29 33 36 38 34 29 27 28 29 28 25 23 22 20 18 17 17 16 17 20 25 26 26 26 26 25 24 23 23 22 22 21 21 21 20 20 20 21 20 20

GFSGL_500_spd_009.txt.gz
Wind_Speed
74 76 76 77 77 79 79 83 88 95 90 85 84 82 83 83 76 67 58 52 50 49 47 46 48 47 52 53 55 53 47 46 49 52 62 60 61 65 66 74 78 76 71
78 79 80 82 82 79 82 88 92 89 89 87 84 81 73 66 59 54 52 51 52 52 50 50 49 50 51 51 53 56 55 57 54 52 52 56 60 65 66 67 66 63 66
78 79 76 79 80 89 87 87 87 86 84 81 74 66 60 54 52 54 54 51 51 51 50 49 49 51 51 49 47 47 47 50 52 52 49 50 53 56 60 64 64 65 68
76 75 77 80 84 86 86 87 85 84 79 71 62 55 52 51 53 52 54 54 54 54 54 52 51 50 49 47 45 43 43 42 43 44 45 46 47 50 53 56 57 60 62
79 81 81 82 83 84 84 82 80 73 66 59 53 51 52 54 55 55 57 57 57 56 56 55 54 52 50 48 46 42 41 40 40 39 37 39 41 45 48 50 52 56 57
83 83 83 82 81 82 81 78 71 65 57 51 52 54 56 58 60 60 59 58 56 54 53 52 52 52 51 49 47 45 43 42 41 40 38 39 40 42 45 47 51 54 54
87 86 83 81 81 79 77 71 63 56 51 52 54 55 58 61 60 56 54 53 50 48 47 48 48 47 48 47 47 45 44 44 43 41 39 39 39 40 42 44 46 49 51
84 83 83 81 80 75 69 64 58 51 51 53 54 58 60 57 56 50 47 45 44 43 43 42 41 41 42 43 42 43 42 41 40 39 38 36 36 37 39 40 42 45 48
79 79 80 78 74 69 64 58 50 49 50 51 56 58 57 52 51 50 46 43 40 39 39 39 38 36 35 35 35 36 37 35 35 34 32 30 30 30 31 32 34 36 36
84 77 75 74 71 63 54 47 46 47 49 51 55 57 51 50 50 48 45 40 38 38 36 34 34 31 28 27 27 27 26 28 28 25 23 21 23 24 28 31 35 38 40
78 77 76 72 58 48 42 44 43 46 48 52 54 52 49 49 48 46 43 39 37 34 28 27 27 23 21 19 18 19 20 21 19 16 13 11 13 16 18 19 20 23 25
73 72 64 52 42 36 41 40 43 44 48 52 52 48 48 48 46 42 38 33 30 23 17 15 13 8 6 9 14 17 17 16 13 11 13 17 19 20 22 23 22 22 23
64 55 43 35 31 37 37 40 41 43 47 50 49 45 45 43 40 35 30 24 18 12 8 6 5 4 2 5 10 13 14 13 11 13 16 15 14 15 16 18 22 25 24
47 36 24 25 30 32 37 39 41 43 47 48 45 43 41 38 33 26 19 14 12 10 8 8 6 4 2 7 10 13 13 9 10 8 3 5 8 9 10 11 12 16 22
27 20 23 25 27 32 37 39 40 43 45 45 41 40 36 30 25 19 13 11 10 10 10 9 8 9 9 11 12 11 7 5 7 9 7 7 9 10 13 16 17 15 15
22 25 24 24 29 35 38 39 39 42 42 40 39 37 32 26 21 13 10 10 11 10 10 9 11 12 12 13 11 8 7 9 9 6 6 7 8 9 10 13 18 20 18
27 27 25 27 32 36 39 39 41 43 40 37 36 34 29 23 16 9 8 10 9 9 8 7 8 8 7 8 8 6 4 5 5 3 3 3 6 8 10 13 16 18 21
30 28 26 30 34 37 40 39 40 42 37 36 34 32 27 21 13 7 6 8 8 6 5 4 2 2 2 2 3 3 4 4 4 3 2 0 3 6 8 11 13 15 18
31 29 28 31 35 37 40 39 40 41 35 33 33 31 27 20 13 8 6 4 3 4 3 3 3 4 4 6 6 7 7 7 7 6 5 4 4 5 6 9 10 11 14
31 30 29 32 34 36 38 38 40 40 33 31 30 30 28 22 14 11 11 8 5 2 0 1 2 2 2 2 1 3 5 7 8 7 6 6 5 5 5 7 8 8 10
33 31 30 31 33 36 36 37 41 39 31 29 30 28 27 24 18 13 15 16 15 12 9 6 4 3 4 3 2 3 4 6 7 7 7 7 8 8 8 8 8 8 8
33 32 29 30 31 34 34 37 40 38 30 28 29 28 26 25 22 18 15 17 22 22 19 17 15 13 11 10 9 9 8 7 8 9 10 10 10 11 11 11 11 10 10
32 31 29 29 31 31 32 36 39 38 30 26 27 28 26 24 24 22 20 16 18 23 26 25 24 21 20 18 16 14 13 12 11 11 12 12 12 12 13 13 13 14 13
31 29 28 29 30 29 32 36 37 38 32 27 26 26 26 24 23 24 22 20 18 18 21 26 28 27 26 25 22 21 19 18 18 17 16 15 15 15 14 14 14 16 16
26 26 27 29 27 29 32 35 38 37 35 29 26 26 26 25 24 24 24 22 21 19 19 20 24 28 29 29 28 27 25 24 23 22 22 21 21 20 20 20 18 18 18
25 26 27 26 26 29 33 36 37 38 37 33 28 27 26 26 26 25 24 23 21 20 19 19 20 22 27 30 30 30 30 29 28 27 27 26 26 26 26 26 25 24 23

GFSGL_500_spd_012.txt.gz
Wind_Speed
77 79 81 83 84 82 82 80 79 80 81 82 83 83 81 77 71 65 60 54 49 47 47 50 51 51 51 50 49 47 45 48 49 45 42 45 46 65 70 68 62 67 71
80 85 85 85 82 81 80 81 81 81 79 80 79 77 71 63 57 52 48 47 48 48 49 50 49 50 50 50 49 50 49 47 46 43 50 53 44 52 62 63 72 63 68
85 84 81 81 80 81 81 83 79 79 80 79 75 67 60 54 49 49 48 50 51 52 53 54 53 53 53 54 54 51 49 47 45 43 42 45 49 54 57 59 67 67 61
85 87 83 84 84 84 81 82 81 80 77 73 66 60 53 48 49 49 51 54 55 55 54 54 54 55 55 55 55 54 51 48 44 42 40 43 45 48 52 55 55 57 59
88 89 89 91 92 89 83 82 78 76 73 68 60 53 49 49 51 52 55 57 56 53 50 50 50 50 51 52 54 53 52 50 46 41 39 38 40 42 45 48 50 52 52
85 85 84 85 87 90 86 79 77 76 70 56 48 47 47 50 52 55 56 55 51 48 46 44 44 44 46 47 48 49 49 49 46 42 40 37 37 39 40 42 43 46 48
85 88 84 77 67 78 69 77 76 66 51 43 44 46 48 51 55 57 55 51 50 48 45 43 41 40 40 42 43 42 42 45 45 43 40 38 36 36 37 38 39 41 44
86 89 78 74 71 68 67 72 65 46 41 43 44 47 49 53 58 58 53 52 50 47 45 42 40 40 39 39 37 34 36 39 40 41 38 37 37 37 37 38 39 41 42
87 83 73 68 71 58 62 69 45 39 42 43 47 48 51 54 54 52 50 49 47 44 41 39 40 39 37 33 30 28 29 32 34 34 35 34 34 34 34 34 34 37 38
83 74 70 65 43 57 59 43 37 38 42 43 44 48 52 53 51 50 48 46 43 38 35 35 35 31 24 25 24 23 22 25 27 27 27 26 26 25 25 25 27 30 33
74 72 63 53 36 49 42 33 34 39 42 42 44 47 48 48 47 45 43 40 34 29 27 24 22 18 16 17 17 16 17 20 19 18 18 16 15 14 13 14 16 18 20
69 61 50 36 28 24 27 30 35 39 40 42 45 45 45 44 42 40 36 29 25 22 21 17 14 10 7 5 4 7 12 15 15 13 11 11 9 11 16 20 21 23 23
57 42 31 24 24 26 27 33 38 39 41 43 46 42 41 40 36 34 27 23 23 22 21 19 17 14 13 6 4 8 12 13 12 12 9 9 12 14 14 13 13 16 20
39 27 26 28 28 27 30 34 39 40 41 44 43 41 38 36 32 27 21 21 23 23 21 18 15 12 10 8 7 10 12 13 10 7 6 6 7 9 8 9 9 9 10
28 27 28 31 29 29 32 36 39 39 41 44 40 39 36 32 27 20 17 19 20 19 17 15 14 16 16 13 10 12 11 8 6 10 13 13 11 9 8 8 10 12 13
27 27 30 31 29 30 33 37 39 39 41 42 37 36 34 30 26 18 16 18 17 15 14 13 12 12 12 12 12 11 10 12 13 12 12 11 8 6 5 5 8 9 13
28 28 29 31 30 31 34 36 38 37 40 41 32 32 31 27 24 16 14 15 15 13 12 10 9 9 9 9 9 9 7 7 8 7 8 7 5 4 4 5 7 9 11
29 29 29 31 32 32 34 36 37 37 41 41 30 30 29 25 22 17 13 13 12 11 10 9 8 8 8 8 7 6 3 0 3 4 5 3 1 1 2 4 6 7 10
29 30 30 31 32 32 33 35 35 37 40 40 30 29 30 27 22 19 15 13 12 10 8 7 8 8 7 7 7 7 6 5 6 7 6 5 4 3 2 3 4 5 6
30 29 30 30 31 31 31 34 32 36 39 39 29 27 28 27 24 19 16 16 16 14 11 8 5 5 5 6 5 4 5 6 7 8 9 8 8 7 6 6 6 6 6
28 29 28 29 30 30 30 31 31 35 38 38 31 26 27 27 25 23 19 17 17 20 20 16 13 10 8 7 6 6 5 5 7 8 10 10 10 10 11 10 9 8 8
27 28 28 29 28 27 29 28 30 35 38 38 35 27 24 25 25 24 22 19 17 17 20 24 24 21 18 16 14 12 11 10 9 9 10 11 12 13 14 13 13 12 12
28 28 28 26 25 26 27 26 30 34 37 38 36 31 26 24 25 25 24 23 21 18 18 19 24 27 27 25 22 20 18 17 16 15 13 13 13 14 15 15 15 15 15
27 27 24 24 25 26 25 26 30 33 36 37 36 33 27 25 25 26 26 25 24 22 19 18 19 21 26 28 28 27 25 23 22 21 20 19 18 18 17 17 17 17 17
26 23 23 25 26 25 25 26 29 32 35 37 36 35 29 25 24 27 27 26 25 23 21 20 19 18 19 23 27 28 28 28 27 26 25 25 24 24 24 23 23 23 24
22 22 24 26 26 25 25 27 29 32 34 36 37 37 30 26 26 27 29 27 26 24 22 20 19 19 19 19 20 23 27 29 29 29 30 29 29 29 29 29 29 29 29

GFSGL_500_spd_015.txt.gz
Wind_Speed
71 76 80 84 87 86 83 81 80 82 82 84 75 74 72 71 69 65 61 54 47 44 45 45 45 46 47 47 49 50 50 49 47 43 43 42 44 41 43 45 59 72 60
76 80 84 87 87 84 83 82 85 86 86 75 76 71 72 70 64 59 52 44 44 45 46 48 49 52 52 53 54 53 54 52 49 43 42 43 44 46 46 48 48 57 67
80 85 88 89 89 88 88 89 90 88 81 72 80 70 79 64 54 45 40 41 45 47 49 52 54 54 53 53 55 56 55 56 54 49 43 41 43 46 50 53 54 56 63
85 88 89 89 89 88 86 83 81 66 68 71 78 64 70 49 41 38 41 44 46 50 54 54 51 50 49 49 49 51 52 53 54 53 48 44 41 45 47 48 56 55 56
88 90 91 90 91 89 85 78 59 62 72 80 65 68 52 45 42 43 44 47 52 54 53 50 48 47 47 47 46 43 42 45 47 50 50 47 43 42 45 46 48 57 58
90 92 90 91 89 84 78 70 58 64 68 63 60 62 48 46 46 47 49 52 53 53 48 45 46 45 43 42 43 41 39 36 38 42 46 46 44 43 43 42 42 45 52
91 89 90 89 84 75 70 59 54 59 55 54 53 46 47 47 48 51 53 52 50 49 48 47 45 44 44 42 41 38 37 35 33 36 42 42 42 41 41 39 38 38 39
89 90 88 83 74 68 59 43 54 48 51 51 43 45 46 48 51 52 50 47 47 47 47 45 42 39 38 37 36 35 35 33 31 32 36 38 39 40 40 38 37 37 38
89 90 85 73 66 59 46 36 45 43 42 38 43 44 46 49 49 48 44 44 42 39 38 36 33 31 30 30 30 30 27 27 27 28 31 33 34 37 37 36 34 34 35
90 85 75 66 55 42 29 35 38 33 34 39 41 43 46 46 46 43 41 37 31 30 33 32 30 26 22 21 19 16 17 21 22 24 27 28 28 30 32 33 34 34 34
85 73 65 53 35 25 27 26 23 30 36 39 40 43 45 43 42 39 36 28 26 29 31 30 28 24 20 16 12 11 13 16 18 19 20 21 21 23 24 23 23 24 24
75 64 50 36 28 29 30 26 28 33 38 39 40 44 42 41 39 36 29 25 27 31 30 28 26 23 19 14 10 5 3 7 11 14 15 15 15 15 15 13 13 15 17
64 51 38 30 28 31 29 27 30 35 38 39 40 43 38 38 35 33 25 23 27 29 27 26 23 21 18 14 9 4 4 9 13 15 15 16 14 10 9 11 13 14 16
54 41 31 28 29 30 29 29 31 36 39 39 40 44 36 36 32 28 22 22 25 24 23 22 20 22 23 19 11 8 8 12 15 15 13 9 7 7 8 8 7 5 3
44 35 29 27 29 28 28 29 32 35 38 37 40 43 34 34 30 26 19 18 20 19 17 18 18 20 20 20 15 9 8 10 10 10 11 12 14 16 14 11 8 5 5
37 31 29 27 28 27 28 29 32 35 37 37 40 41 32 33 29 25 20 16 17 16 16 15 15 15 16 15 14 11 11 13 14 14 15 15 14 11 9 7 6 4 3
32 29 29 28 28 28 28 29 30 33 34 35 38 39 30 30 27 24 19 15 15 14 14 14 13 13 13 12 11 9 6 6 9 10 10 10 8 7 6 5 4 2 2
29 28 29 28 29 29 28 28 29 30 30 34 37 37 29 27 27 24 20 18 14 13 12 12 12 12 11 10 8 6 4 1 3 5 7 7 6 6 5 3 2 1 2
30 28 29 28 27 28 27 27 27 29 30 33 37 37 31 25 26 25 21 18 16 15 14 13 11 9 8 7 7 6 4 2 3 6 9 9 7 6 6 6 5 4 4
29 28 27 25 27 27 27 24 25 27 29 32 35 37 35 28 24 25 23 20 18 17 17 17 15 12 9 7 6 5 5 5 5 7 9 11 10 10 10 10 9 8 7
29 27 26 27 28 28 23 22 24 25 28 32 35 36 34 30 24 23 24 23 20 18 18 18 21 20 18 15 12 9 7 6 6 7 9 11 13 12 13 13 12 12 12
28 28 28 27 26 23 22 23 23 24 28 31 34 35 34 30 26 23 23 25 24 21 19 19 20 22 25 25 22 19 16 13 12 10 10 11 12 14 15 15 15 16 16
29 28 27 25 21 22 23 22 22 24 27 30 33 34 34 31 26 23 23 24 26 24 22 20 20 21 22 25 28 28 25 22 20 18 17 15 14 14 14 15 15 16 16
27 26 24 21 21 22 23 22 22 24 26 29 30 33 32 32 28 24 23 24 26 26 24 22 20 20 21 22 24 27 29 29 27 25 24 22 21 20 19 18 18 18 18
25 23 23 22 23 23 24 23 23 24 26 28 29 30 32 33 31 27 25 25 26 27 25 23 21 20 20 20 21 22 25 28 29 29 28 27 26 26 25 25 25 24 24
24 24 24 25 27 25 25 23 23 25 26 27 28 29 31 33 34 31 27 27 27 27 27 25 23 21 21 21 21 21 21 22 25 28 29 30 29 29 29 29 29 30 30

GFSGL_500_spd_018.txt.gz
Wind_Speed
64 69 73 78 81 85 88 89 89 90 92 91 87 84 79 66 69 73 78 67 59 49 46 44 44 46 47 49 50 51 52 54 55 50 47 45 47 50 48 46 44 46 48
68 73 77 81 85 89 92 93 93 92 92 88 80 71 66 59 68 75 74 60 49 47 45 45 47 49 50 52 54 55 56 57 59 57 55 52 49 49 51 51 49 47 44
73 77 82 86 90 92 92 92 93 94 88 75 69 64 55 64 71 76 55 50 50 50 51 51 53 55 56 58 58 57 55 54 56 57 56 57 56 51 49 50 50 48 47
77 82 85 90 92 94 94 94 91 85 77 70 63 51 61 67 60 46 49 51 50 52 55 58 59 59 57 56 54 53 51 48 47 49 47 51 55 55 51 50 50 48 54
80 84 89 93 94 94 95 93 86 77 71 62 50 48 53 47 44 49 50 50 53 56 57 55 53 52 52 52 51 49 46 44 43 43 41 44 51 53 54 51 48 48 49
84 88 92 92 93 94 92 88 76 65 58 49 42 49 43 44 48 48 49 52 54 53 49 49 51 47 46 46 46 46 43 42 41 41 37 39 42 48 51 50 48 46 49
87 89 90 90 92 92 88 75 61 51 41 33 36 44 42 46 46 48 52 51 50 47 47 40 36 38 39 39 37 37 37 37 38 38 36 35 38 44 47 45 46 47 45
86 88 88 90 92 89 73 57 43 33 26 30 38 39 44 45 46 50 48 48 44 42 35 37 39 39 37 36 32 30 31 31 33 33 33 34 34 37 41 41 44 43 41
87 87 88 91 88 74 55 38 33 34 31 29 35 40 42 43 48 46 45 41 38 33 35 40 40 38 34 32 30 24 24 29 31 32 31 30 31 32 36 37 39 38 36
88 87 89 87 75 57 41 31 32 33 31 33 38 41 42 43 47 43 43 36 30 30 36 38 37 35 31 26 25 21 16 18 17 19 21 24 25 28 29 31 34 33 34
86 87 87 75 59 45 33 30 32 33 33 35 40 42 41 45 45 42 41 33 26 29 32 32 32 32 30 25 21 17 14 13 13 13 13 16 19 22 23 24 27 28 31
85 87 76 61 49 37 30 30 32 32 33 36 40 41 41 45 41 40 37 30 24 26 28 28 29 30 31 27 21 17 12 6 3 7 10 14 15 15 16 19 21 25 27
84 79 67 53 42 33 30 31 33 31 33 36 38 39 40 44 38 37 36 28 23 24 24 25 27 28 30 29 23 19 13 8 6 10 13 14 14 14 14 15 16 17 19
78 69 58 45 36 31 30 30 32 31 33 35 37 37 39 41 35 35 34 28 22 22 22 22 24 25 26 26 24 18 13 10 9 12 14 15 15 15 14 14 14 15 14
69 60 51 37 33 30 30 31 33 33 33 33 35 35 38 40 34 32 33 26 21 19 19 19 20 22 23 23 21 19 11 6 7 9 9 10 10 10 10 11 12 11 10
61 52 43 33 31 30 31 31 33 33 32 32 33 34 37 38 34 30 30 27 22 18 17 16 17 18 19 18 16 14 12 10 9 10 12 14 14 12 12 11 11 10 8
53 44 37 33 29 30 29 29 32 32 30 30 32 33 36 37 34 28 28 26 22 19 16 15 14 15 15 15 13 11 9 7 6 7 9 10 10 10 9 8 6 5 4
46 39 33 30 28 28 27 28 29 28 27 29 30 32 35 36 33 28 25 25 24 20 17 16 14 14 13 11 9 8 5 4 3 1 3 5 5 6 7 7 7 6 4
41 35 30 28 26 26 27 27 28 26 25 27 29 32 35 35 33 29 24 23 24 22 20 18 18 16 14 11 8 7 6 5 5 6 7 7 6 6 7 8 8 8 7
38 33 28 28 27 27 27 27 24 24 25 25 28 31 33 34 33 30 25 22 23 23 22 20 19 20 19 16 12 9 6 6 7 8 9 11 13 13 11 11 12 11 10
36 33 28 28 27 26 24 22 23 24 23 24 27 30 31 33 32 30 27 24 23 25 25 22 20 21 21 22 21 18 15 11 9 8 9 11 13 15 15 15 15 15 15
34 31 28 26 26 22 20 21 23 22 22 24 26 28 29 31 32 31 29 26 25 24 25 24 22 21 22 23 24 26 25 22 18 15 13 11 12 13 16 18 19 19 18
31 29 26 24 22 20 20 22 23 23 22 23 25 26 28 29 31 31 31 28 26 25 25 25 24 22 20 22 24 25 27 29 28 25 22 20 18 17 16 17 18 19 19
28 26 25 22 20 20 21 23 24 24 23 23 24 26 26 27 29 30 31 31 29 27 27 26 25 24 23 21 22 23 25 27 30 31 30 28 26 25 23 22 21 21 21
27 26 24 23 23 23 24 26 26 25 24 24 25 26 26 27 28 29 30 32 32 30 28 27 26 25 24 23 22 22 23 24 26 29 32 33 32 31 30 29 28 27 27
27 26 27 27 27 27 27 27 28 27 25 24 25 26 26 26 28 29 30 31 32 34 31 29 28 27 26 25 23 23 23 23 23 25 26 30 33 33 33 33 33 32 32

GFSGL_500_spd_021.txt.gz
Wind_Speed
58 61 65 70 73 78 82 85 89 93 97 99 97 99 98 90 77 72 70 65 65 68 69 53 52 52 51 50 49 50 50 54 55 52 52 51 52 52 50 50 49 48 47
62 65 70 73 77 80 84 88 92 95 99 98 99 96 83 75 68 65 58 60 64 61 51 54 55 54 54 54 55 55 57 58 61 60 57 56 56 57 56 54 51 50 48
63 67 71 75 78 82 87 92 95 99 98 99 97 82 70 63 54 43 47 47 48 51 53 55 56 56 55 55 55 55 56 57 60 61 60 57 58 58 58 57 55 53 49
66 70 75 79 85 88 91 95 99 99 98 96 80 62 55 43 41 44 44 49 52 52 55 55 55 55 51 50 48 49 52 56 57 57 55 53 53 53 53 54 56 55 52
69 75 80 85 88 89 92 96 95 96 95 77 57 48 40 34 36 41 48 50 50 54 52 53 51 48 40 40 43 44 45 45 49 54 51 50 49 48 49 50 52 53 52
73 79 84 87 88 90 94 94 93 94 75 55 43 39 34 36 41 47 49 49 53 49 51 47 43 37 43 47 48 47 46 44 42 42 44 46 45 43 45 45 46 48 49
78 84 85 86 87 92 92 91 90 75 56 44 39 37 37 40 44 47 47 50 50 49 46 40 37 42 45 44 44 43 41 40 38 33 35 38 40 40 42 38 39 42 45
83 86 86 86 89 90 89 89 78 58 44 39 39 37 39 42 46 46 46 50 45 44 41 36 39 40 40 42 42 39 36 35 33 27 28 30 33 36 40 37 36 36 40
84 84 85 88 89 89 88 80 61 47 37 37 37 37 40 43 46 46 47 45 41 39 35 36 37 37 39 41 42 36 32 31 26 22 23 26 28 30 33 34 33 32 35
82 84 87 89 90 86 80 66 50 40 35 35 37 38 40 42 45 45 47 40 38 35 31 33 34 36 39 40 40 34 28 24 21 16 13 18 24 27 29 28 27 28 33
82 86 88 88 85 79 68 55 42 36 34 35 37 39 41 42 43 44 46 38 36 30 28 29 31 34 37 38 38 32 26 19 14 10 6 8 12 17 19 20 21 23 27
84 88 88 82 79 69 59 45 36 33 33 35 38 40 42 42 41 43 44 37 35 28 25 26 28 31 34 35 35 31 27 20 13 7 1 4 7 10 10 12 16 19 23
86 87 80 75 69 60 50 38 34 32 33 35 38 40 40 40 40 42 42 37 35 30 24 25 26 27 31 32 31 31 26 21 14 9 6 6 8 9 11 13 15 16 19
85 78 72 66 61 52 42 36 33 33 34 35 38 39 38 38 39 41 40 35 33 31 25 24 24 25 27 28 27 27 26 19 14 10 9 9 9 10 11 11 12 13 14
76 70 65 60 53 46 38 34 32 32 32 33 36 36 35 35 38 40 39 34 30 30 26 22 21 22 23 23 24 21 21 19 13 8 6 6 7 7 7 8 9 11 12
70 65 60 54 47 40 34 31 31 30 30 31 33 32 32 33 37 38 37 33 27 28 26 22 20 19 19 21 21 18 16 15 13 10 5 6 8 10 11 10 10 11 12
66 59 53 48 42 35 31 29 28 29 29 30 31 30 30 33 36 36 35 32 27 25 26 22 20 19 17 16 17 16 13 12 10 7 7 8 8 8 8 9 10 10 9
59 53 47 43 38 34 30 28 28 29 30 31 29 29 29 32 34 34 34 31 28 25 24 24 21 19 18 16 14 14 12 9 7 6 2 2 2 3 4 4 5 5 5
51 47 42 39 34 32 30 29 28 28 26 27 28 27 28 30 32 33 33 32 29 26 24 24 24 22 19 19 17 14 12 10 8 6 6 5 4 3 4 4 4 4 4
46 42 39 35 32 30 29 28 27 24 24 26 27 26 27 28 30 32 33 32 31 28 26 25 24 23 22 20 20 20 16 13 11 9 10 10 11 11 9 8 8 9 9
42 38 36 32 30 29 27 27 23 22 24 26 26 25 26 27 28 30 32 32 32 31 29 27 26 25 23 21 21 22 23 21 18 15 12 11 12 13 14 14 14 13 13
38 36 32 29 28 27 26 24 23 23 25 26 26 25 26 26 27 29 30 31 32 32 32 30 27 26 25 24 22 21 23 26 27 24 21 17 15 14 15 16 18 18 18
34 31 30 28 26 26 25 24 24 25 26 28 27 26 26 27 27 28 29 29 31 32 33 32 29 27 26 25 24 23 23 24 26 29 29 27 24 22 19 18 18 20 21
29 28 28 27 27 26 26 27 27 27 27 29 29 27 27 27 27 28 28 28 29 31 32 33 33 29 27 26 25 24 23 23 24 27 29 32 32 30 28 27 25 23 22
27 26 26 26 27 27 28 29 30 30 29 29 30 30 28 28 28 28 28 28 28 30 31 33 34 35 30 27 26 25 24 24 24 25 26 28 31 35 35 34 33 31 30
27 28 28 29 29 29 30 31 31 31 31 31 31 31 30 29 28 29 29 29 29 30 31 33 34 35 35 31 28 27 26 25 24 25 25 25 27 29 32 36 37 37 36

GFSGL_500_spd_027.txt.gz
Wind_Speed
50 54 58 59 60 60 62 65 70 76 81 86 91 92 94 96 100 99 90 76 58 46 44 41 42 46 48 50 52 51 51 52 53 44 44 44 44 46 48 52 52 48 45
52 56 59 60 60 61 64 69 75 81 86 90 91 92 95 99 96 85 72 56 45 44 43 45 46 49 51 52 49 49 49 43 44 42 42 44 45 45 43 44 51 54 53
54 57 59 59 61 64 69 75 80 84 87 90 90 95 98 96 82 69 54 43 41 42 44 45 48 51 50 48 47 43 39 42 44 44 41 45 45 46 47 47 44 47 54
57 59 60 60 63 68 74 78 82 86 88 89 95 98 94 81 68 54 43 39 40 43 45 47 50 51 49 45 43 37 39 40 45 48 46 47 48 46 44 46 47 46 46
59 60 60 62 67 72 76 81 83 85 89 94 97 93 79 67 54 43 38 38 40 43 46 48 49 49 45 45 38 37 38 43 47 49 49 48 44 40 39 40 42 44 44
59 60 61 66 71 75 79 82 84 88 93 96 91 77 66 55 43 37 37 37 39 43 44 45 46 46 42 39 35 37 40 45 47 50 48 43 37 35 33 34 37 41 40
59 61 65 69 74 77 81 83 88 91 94 89 77 65 55 45 37 35 34 36 40 42 43 44 44 44 41 34 33 36 42 46 48 48 44 36 29 27 29 31 32 31 30
61 65 69 73 77 80 82 87 91 94 86 76 65 56 47 38 34 34 35 37 40 41 42 42 43 39 38 31 31 35 41 43 46 42 36 28 24 23 24 21 20 20 22
65 70 74 78 80 81 86 89 93 86 75 66 57 49 41 35 33 34 35 37 38 40 41 43 40 35 35 29 30 33 38 41 42 37 29 23 20 18 15 12 13 14 17
70 74 79 81 83 85 87 92 85 76 69 60 50 44 37 33 33 34 33 35 36 38 40 39 34 32 31 27 28 31 35 38 37 34 28 21 17 13 7 7 8 10 13
75 77 80 84 85 86 89 85 74 70 63 53 45 39 33 32 31 30 32 33 35 37 38 35 30 29 29 25 27 30 33 34 35 31 27 21 15 11 5 5 7 9 12
76 80 81 80 84 88 86 74 70 66 56 46 39 34 31 29 28 29 31 32 35 35 35 33 29 26 27 23 24 28 30 31 32 28 25 22 17 11 6 0 5 9 12
79 79 80 83 86 85 75 70 67 59 49 41 35 31 28 27 27 28 28 31 33 34 34 32 29 25 26 24 22 24 27 28 28 27 21 20 17 13 8 5 2 5 7
81 81 84 85 82 77 68 68 61 51 42 36 31 29 27 27 27 25 26 29 32 33 32 32 29 26 23 24 20 20 23 25 25 25 22 15 14 13 10 7 4 4 6
85 84 85 81 75 68 66 63 52 43 37 33 29 28 27 26 23 23 24 27 29 31 31 31 29 27 25 24 22 18 19 21 21 21 20 16 11 7 5 5 5 6 8
84 83 81 76 69 64 61 55 44 37 33 30 27 26 25 23 21 22 22 25 27 29 31 31 29 26 24 22 22 19 17 17 19 17 17 15 13 9 5 1 2 4 6
86 79 75 70 62 60 54 46 38 35 30 29 25 24 23 20 21 21 21 22 25 27 29 31 30 28 24 21 19 19 17 16 16 16 15 13 10 9 8 6 5 6 7
77 75 69 63 59 53 47 40 34 31 28 28 24 22 19 19 20 20 20 21 23 25 27 29 31 30 27 23 20 19 18 16 15 14 13 11 9 6 4 4 6 9 11
71 66 62 58 54 46 40 35 32 29 26 25 23 20 18 19 20 21 21 22 23 25 25 27 29 30 30 26 22 19 18 17 16 16 15 11 9 7 5 3 3 6 8
63 62 58 54 48 41 36 31 29 28 25 24 22 21 21 22 22 23 23 23 24 25 25 25 26 28 30 29 26 21 19 18 16 16 18 17 13 10 10 9 9 9 9
61 56 53 50 42 37 32 28 27 26 25 25 25 24 23 24 25 24 24 24 25 25 25 24 24 25 27 29 29 27 22 19 18 18 17 19 21 17 13 13 14 14 14
57 53 50 46 38 33 29 26 25 24 24 25 26 27 26 27 28 28 26 25 24 25 24 24 24 24 25 26 28 29 28 25 20 18 18 18 20 25 23 19 17 18 20
55 52 49 42 36 32 29 28 27 27 27 28 28 29 28 28 28 28 27 26 25 25 25 25 24 24 25 25 26 28 29 29 27 22 20 19 20 21 27 28 25 22 21
54 51 47 41 35 32 31 31 31 31 32 32 32 32 32 31 29 27 27 27 26 26 26 26 25 25 26 27 27 27 28 29 30 29 24 21 20 21 22 27 32 31 29
50 48 46 40 34 34 33 32 32 31 31 31 30 31 31 31 30 29 28 28 28 28 28 27 27 27 28 28 27 28 28 30 30 31 31 26 23 21 22 23 27 33 36
47 46 44 38 34 34 35 34 33 32 31 30 30 31 32 32 32 32 31 31 30 30 29 27 27 27 27 27 27 28 29 29 30 30 32 31 26 23 21 22 24 27 32

GFSGL_500_spd_030.txt.gz
Wind_Speed
49 51 53 54 56 57 61 62 62 63 67 73 77 82 85 87 90 95 98 97 83 72 60 49 43 44 46 47 48 51 50 49 48 39 40 40 41 41 42 44 45 46 52
52 53 55 57 57 59 62 62 63 67 72 77 81 83 86 89 94 96 93 81 68 58 47 41 42 44 45 48 49 49 48 45 46 39 37 38 41 43 45 45 46 46 47
54 56 58 58 59 62 63 63 66 71 76 81 83 86 89 94 95 89 78 66 56 45 40 40 42 44 46 47 48 47 44 42 39 40 37 43 47 49 49 49 49 48 47
56 58 60 60 61 64 64 66 70 76 80 83 85 87 92 94 86 76 65 55 45 39 39 40 42 45 46 46 46 43 42 37 38 39 42 48 51 52 52 50 49 48 47
58 60 60 61 65 64 66 71 76 80 83 85 89 92 92 83 76 66 55 45 38 37 38 41 43 44 45 46 45 39 38 35 38 41 47 50 52 50 49 45 41 40 41
59 59 60 63 64 66 71 76 79 82 84 88 90 93 82 76 67 56 47 40 37 38 40 42 43 43 44 44 40 38 34 35 38 43 47 49 47 44 39 35 32 33 33
58 59 61 62 65 70 75 82 83 84 85 90 93 81 76 70 59 49 41 37 37 38 40 40 41 41 42 40 35 35 32 35 38 43 45 44 41 36 31 29 29 29 29
58 60 65 66 68 74 80 83 84 86 88 93 84 74 71 61 51 42 37 36 36 36 38 39 39 39 38 35 33 31 30 32 37 40 41 39 34 28 26 24 22 22 22
59 62 67 68 72 77 81 82 88 88 92 88 75 71 64 53 44 38 35 34 33 35 36 37 36 37 35 33 32 28 27 31 34 37 37 35 29 23 21 16 12 10 12
60 65 68 72 75 78 80 84 89 90 89 77 70 67 55 46 39 35 33 31 32 32 33 34 34 34 31 30 30 26 25 27 31 34 34 32 27 21 16 10 7 5 7
66 71 73 76 77 77 80 82 87 88 81 74 68 59 48 39 35 33 30 30 30 30 31 33 33 32 29 28 28 25 23 25 29 31 32 27 26 20 14 9 5 5 6
67 73 77 77 76 77 82 83 84 84 77 69 62 51 41 35 32 30 30 30 28 28 30 31 30 30 28 26 25 25 22 23 27 28 29 24 23 21 15 9 5 4 5
74 76 77 74 79 80 81 80 78 77 69 62 54 43 37 32 30 29 29 26 25 26 28 28 28 28 27 25 23 25 22 21 23 25 26 25 19 19 17 13 8 4 4
77 79 76 79 81 81 79 79 75 68 62 55 46 39 34 31 29 27 26 24 24 25 26 27 28 28 27 25 23 22 22 19 20 23 23 23 20 16 15 13 11 7 2
82 77 77 80 79 81 84 78 68 61 54 47 41 36 31 29 27 25 23 24 22 23 24 25 27 29 29 27 23 21 21 18 17 18 20 20 20 17 14 12 8 6 4
74 75 79 79 82 84 77 67 59 54 47 40 37 32 29 27 25 22 22 23 22 22 23 24 26 29 30 28 24 22 21 20 16 16 17 18 18 17 16 11 8 5 2
74 76 77 79 76 73 65 58 53 47 40 36 33 29 28 25 22 20 21 21 21 21 22 23 25 27 29 28 26 22 20 20 18 16 15 15 15 15 14 13 8 3 3
75 74 73 70 67 61 56 51 47 40 36 32 30 27 25 22 21 21 21 22 22 22 23 23 24 24 26 28 28 26 22 20 18 16 15 14 13 13 12 10 8 6 2
71 68 68 64 59 54 50 47 42 36 32 30 28 25 24 22 22 23 23 24 24 23 24 24 24 23 23 24 26 27 26 23 20 18 16 14 13 12 12 10 8 5 2
69 65 61 58 54 52 48 45 38 33 29 27 26 25 24 24 24 24 25 25 25 25 24 24 24 23 23 22 23 24 26 26 22 20 17 16 16 16 14 12 11 10 8
63 59 58 56 55 50 46 42 36 32 29 27 26 24 23 24 24 25 26 27 27 27 26 25 24 24 23 23 22 21 23 25 26 24 20 18 17 17 19 18 14 14 14
58 58 53 54 52 47 44 41 35 32 30 30 30 29 28 28 28 28 27 27 27 26 26 25 24 24 23 23 22 22 23 24 25 25 25 21 19 18 19 23 23 19 18
57 54 53 53 51 46 44 41 35 32 31 31 32 32 31 30 30 29 28 28 27 26 25 25 24 24 25 25 24 24 24 23 24 25 26 26 22 20 20 22 25 28 25
56 55 52 50 48 45 43 41 35 33 32 32 32 32 31 30 28 28 28 28 28 27 26 26 25 25 25 26 25 25 25 25 25 25 26 27 27 24 21 21 24 26 31
57 53 50 48 46 43 42 39 34 33 33 34 34 33 31 30 29 29 30 30 30 29 29 28 28 28 27 26 26 25 25 25 25 26 27 27 29 28 25 21 22 25 28
53 50 47 45 43 41 39 36 33 33 34 35 36 35 34 33 32 31 31 31 31 31 32 31 31 31 30 27 27 27 25 25 26 27 28 28 29 29 29 25 22 22 25

GFSGL_500_spd_033.txt.gz
Wind_Speed
50 52 53 54 55 58 60 62 63 63 65 67 68 71 76 80 83 87 89 91 92 94 86 75 65 56 48 45 47 49 51 53 51 45 43 44 44 43 43 41 42 43 44
53 54 55 54 57 59 61 62 62 63 65 66 69 74 79 83 86 88 89 92 94 83 72 62 53 46 43 45 47 49 50 50 48 47 40 41 39 40 41 44 47 50 50
55 55 57 57 59 59 61 62 63 65 67 68 72 77 82 82 82 86 91 96 87 71 61 51 45 42 42 45 48 49 49 47 47 46 39 37 38 40 45 50 52 53 53
56 56 56 57 60 61 61 62 64 68 70 72 76 80 81 83 85 89 90 87 76 62 53 45 42 42 44 47 47 47 46 46 42 41 37 36 40 44 50 52 50 48 48
57 56 56 58 60 61 60 62 68 73 73 76 80 79 82 83 86 86 82 71 67 54 45 41 41 43 45 44 45 46 46 42 38 37 35 38 42 47 49 48 46 43 38
56 55 57 58 59 60 62 66 73 74 77 79 81 81 81 83 81 80 76 64 56 46 41 40 42 43 42 42 41 43 42 37 37 34 35 40 43 46 45 42 40 38 32
54 55 56 57 59 61 64 71 78 81 85 83 79 83 84 86 78 75 69 58 47 41 38 39 40 41 40 41 40 40 38 36 35 32 36 39 40 41 40 37 35 34 29
55 56 56 59 64 67 69 77 80 83 81 76 84 84 85 82 71 71 61 47 40 38 37 37 38 39 39 38 38 37 36 35 32 32 35 38 39 37 36 32 31 27 22
55 56 60 63 70 74 74 77 79 77 72 84 84 84 81 76 67 63 50 40 36 35 35 36 36 38 37 36 36 34 33 33 29 29 32 34 35 34 31 27 24 19 16
58 59 59 67 72 75 79 81 80 74 79 80 81 81 77 74 64 52 42 36 34 34 35 35 34 34 35 35 34 32 29 30 26 26 30 32 32 30 28 23 19 15 14
60 64 72 73 78 80 83 81 78 81 80 76 76 79 79 66 55 43 38 34 33 33 33 32 32 32 33 32 32 30 28 27 24 24 28 29 29 27 26 21 17 14 13
56 64 70 77 81 81 80 75 81 78 78 78 77 69 67 57 46 40 35 33 33 32 30 30 29 30 31 30 30 29 28 26 24 22 25 27 27 25 22 20 16 13 11
65 71 74 80 82 76 74 72 75 77 73 70 69 66 57 49 42 36 34 32 31 29 28 28 26 27 30 30 28 28 27 25 25 21 21 25 25 25 21 18 17 13 10
71 74 79 77 73 71 73 76 75 70 68 66 61 57 50 43 39 35 32 31 30 28 27 27 26 26 28 30 29 27 25 24 23 21 19 22 23 23 23 18 15 14 11
76 75 75 72 72 71 76 72 65 61 63 59 55 49 43 38 36 33 31 29 26 26 26 26 25 26 27 29 30 29 26 23 22 21 19 18 21 21 21 20 16 13 11
74 71 72 73 75 75 69 63 60 57 56 52 49 44 38 35 33 30 30 27 25 25 25 25 25 25 27 28 29 29 28 25 22 20 19 17 17 19 19 19 18 13 10
74 75 75 79 75 68 62 61 59 54 51 48 44 40 35 34 30 29 27 25 25 25 25 25 25 26 26 26 27 28 29 27 25 21 19 18 17 16 17 17 16 15 11
75 78 72 68 66 62 61 58 55 53 50 44 40 35 33 31 29 27 27 26 27 27 28 26 26 26 26 26 25 25 26 27 27 24 20 18 17 16 14 15 14 13 12
73 72 70 67 64 60 56 53 51 50 47 42 38 33 30 28 26 26 27 27 28 27 28 28 27 27 26 25 24 24 24 24 26 26 24 20 18 17 15 14 13 11 10
73 73 70 63 58 55 53 51 50 49 44 41 36 32 31 26 26 25 25 25 27 28 29 28 28 27 27 25 24 23 23 23 23 25 25 24 20 18 17 16 15 12 10
70 65 62 59 56 53 51 50 49 46 43 40 36 33 32 31 30 31 31 30 29 28 27 27 27 27 26 25 24 23 22 22 23 23 24 24 24 21 18 18 18 17 14
66 63 61 59 56 54 53 50 47 45 42 39 36 34 32 32 32 31 31 30 29 28 28 27 27 27 26 25 25 24 24 23 23 24 23 24 25 24 22 19 20 20 20
62 59 58 56 54 54 52 49 45 43 41 39 35 33 33 32 31 32 32 31 29 28 28 27 27 27 26 25 25 24 24 24 24 24 23 23 24 25 25 23 20 21 23
58 57 54 52 50 49 47 44 43 41 39 37 33 32 33 34 34 33 32 32 30 29 29 28 28 29 28 26 26 26 26 25 24 24 23 24 24 25 26 26 24 22 23
60 56 55 53 51 49 46 43 41 39 38 35 32 31 33 35 36 36 35 34 33 32 31 30 30 29 30 30 28 28 28 27 25 25 24 24 25 25 26 27 27 26 23
55 54 53 51 48 47 46 43 41 39 37 35 32 32 33 34 35 36 36 36 35 33 31 31 30 31 32 32 31 31 29 29 28 27 26 26 26 27 27 28 28 27 26

GFSGL_500_spd_039.txt.gz
Wind_Speed
47 47 47 47 49 51 53 56 56 56 50 65 61 58 62 65 66 69 71 74 74 78 80 80 82 81 84 82 73 64 56 51 46 42 42 42 42 43 43 43 41 41 40
50 50 48 49 52 50 55 56 56 52 51 61 60 60 62 68 73 75 77 78 79 79 78 79 75 77 77 70 61 50 48 45 45 42 41 41 41 42 42 40 39 39 38
51 52 52 53 56 55 57 55 54 55 55 59 58 65 67 70 75 78 85 82 84 76 74 77 79 76 68 58 49 44 43 42 43 43 40 40 40 40 39 39 38 35 36
53 51 52 55 55 56 55 55 57 57 58 58 59 66 69 71 76 82 86 88 80 77 80 77 73 68 58 48 43 41 39 40 41 41 40 40 40 39 39 37 34 34 34
51 53 54 54 55 55 56 58 60 58 61 63 67 69 71 72 75 79 83 74 75 80 80 75 67 58 47 40 39 38 38 37 38 39 39 40 39 36 35 33 32 32 37
53 53 53 54 55 57 59 58 59 62 68 72 82 76 75 76 74 69 71 74 77 76 66 63 57 49 41 38 36 37 35 35 35 36 36 37 35 34 32 30 31 35 36
52 55 55 56 58 58 59 61 63 64 69 72 82 86 84 78 69 66 70 71 68 62 58 55 50 42 38 37 36 35 35 35 37 36 35 36 32 32 28 28 32 34 36
55 57 57 56 57 59 60 62 69 73 80 77 79 84 79 70 69 71 71 65 61 56 54 49 43 37 35 34 33 31 33 35 36 36 35 35 31 30 27 29 31 32 32
55 54 55 57 60 62 64 66 69 70 74 81 82 70 69 72 76 72 63 58 55 52 49 45 38 33 34 32 29 30 32 35 36 35 34 32 29 28 25 28 31 32 28
54 56 60 62 64 65 66 70 74 78 82 77 70 70 77 74 70 61 55 54 52 49 45 40 34 31 31 29 28 29 30 32 33 32 32 31 28 26 25 27 29 31 27
57 59 62 64 69 68 70 74 77 80 84 76 75 78 71 62 55 52 53 50 47 43 40 36 31 29 28 26 27 28 28 30 31 30 29 27 26 25 23 26 27 29 25
62 66 68 69 68 70 68 73 77 76 75 73 67 64 59 55 53 52 49 47 44 39 35 32 30 27 25 24 25 27 28 29 30 31 30 28 25 24 21 24 26 28 25
67 69 69 70 71 70 70 72 74 72 67 66 65 63 58 52 49 47 44 43 41 36 33 30 28 26 23 23 24 24 27 29 30 31 30 29 25 23 21 21 24 25 24
65 66 68 71 71 71 72 69 67 65 66 69 69 63 55 51 48 45 43 41 38 33 31 28 26 23 21 22 22 24 26 27 28 28 29 30 26 22 20 18 21 22 22
66 67 69 70 69 67 66 66 66 68 71 74 70 62 55 50 47 43 41 38 35 30 27 27 25 23 22 23 23 24 25 26 26 27 27 28 28 23 19 18 16 19 19
68 70 70 68 66 65 64 64 68 71 73 75 66 59 53 49 45 41 39 37 34 28 25 24 24 24 24 24 25 25 25 25 25 25 25 26 26 26 20 18 15 15 16
69 69 66 63 62 64 67 68 68 69 74 65 58 55 51 47 44 40 38 35 32 28 24 23 22 23 24 25 25 24 25 25 24 24 23 23 23 25 24 19 16 12 14
69 67 61 61 64 67 70 72 75 78 74 57 53 51 49 46 44 41 37 34 31 28 25 24 23 23 23 24 24 24 24 24 23 23 22 21 21 21 24 23 18 14 11
67 66 66 68 69 73 75 79 80 74 65 58 52 47 47 45 41 38 36 34 31 29 28 26 27 26 26 26 26 24 23 23 23 22 21 20 20 21 21 22 21 16 12
68 68 70 73 75 77 83 80 73 67 63 57 53 48 45 43 40 36 35 33 31 30 29 27 26 25 24 24 24 24 23 22 21 21 21 21 21 20 19 19 20 20 16
71 71 75 77 79 84 79 71 63 59 56 53 49 47 44 41 38 35 33 32 31 30 29 28 26 24 23 23 22 22 21 20 20 20 20 20 20 19 17 17 18 18 18
73 76 78 82 84 77 69 63 60 57 52 49 47 44 42 40 37 35 33 31 30 29 28 28 26 24 23 23 22 22 22 21 20 20 20 20 20 18 17 16 16 17 16
77 79 83 82 76 67 60 57 56 53 49 47 45 42 39 37 36 34 32 31 30 29 28 27 26 25 26 25 25 24 23 23 22 22 21 19 19 19 17 16 16 16 16
81 85 80 73 65 61 57 55 52 50 47 43 41 40 37 36 34 33 32 31 29 30 30 29 27 26 27 28 27 26 25 25 24 24 25 22 19 18 18 17 17 17 17
83 77 70 65 63 59 53 49 47 45 44 42 38 36 36 34 33 32 32 31 30 31 31 29 29 29 30 29 27 27 26 26 25 26 27 27 25 21 18 19 19 19 19
75 69 66 63 59 54 51 49 49 46 44 42 38 37 35 33 32 31 31 31 31 32 31 31 29 29 29 29 28 27 27 27 27 27 28 28 29 28 25 23 22 21 21

GFSGL_500_spd_042.txt.gz
Wind_Speed
44 39 38 43 43 48 49 50 52 55 58 59 59 60 61 62 64 67 67 71 74 77 81 82 82 80 78 73 72 71 72 72 69 60 51 45 42 40 40 41 40 41 41
40 46 47 49 50 52 54 53 52 57 59 59 60 62 63 64 65 69 72 74 82 85 87 86 81 74 75 72 70 68 68 67 63 52 42 42 40 40 39 39 41 42 41
43 47 50 53 55 57 56 56 57 58 59 61 62 63 63 64 68 70 73 77 82 86 83 79 73 73 72 71 65 66 64 60 54 46 41 39 38 39 37 39 41 41 40
41 46 50 52 56 56 56 57 60 60 61 61 61 63 67 71 75 78 86 91 88 81 77 70 70 72 68 63 62 63 57 52 46 43 39 38 38 39 39 39 38 39 38
43 47 44 47 57 56 57 59 60 60 61 63 65 67 70 74 78 86 87 85 81 67 68 70 71 68 62 61 60 56 49 45 41 38 36 36 37 37 38 38 36 33 32
48 44 47 54 55 59 60 58 60 62 64 67 70 73 77 83 86 84 84 68 66 71 76 74 64 58 59 57 53 47 43 40 37 35 33 33 33 34 34 33 33 29 29
44 51 54 56 58 58 59 60 62 66 71 75 76 78 81 83 84 81 74 72 77 77 69 57 57 57 55 51 46 41 39 37 35 33 32 34 32 33 32 29 29 26 29
51 53 54 55 56 58 60 64 62 75 80 79 83 82 80 79 80 78 78 77 69 61 57 56 55 53 49 45 41 37 35 34 33 32 34 34 32 31 30 28 26 26 31
49 51 53 56 57 62 59 67 69 71 74 77 79 77 76 75 79 74 65 62 60 57 55 54 51 48 43 40 36 33 31 31 31 31 33 33 31 30 28 25 25 25 30
50 52 54 57 61 67 68 68 70 73 76 80 75 74 77 71 65 63 64 62 56 54 51 49 48 44 39 35 32 29 28 29 29 31 33 32 31 30 27 24 22 24 28
53 55 55 57 63 66 67 69 72 76 77 77 74 66 65 64 63 66 67 58 53 50 48 46 43 39 36 32 29 27 27 27 28 29 30 30 30 29 27 24 23 22 27
55 58 61 60 61 65 69 72 74 75 75 72 66 62 65 66 66 69 67 55 50 47 45 44 40 35 33 30 28 25 26 25 26 27 28 29 29 29 27 24 22 22 25
60 60 60 62 64 69 71 73 75 75 70 64 64 65 67 68 70 70 62 52 47 45 43 41 37 33 30 28 26 24 24 24 24 26 28 29 29 29 28 25 22 20 23
58 60 63 66 69 70 72 74 74 69 67 67 66 68 69 71 72 66 56 49 45 42 40 38 34 32 29 26 25 24 24 25 25 26 27 28 28 28 28 25 21 20 21
61 64 66 69 71 73 73 73 71 67 68 69 71 73 75 75 68 61 52 46 43 40 38 35 32 31 28 26 25 25 26 26 25 25 26 26 26 26 27 27 22 20 18
63 66 68 71 73 74 74 73 69 68 69 73 76 78 79 73 63 55 49 44 41 39 36 33 31 28 27 25 25 25 25 26 25 25 25 24 24 23 24 26 24 18 17
67 70 72 73 73 73 75 75 72 67 73 75 79 80 75 68 58 51 46 42 38 37 33 33 30 27 25 23 23 23 24 25 25 25 24 24 22 21 21 22 24 22 16
71 74 75 77 78 78 77 74 74 76 77 78 79 74 66 59 55 49 44 41 37 35 32 31 29 28 26 26 26 25 25 25 25 25 24 23 21 21 20 21 21 23 19
73 75 77 77 77 76 75 75 77 79 82 80 72 63 57 55 52 45 42 39 36 34 32 30 30 29 29 27 26 24 23 23 23 24 24 22 20 20 20 19 18 20 20
77 79 80 80 77 75 76 78 81 83 77 69 60 55 51 50 46 42 39 37 35 33 31 30 30 29 29 27 25 23 21 21 21 22 22 21 19 18 17 17 16 17 18
80 80 80 76 75 77 79 81 81 73 66 61 57 53 50 47 43 39 37 35 34 32 31 30 30 27 27 26 24 22 20 20 21 21 21 20 18 18 18 16 15 15 16
82 80 76 76 78 79 83 77 71 64 61 59 53 48 45 43 40 37 35 34 32 32 31 30 29 28 27 26 24 22 21 21 21 21 21 20 19 19 18 16 15 14 14
77 76 77 80 83 81 76 71 64 59 56 52 48 44 42 40 38 35 33 33 31 31 30 30 29 30 28 27 25 23 22 24 23 23 23 22 21 20 19 17 16 14 13
75 79 83 81 77 76 69 64 62 58 52 48 46 45 43 40 37 35 32 30 31 31 30 30 30 31 31 29 28 26 25 25 25 24 24 23 23 23 22 20 18 17 15
82 82 79 78 72 67 65 62 57 53 50 50 50 49 46 42 37 33 32 30 30 30 31 30 31 30 29 30 29 27 27 28 26 25 24 25 24 25 25 24 22 20 18
78 78 74 71 69 64 58 54 54 54 53 51 49 48 47 43 40 35 33 33 30 29 30 31 29 32 32 30 30 29 27 27 26 25 25 25 25 25 26 26 26 24 24

GFSGL_500_spd_045.txt.gz
Wind_Speed
39 39 39 39 44 44 49 54 53 53 56 57 58 61 63 65 66 67 68 70 73 76 79 83 86 89 92 87 79 73 72 74 79 74 70 70 69 66 59 54 48 45 44
37 39 41 46 51 49 51 50 52 54 55 62 62 65 65 65 66 68 73 75 78 81 84 87 92 91 87 76 71 73 77 77 70 67 67 65 60 56 50 46 43 43 43
39 41 43 40 45 50 55 57 53 57 64 64 66 65 63 66 70 74 79 83 85 89 91 93 88 81 72 69 79 77 69 66 67 65 58 53 52 50 44 41 40 41 41
38 39 41 43 49 54 56 57 59 62 65 64 62 63 67 72 78 84 86 87 90 96 93 88 81 79 80 80 71 64 64 62 60 57 52 48 47 43 41 40 39 39 40
47 38 40 48 52 55 56 57 63 63 63 63 65 68 74 75 78 85 89 92 95 91 83 83 85 80 68 65 64 63 61 58 54 50 46 44 41 38 39 40 39 36 36
43 46 48 49 53 54 58 58 59 61 63 64 68 71 74 76 80 88 88 89 90 83 80 73 66 64 62 62 61 59 56 52 49 44 42 39 36 36 36 37 35 34 32
47 49 51 53 54 56 57 59 60 61 61 71 75 78 75 76 81 85 87 83 72 69 67 65 66 63 60 59 56 54 51 48 43 41 38 35 33 34 34 34 35 33 32
49 50 52 54 56 56 57 58 54 67 72 73 78 80 78 79 81 82 79 71 64 65 65 68 70 60 56 54 52 50 46 43 39 38 34 32 33 33 35 34 32 30 32
50 51 52 53 55 54 57 59 56 67 72 76 75 76 77 79 79 75 69 66 66 67 69 72 65 56 54 50 49 46 42 40 37 35 32 31 32 33 33 31 29 27 28
52 52 52 51 45 57 62 63 62 64 68 71 74 78 78 77 73 70 67 67 69 70 72 69 59 51 49 47 46 42 39 36 34 32 30 30 31 32 33 32 29 25 27
53 51 50 53 56 58 60 62 64 67 70 75 76 76 77 75 69 67 67 68 71 72 72 63 54 49 46 45 43 39 36 34 31 29 28 28 30 31 32 33 31 26 23
51 52 55 56 57 59 61 64 67 72 74 75 78 78 77 72 69 67 70 71 72 74 67 56 50 46 43 42 40 36 33 31 28 27 26 28 28 28 30 32 32 31 26
54 55 56 57 59 61 64 69 72 74 76 78 80 79 75 70 69 71 72 73 75 71 60 50 46 43 41 41 38 34 32 30 28 28 27 28 28 27 28 30 31 31 27
57 58 59 60 62 66 70 73 75 77 79 81 80 79 75 70 70 73 75 76 73 65 53 46 43 41 39 39 36 32 31 29 29 29 28 28 27 26 27 27 28 29 28
59 60 62 64 67 70 73 76 78 79 81 82 81 78 74 73 72 76 78 73 63 55 49 42 40 39 39 38 34 30 30 28 28 28 28 27 27 26 26 25 26 27 27
61 62 64 67 70 73 75 77 79 80 80 79 77 78 76 77 78 77 70 64 55 49 45 40 38 37 37 35 32 29 27 26 26 26 26 26 26 25 25 24 24 25 25
62 64 67 71 74 77 80 83 86 85 83 77 74 76 79 79 76 66 60 55 50 47 43 37 37 35 36 33 31 29 27 26 26 26 26 26 25 25 24 23 23 24 24
65 68 72 75 78 82 85 87 87 87 84 75 73 76 75 70 63 57 54 51 48 42 39 35 35 34 34 33 30 29 28 28 28 28 26 25 24 24 23 22 22 22 20
69 72 75 78 82 85 87 86 85 82 82 82 78 70 67 62 55 52 51 49 45 40 37 35 33 33 33 33 30 29 29 28 28 26 24 22 22 21 21 20 20 18 18
71 75 79 82 84 86 85 83 82 83 80 76 72 67 57 54 51 46 44 43 41 37 35 34 32 32 32 32 29 29 29 27 26 24 21 19 19 19 19 19 18 18 16
75 78 81 84 85 83 80 83 81 78 74 68 63 60 56 52 48 43 39 37 35 35 33 33 31 30 30 30 29 28 28 25 24 23 20 18 18 18 18 18 18 17 16
78 81 83 82 80 78 81 78 76 72 71 66 59 53 50 48 45 41 38 36 32 32 31 30 30 29 29 29 28 27 26 25 23 21 20 19 19 18 18 17 18 17 16
79 79 76 76 75 79 76 74 73 71 63 55 53 51 48 46 44 43 40 37 33 32 31 28 29 28 28 28 27 28 27 27 26 22 21 21 20 20 20 19 19 18 17
75 74 73 73 79 75 73 71 71 61 55 57 56 52 49 47 46 45 43 39 34 32 31 29 29 29 29 28 29 29 29 29 28 26 24 23 23 23 22 21 21 21 20
71 71 73 78 74 72 70 69 63 56 58 57 54 50 48 44 42 42 41 39 36 32 31 28 29 29 30 30 29 30 31 31 30 29 27 25 26 24 22 22 21 22 23
68 72 77 75 72 73 69 64 57 56 56 54 53 50 47 42 38 37 38 38 36 35 32 29 28 29 31 32 31 31 32 32 31 29 28 27 26 24 22 22 22 22 23

GFSGL_500_spd_048.txt.gz
Wind_Speed
32 34 34 34 34 32 36 40 44 52 55 55 66 62 66 67 70 73 69 70 71 76 81 85 85 87 93 93 94 89 83 82 80 76 71 70 69 67 65 62 59 55 53
35 36 37 39 37 37 38 47 49 57 60 65 54 68 69 71 70 70 71 71 75 81 84 86 89 90 91 90 86 80 76 72 71 68 67 64 60 58 56 53 51 51 49
37 34 37 37 39 46 52 54 56 60 65 64 63 60 70 68 68 69 74 78 83 87 85 85 88 88 86 81 76 72 70 69 68 66 62 56 53 52 49 48 48 47 44
36 38 39 47 43 48 47 51 56 59 62 62 65 67 67 68 68 70 78 82 84 89 87 86 85 84 79 73 68 68 71 67 64 60 55 52 49 45 44 44 42 43 41
38 38 43 42 44 47 51 53 57 59 60 63 63 63 65 63 73 78 83 85 88 88 87 85 82 78 71 70 68 71 69 62 59 55 51 48 44 41 41 41 41 39 39
42 43 45 46 47 51 54 56 58 59 60 60 60 65 66 70 78 79 84 89 87 86 84 83 77 70 67 69 70 71 63 58 54 50 48 44 39 38 38 39 38 37 35
47 48 49 49 51 53 56 58 58 59 57 60 63 67 71 74 75 78 82 83 83 83 83 76 70 68 69 69 71 66 58 54 50 47 44 40 36 35 35 35 35 36 38
48 49 49 51 53 56 58 59 57 53 59 62 68 74 73 74 76 78 79 82 83 81 76 71 68 69 70 71 69 60 54 50 47 45 41 37 34 33 33 32 32 33 36
49 50 51 54 56 58 57 55 57 55 61 66 69 71 72 74 77 80 82 82 81 78 73 69 69 69 72 72 65 55 50 46 44 42 38 34 32 32 32 30 30 31 31
50 52 53 55 57 55 54 56 58 60 62 65 68 71 74 76 80 82 82 82 81 78 71 69 71 72 73 68 57 49 46 44 41 39 35 33 29 30 30 30 30 30 30
52 53 54 55 55 55 56 59 61 62 63 66 69 73 77 79 81 81 82 83 80 75 70 70 72 74 71 61 50 45 44 41 39 36 33 31 28 29 29 30 31 31 30
53 54 55 56 57 58 60 61 63 65 67 70 73 76 78 80 83 83 84 82 76 72 70 71 73 71 63 52 45 43 42 38 37 34 31 30 28 29 29 30 31 31 31
55 55 57 57 58 60 62 63 65 68 72 75 78 81 82 84 84 84 83 77 75 74 72 73 70 62 53 46 41 40 41 36 34 32 31 29 28 29 30 29 30 29 31
56 58 58 58 62 64 65 66 69 72 76 80 83 85 88 89 88 83 77 77 77 77 74 68 59 53 45 43 40 38 38 34 31 31 30 28 28 28 29 27 27 26 27
59 58 60 63 65 65 67 69 72 76 80 83 86 89 93 93 86 81 79 78 77 72 65 58 50 47 42 40 40 38 36 32 29 30 28 27 26 27 27 26 25 25 25
58 61 65 67 67 67 68 70 74 77 80 85 89 92 90 88 87 84 78 72 66 62 59 52 48 43 40 39 38 37 35 31 29 27 24 24 25 26 26 26 24 24 24
63 67 69 68 67 68 71 74 76 78 84 87 88 87 87 85 81 77 72 65 58 53 49 48 47 39 39 38 37 35 33 30 29 24 24 25 26 27 26 25 23 23 23
69 71 69 67 69 72 75 79 83 87 88 87 82 82 79 76 72 69 64 58 50 47 45 42 40 37 37 37 35 34 31 29 28 24 24 24 25 24 23 22 21 20 20
70 68 68 69 73 76 79 82 86 88 87 83 81 73 71 70 65 57 51 48 46 42 40 37 36 35 34 33 33 32 29 27 26 25 24 24 23 22 20 18 17 17 17
68 68 70 73 76 79 82 85 85 83 79 81 76 71 66 59 50 49 49 44 40 37 35 34 33 32 31 30 30 30 27 25 26 25 26 23 22 20 18 17 16 15 16
68 70 73 76 79 81 83 83 79 77 80 76 72 68 64 54 53 53 50 48 42 37 33 32 31 29 28 26 27 27 26 25 26 26 24 22 20 19 17 17 16 14 14
71 73 75 78 81 82 80 76 77 80 76 73 69 65 58 54 54 51 48 45 43 40 35 33 31 28 26 24 25 25 25 25 27 27 25 22 19 18 17 17 16 15 14
73 75 78 79 79 75 73 77 79 76 76 72 65 59 54 53 53 49 46 43 40 40 38 34 32 29 25 23 23 24 24 24 27 27 25 23 21 19 18 18 17 17 17
76 77 77 75 71 71 77 76 75 77 73 65 59 53 52 52 50 48 46 42 37 36 36 33 31 29 27 25 25 25 25 25 27 27 27 25 23 21 19 19 19 18 19
76 75 71 67 69 75 73 73 74 72 65 58 53 50 50 49 49 49 45 41 34 32 35 34 32 30 27 25 26 26 27 26 27 27 28 27 25 23 21 20 20 20 19
71 67 65 69 73 70 69 73 69 67 60 53 49 48 47 47 49 49 44 40 33 28 32 36 32 31 27 25 25 27 28 29 29 29 29 28 26 24 22 21 21 20 19

GFSGL_500_spd_051.txt.gz
Wind_Speed
29 30 27 30 32 33 35 35 34 36 43 50 54 58 63 66 63 69 72 72 75 73 76 77 79 83 86 88 91 89 88 89 85 78 75 72 72 68 62 57 53 50 49
32 31 34 33 34 35 36 38 37 44 51 50 57 58 62 66 68 67 69 73 72 75 74 76 82 83 87 88 89 87 87 83 77 73 71 72 67 61 55 51 48 47 44
35 35 35 35 33 38 39 41 47 50 52 55 59 62 64 66 70 70 70 68 71 72 77 81 82 83 85 86 87 87 83 76 70 71 69 70 61 55 50 48 44 42 42
34 35 35 35 38 39 45 42 49 51 50 53 58 60 62 67 67 66 68 72 74 77 82 81 82 83 84 86 86 83 76 69 69 69 71 65 56 50 47 44 40 39 39
35 35 36 39 40 41 43 46 48 49 52 53 57 61 63 64 63 68 71 72 74 82 82 82 82 84 86 86 84 77 69 68 69 70 69 59 51 46 44 39 37 36 37
35 37 39 40 42 45 47 48 48 51 54 57 59 60 61 62 70 73 71 78 81 80 82 82 85 87 87 85 79 71 68 68 69 70 63 52 47 44 40 36 34 34 36
38 40 42 44 46 48 49 50 53 54 57 58 58 59 62 64 69 73 78 78 79 81 83 85 87 87 85 80 73 68 67 68 70 67 56 48 42 41 36 33 33 33 35
40 42 45 47 48 50 51 54 54 57 58 59 61 62 65 69 71 73 76 77 80 82 85 87 88 85 81 75 70 68 69 69 67 61 49 44 40 37 34 32 30 31 33
42 45 47 49 50 52 54 55 58 59 61 61 61 65 67 70 72 74 77 80 82 84 86 89 86 81 75 72 69 70 70 67 62 52 44 40 38 35 32 29 29 29 30
45 47 49 51 53 55 56 57 58 60 60 61 64 68 70 71 73 76 80 83 85 87 89 87 82 76 72 71 71 72 68 62 55 45 41 37 35 32 30 28 27 28 30
47 49 52 53 55 56 57 58 59 59 61 64 67 70 72 74 76 79 83 87 90 92 92 86 78 75 75 74 73 68 62 55 46 42 38 35 33 30 29 27 28 29 30
49 51 52 54 55 56 58 58 58 61 65 67 69 70 72 75 79 82 85 89 93 94 90 82 78 78 75 70 65 60 54 49 42 40 35 34 32 28 27 27 28 29 30
52 54 54 55 56 57 56 58 63 66 68 70 71 71 74 79 82 86 89 93 93 91 86 82 77 71 67 60 56 53 50 43 40 37 34 33 30 26 26 25 26 27 30
55 55 56 57 57 55 58 63 67 69 71 73 74 76 78 81 86 90 94 94 88 82 79 75 69 63 58 54 51 49 44 41 39 34 32 32 28 25 25 24 25 26 27
57 58 59 57 54 58 63 68 71 73 74 75 77 80 83 86 90 94 93 87 82 76 72 69 64 55 48 47 46 43 40 40 37 32 29 29 25 24 24 23 24 25 26
59 60 59 55 58 63 69 72 73 73 74 77 80 84 88 93 93 89 85 80 74 72 67 55 49 46 44 43 43 40 37 38 34 31 27 26 24 23 22 23 24 25 25
61 59 56 59 63 68 73 74 74 74 76 79 83 88 92 92 88 86 82 73 69 64 52 50 45 41 40 40 41 37 36 37 33 29 25 24 22 21 22 23 23 23 22
59 57 60 64 70 75 78 78 77 76 78 82 87 90 88 85 85 82 77 72 64 57 53 52 46 41 37 36 35 34 33 32 30 27 25 23 21 21 21 22 21 21 20
60 63 66 70 76 80 80 77 77 79 83 86 88 84 82 81 79 79 74 65 55 50 49 47 42 39 37 33 31 31 29 27 26 24 24 22 21 20 20 20 19 18 17
66 69 70 75 79 77 77 77 79 83 85 85 81 81 79 76 73 70 60 53 49 48 46 45 41 37 34 32 30 29 26 24 24 23 23 23 20 19 19 19 18 16 16
70 71 75 78 77 77 77 80 82 83 81 77 79 77 76 75 69 63 50 45 46 45 44 43 39 35 34 31 28 26 23 23 23 23 24 24 20 20 19 18 17 15 15
73 76 79 77 76 77 80 82 81 76 74 76 73 72 74 69 66 56 47 46 45 44 43 40 36 32 34 32 28 25 23 22 22 23 24 25 21 21 19 18 16 15 14
78 78 76 75 76 79 81 77 72 72 74 71 70 71 69 65 61 52 47 46 45 46 44 39 33 32 35 33 28 25 22 22 22 25 27 26 24 23 22 19 17 15 15
76 73 74 76 78 78 72 68 70 71 68 69 71 71 66 62 57 49 47 46 45 47 43 37 32 29 35 35 33 28 25 23 23 23 27 26 25 24 22 21 19 16 15
72 74 77 77 75 68 66 69 69 65 67 70 72 70 62 59 53 48 46 45 45 45 41 36 30 27 31 32 30 27 25 27 26 27 25 27 26 25 24 23 21 19 17
75 77 76 70 65 65 68 68 64 66 69 72 71 65 58 55 49 46 45 44 45 43 38 34 29 26 31 31 30 28 24 28 29 27 26 28 29 27 25 24 23 21 19

GFSGL_500_spd_054.txt.gz
Wind_Speed
25 27 29 33 34 35 39 36 35 34 35 35 36 38 48 58 62 61 67 69 71 66 63 76 71 73 77 78 81 83 83 85 86 87 90 90 88 75 71 70 70 64 55
30 32 35 36 38 38 39 37 37 38 38 43 46 51 57 61 62 60 63 67 66 65 73 73 75 79 82 81 86 86 86 87 89 90 87 83 76 71 68 69 67 59 51
34 35 36 38 39 41 40 38 40 42 46 48 46 53 57 56 59 62 65 65 61 68 74 75 80 81 81 89 87 86 87 90 91 89 83 75 69 69 68 69 62 53 48
36 37 38 39 40 40 41 41 42 44 46 48 49 52 54 57 60 63 65 63 68 70 73 76 78 86 86 85 86 87 89 90 88 83 77 69 68 68 69 66 55 49 45
37 37 38 38 38 38 39 41 43 44 46 49 51 54 57 59 61 63 64 66 68 71 75 79 80 81 82 84 86 88 91 89 84 76 70 67 67 68 68 61 50 45 42
35 36 35 36 36 38 40 43 44 46 50 53 54 56 58 61 62 64 65 66 69 73 76 78 80 82 83 85 88 89 88 83 77 71 68 68 68 68 63 53 46 42 38
33 34 35 37 38 41 43 46 48 50 53 56 57 58 60 62 64 64 66 68 71 74 77 79 80 83 86 88 90 90 86 78 71 68 70 68 68 64 57 46 42 39 36
33 35 37 39 42 43 45 48 51 54 56 57 58 59 61 63 63 66 69 71 74 76 78 80 83 85 89 91 92 90 83 74 72 70 70 67 64 57 49 43 39 36 33
35 37 39 41 43 46 49 52 54 56 57 58 59 61 60 62 65 69 72 74 76 77 79 82 85 89 91 92 91 85 78 75 74 70 65 60 55 49 43 39 37 34 31
36 39 42 44 47 51 53 55 56 57 58 59 59 57 59 62 67 71 74 77 77 79 81 84 89 92 93 89 84 80 75 67 67 63 56 53 48 42 37 36 34 31 30
40 42 45 48 52 54 56 57 57 58 59 57 56 59 63 67 70 74 77 79 80 82 86 88 92 95 90 81 79 73 67 62 59 55 51 47 42 36 33 32 32 30 29
44 47 49 52 55 57 58 58 59 59 56 56 58 63 67 71 75 77 77 79 83 87 90 93 93 86 82 75 71 68 62 55 50 48 45 42 37 34 32 31 30 28 28
49 51 54 56 58 58 58 59 61 59 57 59 63 68 73 78 80 81 80 83 86 91 94 93 88 82 74 69 65 58 51 49 43 41 40 38 37 34 30 30 29 27 26
53 55 57 58 59 59 60 63 62 59 61 64 68 74 78 82 84 84 86 88 90 93 92 88 82 76 69 63 54 49 43 43 43 39 37 36 36 32 29 29 26 26 25
57 59 60 61 61 62 64 63 60 61 65 69 73 78 83 85 86 88 90 92 94 92 89 81 75 72 62 55 51 48 42 40 39 37 37 36 34 30 28 26 24 24 23
60 61 62 62 62 65 63 61 63 67 71 75 80 84 86 88 88 89 91 92 90 87 79 76 72 63 51 48 48 45 40 39 38 35 33 33 28 27 26 24 22 22 23
62 63 62 63 64 63 62 64 68 71 75 80 85 86 85 86 87 89 89 88 85 78 75 71 62 49 44 44 44 41 40 37 35 33 33 31 27 25 24 22 22 22 22
63 63 64 64 62 63 65 68 72 76 80 84 85 83 84 87 88 88 86 82 77 76 71 65 53 45 42 42 42 40 36 35 33 32 30 26 24 25 24 22 22 21 21
63 65 65 64 64 66 69 73 77 80 83 83 83 83 84 84 83 82 79 76 74 70 65 56 49 44 42 41 40 39 35 32 30 28 26 23 23 23 23 22 21 20 20
66 65 65 66 68 71 74 78 81 82 82 82 82 83 81 78 77 73 72 72 71 66 60 51 46 44 43 41 38 34 32 31 27 24 23 22 23 24 23 22 20 19 19
68 68 68 70 72 75 78 80 82 81 81 82 82 79 76 76 71 69 70 71 68 60 55 47 45 43 42 39 35 30 30 28 26 23 22 22 24 26 24 22 19 19 18
70 70 72 74 76 78 80 82 80 80 81 80 76 73 74 71 67 68 70 71 65 57 51 45 44 42 41 37 32 30 29 29 28 23 22 23 24 26 24 22 20 19 18
72 73 75 76 78 81 81 79 79 80 78 73 71 72 71 68 67 69 71 69 61 55 48 44 42 41 39 34 31 31 31 30 26 24 23 24 25 27 25 24 22 19 18
75 76 77 80 81 80 80 80 80 75 69 69 72 72 69 66 67 70 70 65 57 51 46 43 42 40 36 32 29 34 34 32 26 25 23 27 25 25 26 24 22 21 19
78 80 81 82 80 80 80 78 72 68 69 72 72 71 68 66 67 69 67 60 53 47 44 42 41 38 35 31 25 35 33 33 29 29 29 26 27 26 25 25 23 22 21
81 83 84 82 81 80 76 70 69 71 72 72 71 69 66 67 68 66 61 54 49 44 42 41 39 37 33 28 23 33 37 35 28 27 31 24 25 26 27 26 25 24 23

GFSGL_500_spd_057.txt.gz
Wind_Speed
23 24 25 28 29 33 36 37 39 40 42 41 38 41 38 45 49 51 57 63 66 70 71 71 71 71 68 74 78 78 81 83 89 86 90 89 91 93 92 92 84 75 70
26 27 28 32 35 37 38 40 41 42 41 42 42 45 48 48 51 55 58 63 68 69 68 69 69 68 68 74 79 80 87 85 87 88 87 89 91 91 90 88 75 66 62
30 31 34 37 39 41 41 43 44 43 44 44 44 47 50 52 54 54 56 61 63 66 69 70 70 70 72 76 81 82 84 86 88 89 89 90 91 88 84 75 69 64 62
35 37 40 41 41 41 43 44 45 44 45 45 46 48 51 52 55 57 60 63 64 65 67 68 69 71 75 78 80 82 83 85 88 91 92 91 91 82 72 71 68 66 65
38 40 41 42 42 43 43 43 44 43 44 45 47 51 53 55 57 59 62 64 64 66 66 66 70 72 74 76 79 80 83 86 88 90 89 86 80 76 72 70 70 65 61
37 37 38 39 40 40 40 41 42 43 45 47 51 54 57 59 61 61 64 63 65 63 63 65 68 71 74 76 78 80 83 87 90 89 84 78 75 74 73 69 66 61 54
33 34 36 37 37 38 39 41 43 46 49 51 54 56 59 60 62 63 64 62 59 60 63 67 71 74 76 79 82 85 88 90 91 88 81 75 72 67 67 63 59 54 49
35 36 35 36 38 39 41 44 46 49 52 55 58 60 61 62 63 63 60 59 60 64 68 72 76 78 80 83 87 88 90 91 86 80 76 71 66 60 59 57 52 47 42
35 35 36 37 39 41 44 47 50 52 56 59 60 61 62 64 64 61 60 62 65 69 73 77 81 83 84 85 89 91 90 87 78 74 71 67 65 56 52 49 44 42 36
34 35 37 39 42 44 47 50 53 56 59 61 62 62 64 66 64 62 65 68 71 73 77 82 84 86 88 89 91 91 88 81 73 67 65 62 57 50 45 40 39 36 35
35 38 40 43 46 49 51 54 57 60 61 62 63 63 65 64 64 65 68 73 76 79 83 87 88 89 91 91 90 87 80 74 68 61 53 50 46 44 37 35 34 33 33
39 42 44 47 50 53 56 59 61 62 63 63 63 65 64 63 65 68 73 77 80 84 88 90 91 91 91 90 85 78 74 69 59 50 44 41 37 38 38 35 33 30 32
43 45 48 51 53 57 60 61 62 63 63 63 66 65 64 65 68 71 75 79 84 88 91 91 91 91 90 86 79 72 68 59 48 44 41 36 36 36 36 32 35 33 30
46 49 51 55 59 61 61 62 64 63 63 65 65 65 66 68 71 75 79 83 87 90 91 91 91 91 87 81 72 67 61 47 42 40 36 33 43 38 36 32 34 32 30
50 53 57 59 60 62 63 65 63 65 67 66 67 68 70 73 77 81 84 88 90 91 92 92 91 87 81 74 67 61 52 44 40 38 34 32 35 35 33 32 32 30 27
54 57 59 61 62 63 65 64 65 66 67 69 71 73 76 78 82 85 88 89 90 90 88 87 84 79 74 70 62 53 46 43 40 37 35 33 33 32 32 30 28 27 25
56 57 59 61 63 64 64 67 69 69 70 72 74 77 80 82 85 87 88 89 87 84 84 82 78 73 71 66 56 47 43 42 40 35 33 33 33 33 32 30 27 25 22
52 55 59 62 63 65 68 72 72 73 75 76 77 80 82 84 87 87 87 86 80 80 80 76 73 71 70 62 52 44 41 39 39 35 31 31 31 30 29 25 25 23 22
56 61 62 62 62 67 72 74 75 77 78 79 81 82 84 87 87 87 83 79 78 78 75 70 70 70 69 59 48 43 40 38 36 32 31 29 28 26 24 23 23 24 21
60 66 65 66 68 70 72 75 78 79 80 81 82 85 88 88 86 83 77 75 77 75 70 67 68 70 65 54 45 42 39 37 33 30 28 27 25 23 23 24 24 24 21
69 68 68 70 70 71 74 77 79 80 81 84 86 88 88 86 82 75 74 76 74 71 66 65 69 68 58 49 43 40 38 35 31 29 26 26 23 21 23 25 25 23 21
70 70 71 72 73 73 75 77 79 82 85 87 88 88 85 79 74 75 76 74 72 69 64 65 68 62 52 46 41 39 36 32 29 25 24 25 22 21 23 26 26 23 21
71 73 75 74 73 73 76 79 83 86 88 88 86 84 78 75 76 75 74 72 70 65 65 66 64 55 48 43 39 36 33 30 25 26 29 29 22 21 24 26 27 24 22
77 78 78 76 75 77 80 84 86 89 87 85 82 79 78 78 76 74 72 70 66 64 64 64 59 49 44 40 38 34 31 29 28 34 34 30 24 25 25 26 25 24 24
79 79 78 78 79 83 85 88 89 86 84 82 81 80 79 78 76 73 71 67 64 64 63 59 51 44 40 38 36 34 29 26 32 36 33 27 27 27 24 25 26 25 23
79 80 81 83 85 87 89 88 86 84 83 83 82 81 80 77 74 70 67 65 63 62 58 51 44 39 37 36 35 31 27 24 32 33 30 27 30 27 26 24 24 25 24

GFSGL_500_spd_060.txt.gz
Wind_Speed
19 23 23 25 27 26 27 31 33 34 35 35 37 39 39 41 42 42 42 52 54 55 56 60 64 65 66 67 70 72 71 71 72 70 73 76 80 84 86 88 90 90 89
26 26 28 26 30 29 32 34 38 39 39 41 42 42 42 43 43 43 48 51 54 57 59 60 63 66 67 67 68 66 67 68 72 71 74 77 80 84 88 90 92 92 87
28 30 30 32 32 35 38 39 40 41 42 43 43 44 46 45 46 48 50 53 57 60 62 64 65 67 68 65 63 65 68 71 75 79 80 83 85 88 90 92 90 86 82
32 33 36 36 39 41 42 42 43 43 44 44 45 45 46 47 48 51 54 57 60 62 64 66 68 68 63 63 65 69 72 76 79 83 85 87 88 87 89 85 81 78 74
36 36 38 38 39 40 41 42 43 43 43 45 45 45 46 49 52 55 58 60 62 63 65 67 67 64 64 66 69 72 76 80 82 84 85 87 88 86 82 79 77 71 66
34 35 37 35 37 39 39 41 42 42 43 43 44 46 49 52 56 59 62 63 65 65 66 67 65 65 68 71 74 77 81 84 86 88 89 89 87 83 78 75 71 66 63
34 34 36 38 37 37 38 38 39 40 42 44 47 49 53 57 59 62 63 64 65 66 67 67 66 69 73 75 78 80 83 86 87 88 90 89 85 78 74 69 65 64 58
36 38 38 36 36 37 37 38 40 42 44 47 50 53 56 59 62 63 64 65 65 66 65 66 69 72 76 80 81 84 86 88 88 91 92 86 79 73 69 65 61 57 47
38 38 38 38 39 38 39 41 43 45 48 50 54 57 61 62 62 63 64 65 66 66 67 69 73 75 77 82 86 89 91 91 91 89 85 78 73 69 62 57 52 46 40
38 38 39 40 39 40 41 43 46 48 51 55 59 61 62 62 63 63 64 65 65 66 68 71 75 78 82 86 90 93 94 92 90 85 76 69 67 61 52 47 38 42 38
38 38 39 39 41 42 44 46 48 51 55 59 62 62 63 65 63 63 64 65 67 69 72 75 78 81 85 90 93 95 94 92 86 80 70 62 57 48 40 40 37 36 35
38 38 39 41 42 44 47 49 52 55 59 61 61 63 65 64 64 65 67 69 71 73 76 79 82 86 90 92 94 94 92 88 82 72 63 54 46 39 36 36 34 33 38
37 40 42 44 46 48 50 53 55 58 60 61 61 63 63 65 66 67 70 73 75 77 80 83 86 89 92 93 92 89 86 81 72 66 57 46 40 36 33 32 35 34 34
41 44 46 48 50 52 54 56 58 59 60 59 61 63 64 66 67 70 74 77 79 81 84 86 89 93 93 93 90 85 80 72 68 64 52 42 38 34 31 30 37 36 36
46 47 49 52 55 56 57 58 58 58 60 63 64 65 68 69 71 74 75 79 82 84 86 90 93 95 93 89 83 78 72 66 66 58 48 40 35 29 30 31 34 37 32
50 52 56 59 61 62 62 58 57 59 62 65 68 69 71 74 76 79 80 79 82 86 90 93 95 93 89 83 76 69 65 64 63 50 44 38 34 34 30 30 30 29 30
61 61 62 63 65 68 65 62 64 64 69 70 72 75 77 79 81 81 81 81 85 89 92 94 92 86 82 76 70 65 61 64 58 46 42 38 34 31 33 34 32 31 28
57 59 63 63 64 66 64 66 68 71 73 71 75 78 79 81 82 80 82 85 88 91 92 88 84 81 76 71 66 61 61 61 51 43 39 38 35 33 31 31 30 26 25
57 61 64 62 71 69 67 66 72 73 73 74 78 80 81 80 81 83 86 89 90 89 85 82 81 76 72 68 63 60 62 57 45 39 36 36 35 33 30 27 25 22 20
63 59 59 71 76 72 66 71 75 77 76 78 80 80 80 81 84 88 90 91 86 83 82 80 76 72 69 65 60 59 60 50 41 37 34 32 30 28 28 25 22 21 21
65 63 71 73 71 74 73 75 81 80 79 80 80 79 81 85 88 90 90 86 82 82 80 78 73 69 66 62 60 60 54 44 38 34 32 29 27 25 22 21 21 21 22
77 77 72 69 73 73 76 82 84 82 80 79 81 84 86 89 90 87 85 82 82 81 79 76 72 67 64 61 59 56 47 40 36 32 29 26 25 25 23 20 19 21 23
68 68 72 75 72 76 82 82 82 81 81 83 86 88 90 90 86 83 82 82 81 79 76 73 71 67 62 59 55 49 41 36 33 30 28 25 25 24 21 20 21 22 23
68 72 71 72 77 80 81 81 81 82 85 88 90 91 88 86 84 84 82 81 79 77 76 73 68 62 56 53 48 42 37 33 31 29 26 25 27 24 24 21 21 22 23
69 72 76 77 79 81 81 83 86 88 90 91 90 89 87 86 85 83 81 79 77 75 73 69 62 54 50 46 42 37 33 31 30 27 25 27 31 31 29 24 24 23 22
74 77 78 80 82 84 87 89 91 92 91 91 90 89 87 84 82 80 78 76 74 71 67 61 53 47 43 39 36 33 31 30 29 26 23 28 35 35 29 27 24 24 23

GFSGL_500_spd_063.txt.gz
Wind_Speed
24 21 20 22 24 27 27 25 21 20 27 25 29 31 32 33 34 35 37 39 40 43 44 47 52 56 59 62 64 66 67 69 69 65 66 68 71 75 78 81 84 88 89
24 26 28 34 25 28 32 16 24 30 31 35 36 34 36 36 38 38 40 41 43 45 49 53 57 60 63 64 65 67 69 69 69 69 71 74 78 80 82 86 89 91 92
26 17 25 26 29 26 31 32 35 34 34 35 36 36 38 38 39 42 42 44 47 51 54 58 61 63 65 66 68 68 69 70 72 75 76 79 82 85 88 90 89 89 88
20 23 27 29 30 30 34 37 37 35 34 35 37 38 39 40 42 43 45 48 51 55 58 62 63 65 65 65 66 67 68 71 74 78 80 81 85 86 90 91 91 89 86
26 28 30 30 33 34 35 36 33 35 36 37 39 40 41 42 43 44 47 52 56 60 63 63 64 65 65 65 65 66 69 72 76 79 82 86 88 90 92 91 90 86 82
33 32 31 32 32 34 34 35 36 37 38 39 39 40 41 42 44 48 53 57 60 62 62 63 64 64 63 63 66 69 73 76 78 82 84 89 91 95 93 90 86 82 77
34 35 34 33 34 34 36 38 39 39 39 38 39 41 42 44 48 52 56 59 61 62 63 62 62 62 62 64 67 71 74 79 81 85 89 92 95 94 92 86 80 75 72
34 35 35 35 36 37 38 39 38 38 38 39 41 43 45 48 52 56 59 61 62 63 62 63 62 63 66 67 69 72 75 78 83 88 93 95 96 92 88 82 74 68 65
35 36 37 38 40 39 39 39 40 40 41 42 44 46 49 53 56 59 60 61 61 61 63 64 65 68 71 73 75 77 79 80 85 90 95 97 95 90 83 74 64 60 56
37 38 39 40 40 41 41 42 43 42 44 46 48 51 54 56 59 59 59 60 61 63 66 67 68 70 74 78 81 82 83 86 90 94 97 97 91 83 71 65 58 51 44
38 38 40 40 41 41 43 44 44 45 48 50 52 54 56 59 60 60 60 61 63 66 68 69 72 76 79 81 84 87 90 92 94 98 98 92 82 71 62 58 50 43 38
36 38 38 40 41 43 44 44 46 49 52 54 56 58 60 61 60 60 62 65 67 69 71 72 75 79 82 84 86 90 93 96 97 95 90 81 72 62 58 51 42 39 36
38 39 40 41 42 44 46 48 50 53 56 58 60 62 64 62 59 60 64 68 71 73 74 75 79 81 85 87 88 92 95 96 95 89 81 71 64 59 56 45 37 35 33
40 41 41 42 46 49 51 53 55 55 58 61 65 67 69 66 66 68 71 74 74 74 77 80 82 84 85 88 91 94 95 92 88 80 72 65 59 58 53 40 34 30 31
43 43 44 47 49 52 54 54 61 62 62 66 66 69 67 68 71 74 75 74 76 78 82 83 84 85 86 90 94 95 89 85 78 72 65 60 56 55 46 38 29 33 34
46 47 48 53 54 55 58 64 68 68 65 65 66 73 71 72 72 73 76 80 82 83 84 84 85 87 90 93 94 89 84 77 70 65 60 57 55 49 41 38 34 31 32
51 53 57 59 62 62 65 64 61 64 65 64 69 76 78 76 78 80 80 82 83 84 83 84 86 90 94 93 88 84 77 71 64 59 56 55 55 45 36 34 32 33 32
55 59 60 62 66 62 61 61 64 65 64 73 78 80 78 79 82 81 85 83 83 84 85 87 90 94 93 88 84 78 73 67 62 57 54 54 49 39 36 32 31 31 31
58 61 63 64 63 64 65 65 67 72 76 81 83 80 81 82 85 85 84 83 84 85 89 92 93 91 87 84 79 74 70 65 61 56 52 49 41 35 34 34 34 32 28
61 61 62 64 65 66 69 74 78 81 83 81 79 79 81 82 84 85 85 86 87 91 93 93 89 85 83 79 75 71 68 64 59 53 48 41 35 33 32 32 35 33 25
65 65 67 70 74 77 79 83 82 80 79 77 76 79 82 83 86 86 87 89 91 92 91 87 84 82 79 75 71 68 67 61 54 49 42 36 32 30 29 27 25 26 24
69 73 75 77 78 79 79 78 76 75 76 78 80 82 84 85 85 87 89 91 91 90 87 84 82 78 75 71 69 67 63 56 49 43 36 31 29 27 26 26 29 24 22
77 74 73 73 74 74 73 73 74 76 78 81 84 87 86 87 90 91 92 91 89 87 84 82 78 74 71 70 69 64 56 49 43 37 31 28 26 25 25 26 26 25 23
70 67 65 65 67 68 71 73 76 79 82 84 86 88 90 91 92 91 90 88 86 83 80 77 74 72 71 68 63 57 49 42 36 31 28 26 26 24 24 27 26 22 22
59 60 63 65 69 73 76 78 82 83 85 87 90 91 92 92 91 90 88 85 81 78 76 74 74 70 66 61 55 47 41 35 30 27 26 25 25 23 23 29 26 21 23
63 66 68 71 74 77 79 81 85 88 90 92 94 95 94 92 90 86 83 79 78 76 76 74 69 64 59 52 45 39 34 30 27 26 24 23 22 24 27 29 27 24 26

GFSGL_500_spd_066.txt.gz
Wind_Speed
24 24 26 25 25 27 28 26 26 27 26 17 18 18 20 21 25 27 29 30 31 32 34 36 38 41 46 50 54 56 56 58 59 58 58 59 62 65 68 72 75 78 81
28 31 30 33 32 31 35 36 36 43 19 20 22 24 25 25 25 28 29 31 33 35 35 38 44 49 52 55 57 58 60 61 61 60 62 63 65 69 72 76 79 82 86
28 35 31 34 45 24 24 24 25 22 25 26 22 24 27 28 31 32 32 34 37 38 41 45 49 53 56 57 58 59 60 62 62 63 65 69 71 74 77 79 81 86 91
25 21 26 28 18 23 21 25 27 25 26 27 27 28 31 33 35 36 37 38 40 41 45 49 53 56 57 57 58 60 62 64 65 69 70 72 75 78 82 85 87 91 96
24 23 23 24 27 25 24 28 29 30 29 31 31 32 34 37 38 39 39 40 42 46 50 53 56 57 57 57 60 62 64 66 69 70 73 76 79 82 84 86 92 97 98
26 27 27 26 28 25 28 31 32 33 33 35 36 36 38 40 40 40 42 44 47 51 55 58 58 58 57 58 61 65 67 69 70 74 77 79 81 84 86 91 97 101 100
29 31 32 34 31 30 34 35 37 37 38 38 38 38 40 41 41 43 46 49 52 55 59 61 60 59 59 61 65 69 72 72 74 78 81 83 84 88 92 95 100 99 92
30 31 33 33 34 37 39 39 39 40 40 39 39 40 42 43 44 47 51 53 57 60 62 63 62 61 61 64 67 70 72 75 79 82 85 85 89 92 96 101 100 94 83
32 33 34 35 36 39 41 42 43 43 42 42 43 45 46 47 49 52 55 58 61 63 65 67 64 62 64 67 69 71 73 74 79 83 86 89 91 95 100 102 96 87 74
32 33 35 36 37 38 40 42 43 43 43 45 46 47 48 51 53 57 59 61 63 67 70 68 64 64 68 73 73 73 77 78 79 84 87 89 93 98 100 96 88 77 67
34 35 35 36 37 39 41 43 43 44 46 48 49 50 52 55 57 59 59 62 65 69 71 71 71 74 78 77 77 79 81 83 84 87 89 92 95 98 94 85 77 69 60
39 39 39 39 40 41 43 43 45 47 48 50 51 53 56 58 58 58 64 66 65 67 69 71 75 78 79 78 79 81 83 86 88 89 92 94 97 92 84 74 67 60 57
39 40 42 43 44 44 44 45 47 48 51 52 54 57 59 59 61 70 71 67 66 69 70 74 78 82 82 82 82 83 85 87 89 92 94 96 91 84 74 65 59 55 54
40 41 42 43 45 46 47 49 50 52 54 56 59 62 65 69 72 68 65 67 70 73 77 80 83 85 87 87 85 85 86 88 91 94 95 91 83 74 67 61 56 53 49
41 41 42 43 45 48 51 53 55 57 59 62 65 67 70 68 65 64 64 69 73 77 81 85 88 89 89 87 85 85 87 90 94 95 90 83 75 68 62 57 55 49 38
44 45 46 48 50 52 54 57 59 60 63 65 71 70 67 68 66 67 76 77 81 85 86 86 86 87 86 85 86 88 91 93 94 88 82 76 70 65 62 55 50 46 36
46 48 50 51 53 55 57 59 61 64 67 68 70 69 67 69 76 78 82 85 87 87 85 85 85 85 85 87 89 92 94 94 88 81 76 70 65 65 61 53 46 40 35
48 50 52 55 57 57 60 62 63 64 65 67 69 74 78 81 85 87 88 87 86 83 84 84 85 86 87 90 93 95 94 87 81 75 70 67 65 63 56 49 42 36 32
51 53 56 55 54 58 64 66 68 70 72 74 79 82 85 87 88 88 87 84 82 82 83 83 85 87 91 94 95 92 85 80 75 71 67 67 65 61 52 44 37 33 32
50 54 58 56 57 62 67 71 74 78 81 83 84 86 87 87 85 83 81 80 81 82 83 85 88 92 95 94 89 85 81 76 71 68 68 65 60 55 46 40 34 31 30
60 63 66 65 68 72 73 76 79 79 81 82 82 83 83 82 81 79 80 81 83 85 88 92 95 95 92 88 86 81 75 71 69 68 66 63 56 48 40 34 30 28 27
70 62 64 68 74 76 78 78 79 77 76 76 76 77 78 79 79 81 83 85 88 93 95 95 93 91 88 84 79 75 71 70 69 66 63 57 47 41 34 30 27 26 23
67 71 75 75 77 78 77 75 72 71 71 72 74 76 79 81 83 86 90 94 95 95 93 92 90 87 83 79 75 73 71 70 66 61 57 47 39 35 29 27 25 24 25
69 72 75 73 67 64 64 65 67 70 73 75 77 80 84 88 92 94 96 96 95 93 92 90 85 80 78 77 76 74 69 64 60 54 45 38 34 30 26 25 25 24 29
62 60 60 61 63 65 68 70 73 75 78 82 86 89 91 93 94 95 94 93 92 89 86 83 82 81 79 77 73 68 64 58 51 42 35 32 29 27 25 24 24 25 26
59 62 64 66 68 71 74 77 80 83 85 88 90 92 93 93 93 93 92 89 86 85 84 84 83 80 77 72 67 59 53 46 39 33 29 28 26 25 24 23 24 26 29

GFSGL_500_spd_069.txt.gz
Wind_Speed
22 24 25 26 26 27 25 25 28 29 34 41 43 42 36 26 25 24 23 29 32 33 33 34 34 35 36 38 41 44 47 50 48 46 48 51 55 58 61 64 66 70 74
29 25 27 37 32 27 21 35 30 35 41 29 33 24 29 23 23 23 29 31 34 35 34 34 35 36 38 42 45 48 48 49 48 48 50 56 57 61 64 66 69 72 75
25 28 28 28 22 18 27 26 34 29 27 22 18 20 17 22 27 29 32 34 34 34 36 37 38 41 43 47 49 51 52 51 52 53 57 59 62 65 68 70 75 76 78
24 26 23 18 21 21 20 17 27 25 20 22 21 21 24 26 30 32 36 35 37 38 38 40 42 44 47 51 53 55 57 57 56 57 61 63 66 68 71 73 74 78 79
27 25 22 22 20 21 20 21 22 24 25 25 24 29 31 30 33 36 38 38 40 41 42 42 45 48 52 54 56 60 61 60 60 62 65 68 71 72 74 77 80 81 82
30 25 23 22 23 23 24 26 28 29 31 31 31 34 36 36 38 39 39 41 42 43 44 47 49 52 54 58 60 62 64 64 64 67 70 75 76 76 79 82 84 86 90
26 22 23 25 24 26 27 29 30 34 34 33 37 40 40 41 41 39 40 42 44 46 48 50 52 54 56 59 63 64 66 67 70 73 78 80 81 80 83 86 88 90 94
29 27 27 27 27 27 30 32 34 35 34 38 40 43 44 43 42 42 43 45 47 49 51 53 54 56 59 63 63 64 66 69 73 76 80 84 84 86 87 89 90 94 96
29 31 31 30 31 32 32 33 36 36 37 38 43 48 45 43 44 45 47 48 50 52 54 56 57 59 66 67 66 67 67 70 74 79 83 86 86 87 88 91 94 99 99
28 28 31 34 34 35 37 37 38 38 38 43 47 45 45 46 47 50 51 52 54 55 57 58 61 68 72 69 69 69 71 74 77 82 84 86 87 88 90 94 98 99 102
34 34 35 37 38 39 39 41 43 40 45 46 47 47 48 50 52 54 55 57 58 60 62 63 67 73 66 68 71 74 76 80 85 86 88 89 90 90 92 95 98 99 100
40 41 42 42 41 41 41 42 43 46 48 50 51 51 53 54 56 57 59 62 64 65 66 69 72 67 67 71 76 78 83 86 90 91 91 91 91 90 92 95 96 96 91
43 44 46 46 45 45 44 46 47 48 51 53 54 55 56 59 61 63 64 65 67 69 71 72 71 70 72 77 81 85 88 91 91 89 89 88 89 92 94 95 95 90 80
40 41 43 45 47 48 49 49 50 51 53 55 56 57 60 63 64 66 69 71 73 74 71 69 72 77 80 84 87 89 92 91 88 87 86 88 91 94 95 93 88 78 70
43 42 43 46 47 49 50 51 52 53 55 57 59 61 63 65 67 70 71 70 68 69 75 79 81 84 88 90 91 93 90 87 86 87 87 91 93 94 91 87 79 70 67
46 47 46 47 49 51 52 53 55 57 58 59 59 58 59 63 66 67 69 72 75 78 83 87 90 92 94 95 94 89 85 85 86 87 91 93 94 91 85 77 71 66 64
51 51 47 50 51 51 53 54 57 57 58 56 58 61 67 71 75 77 80 82 85 88 89 91 93 95 95 91 86 84 85 86 88 92 94 95 91 87 78 71 65 65 62
52 53 52 48 51 53 54 58 60 59 59 62 64 66 68 72 77 80 83 86 89 91 92 93 92 91 88 85 85 85 86 89 93 95 95 91 87 79 72 67 65 64 59
45 51 53 55 52 56 60 62 58 63 67 68 70 72 74 79 82 84 85 85 87 89 89 88 87 86 85 86 86 88 91 94 96 94 90 85 79 73 68 66 64 62 55
57 55 55 58 60 59 60 64 72 69 72 74 74 77 80 83 83 84 83 83 83 82 83 83 84 85 86 87 90 94 97 96 94 90 84 79 74 70 68 66 61 57 48
60 60 60 64 62 64 68 72 75 75 78 80 83 85 84 83 81 78 77 77 78 80 82 84 86 87 90 95 98 98 96 94 89 84 79 74 72 70 66 62 57 48 39
59 60 61 62 64 66 70 73 76 80 80 80 82 82 77 74 73 75 78 80 83 85 87 89 93 97 99 99 98 96 92 87 83 80 77 75 71 67 60 57 48 38 33
59 60 61 65 68 71 73 75 77 78 78 75 72 73 75 77 80 82 84 86 88 92 96 99 99 100 100 98 95 91 86 82 80 79 75 70 65 60 55 45 36 32 28
60 65 67 70 71 71 71 71 71 73 73 73 75 78 80 82 85 87 91 95 98 99 99 99 98 97 94 91 89 87 84 82 79 75 70 62 56 51 41 33 30 28 26
64 64 64 65 66 68 70 71 73 74 76 78 80 83 86 90 93 95 97 97 97 97 96 95 93 90 89 87 87 85 82 79 74 68 58 50 42 36 31 28 26 25 24
61 63 65 67 69 71 73 75 77 80 82 86 89 91 92 93 93 94 94 94 93 92 90 90 90 89 88 86 83 80 75 68 59 51 42 34 30 28 26 24 24 23 23

GFSGL_500_spd_072.txt.gz
Wind_Speed
19 20 20 21 24 24 24 22 22 24 27 28 25 32 34 39 44 47 36 36 36 35 33 33 39 41 39 37 37 36 39 41 44 47 50 50 52 53 55 57 59 60 63
27 25 25 26 24 27 29 33 26 25 36 33 35 36 40 49 44 45 37 39 31 32 34 37 40 39 38 37 38 39 42 46 49 51 52 52 54 57 59 60 61 63 67
23 22 21 18 20 24 21 17 25 27 21 35 28 27 24 23 21 35 29 29 32 36 39 41 41 40 40 40 42 44 47 50 51 54 56 57 57 58 61 63 64 68 71
22 20 21 21 23 22 19 18 19 23 17 31 35 27 30 23 24 25 28 31 38 40 39 42 42 42 43 43 46 48 50 52 54 57 60 61 61 61 62 64 66 70 72
28 26 21 24 25 22 22 22 21 21 20 21 20 22 24 25 28 31 33 37 39 39 42 44 45 45 45 48 48 50 51 54 57 60 64 63 61 62 64 67 68 71 76
34 31 28 27 26 23 23 25 23 22 23 25 25 27 27 30 32 35 37 39 42 43 44 45 46 47 48 49 50 51 54 57 59 65 67 66 65 66 67 70 74 80 82
35 37 37 35 27 25 28 28 25 26 26 27 29 31 33 37 38 39 41 42 46 47 46 47 48 49 49 50 52 55 57 59 64 69 66 65 69 72 73 76 80 85 87
35 32 31 30 28 29 30 30 29 30 30 31 33 37 38 40 40 43 45 48 51 49 49 50 51 51 52 54 56 59 60 62 69 67 66 69 73 75 78 82 86 89 90
29 30 31 32 31 30 30 30 33 32 33 35 36 39 41 42 44 43 51 54 53 52 52 52 53 55 57 58 60 61 64 68 71 68 70 74 77 80 83 87 90 91 90
31 33 33 33 32 32 32 32 33 35 38 40 42 42 42 44 46 51 52 53 53 54 55 55 57 59 61 61 62 66 69 70 69 72 75 79 82 83 86 88 89 89 89
33 36 36 36 36 37 37 38 39 40 41 43 43 44 44 47 50 50 51 53 54 56 58 59 61 63 64 66 69 74 70 70 73 78 80 83 84 86 85 85 86 88 88
36 37 38 40 40 40 41 42 44 44 44 46 46 46 50 50 51 51 52 54 56 58 60 62 65 68 69 69 66 67 72 78 81 84 85 87 89 88 85 84 84 86 88
39 36 37 38 39 41 44 46 46 45 45 46 48 49 49 51 52 53 55 58 61 63 63 62 61 62 65 71 75 78 80 83 85 87 88 89 89 87 83 82 84 85 88
40 41 39 39 41 42 43 44 45 46 46 47 48 49 51 53 56 59 61 62 58 56 59 64 69 72 75 78 82 84 85 86 88 89 89 88 86 82 81 83 85 87 89
41 39 43 42 43 44 46 48 50 51 51 51 52 53 54 57 59 60 61 58 63 68 72 75 76 76 79 83 85 86 87 88 88 88 87 84 82 82 84 85 88 90 91
50 47 47 49 50 50 51 52 52 51 53 56 57 55 56 60 62 63 67 70 70 73 76 79 80 82 85 88 89 90 89 88 86 84 83 83 84 84 86 88 90 90 86
53 53 52 51 55 59 57 55 52 52 54 56 59 62 61 65 71 69 67 72 75 76 80 84 85 87 90 90 89 88 86 83 82 83 84 85 86 88 89 91 91 86 80
56 56 53 53 54 47 47 46 49 55 56 57 57 64 68 69 68 70 72 72 79 85 86 86 88 90 91 91 87 84 83 83 85 86 87 89 91 92 93 91 86 80 75
56 58 60 56 53 57 56 54 57 61 61 63 66 71 69 72 75 80 82 81 81 85 88 88 90 88 85 82 83 84 86 87 89 90 92 94 96 95 91 86 81 76 71
54 51 51 53 55 56 58 62 64 64 65 67 69 71 73 76 79 80 82 84 88 89 87 85 82 81 82 84 86 89 90 92 94 96 97 97 94 90 86 81 77 73 70
47 47 50 54 58 61 63 64 64 67 69 70 71 73 76 79 81 83 85 86 84 81 80 81 83 85 88 90 92 94 97 99 100 99 96 94 90 86 82 79 74 69 64
53 56 58 60 61 62 64 65 67 68 70 73 76 79 81 82 81 79 79 80 80 82 85 88 90 92 95 98 101 102 101 100 99 96 93 89 86 83 79 76 71 63 57
56 57 58 60 61 63 64 66 69 72 75 77 78 78 77 78 79 81 83 85 88 91 94 97 99 101 103 103 103 101 98 95 93 91 88 86 83 80 75 70 63 54 46
57 59 61 62 64 66 68 70 72 73 73 74 76 78 80 82 84 87 90 93 96 99 101 102 102 102 101 98 96 94 93 91 89 87 84 79 77 72 65 57 48 39 31
61 62 63 64 65 66 68 69 71 74 76 78 80 82 85 88 91 94 97 99 100 100 99 98 96 94 93 93 92 90 89 88 86 82 78 71 63 53 47 39 30 25 23
60 61 62 64 67 69 72 74 75 78 80 82 85 88 91 93 94 95 95 94 93 91 91 91 91 90 89 89 88 86 83 78 73 65 56 47 40 35 29 23 20 20 19

GFSGL_500_spd_075.txt.gz
Wind_Speed
18 19 19 18 18 18 17 20 19 21 25 26 27 26 27 26 31 37 34 36 33 39 37 43 41 46 52 40 40 43 45 44 44 44 46 46 49 51 52 56 58 60 61
20 23 21 24 22 22 23 20 19 22 26 29 32 33 34 33 31 33 39 45 47 54 53 41 42 40 44 43 41 42 44 47 46 46 48 49 52 53 56 57 60 61 61
24 25 22 20 15 19 20 22 24 21 24 29 26 30 35 39 35 37 34 31 38 41 48 41 38 36 41 43 44 46 49 49 49 50 52 52 55 57 58 61 63 65 66
25 23 21 18 21 23 22 21 20 22 20 21 29 29 24 36 39 39 27 28 27 33 39 40 38 41 47 47 49 51 52 52 53 53 56 56 57 59 61 64 66 67 64
27 26 26 28 28 27 23 26 26 26 25 24 24 23 22 32 31 32 33 33 32 34 36 37 40 43 47 48 53 54 54 54 55 56 57 58 60 61 64 68 71 64 68
29 30 33 33 33 32 30 28 29 28 26 28 27 25 26 25 28 32 33 32 35 38 39 41 43 44 46 53 54 55 54 55 56 56 57 59 61 64 68 70 70 68 71
37 37 38 37 33 34 34 32 30 30 29 30 31 31 30 30 31 33 35 39 40 41 44 45 48 49 53 52 53 54 55 55 56 58 60 60 64 66 70 71 69 72 73
32 32 35 33 33 28 28 30 30 31 31 30 31 32 33 32 34 37 40 44 46 46 46 46 50 57 58 55 54 55 55 57 58 60 62 64 68 70 68 70 73 76 79
31 28 29 29 27 29 30 31 31 32 32 32 32 33 34 37 39 40 43 45 46 45 42 48 61 63 59 57 56 57 58 60 61 65 65 65 66 70 74 76 80 81 84
32 30 31 31 31 32 33 35 35 34 35 36 36 36 37 40 42 42 44 45 45 48 54 56 62 59 58 58 58 60 62 60 58 59 62 68 73 77 81 84 84 85 86
33 34 33 33 35 35 34 36 38 37 38 39 40 41 43 44 44 44 46 45 44 51 59 62 58 58 58 59 60 60 58 62 66 69 73 76 79 82 85 87 87 88 88
40 34 32 32 33 36 36 36 38 38 39 41 41 42 43 44 45 45 42 46 42 56 55 56 57 58 60 59 59 64 68 71 75 78 78 80 83 86 87 88 89 88 85
42 37 36 41 40 38 38 38 37 37 39 40 40 41 43 44 44 45 44 50 55 56 57 58 59 61 60 64 69 71 74 76 79 82 84 87 87 89 90 90 86 83 80
45 40 45 42 45 46 45 43 41 41 41 42 44 46 47 47 48 51 53 55 55 57 59 62 63 66 70 72 75 77 78 81 82 86 88 89 90 92 91 87 83 80 78
49 47 50 44 42 44 42 44 45 47 47 47 49 49 50 52 52 55 55 56 58 62 64 67 70 74 76 75 77 81 82 82 88 90 91 93 94 91 86 83 81 82 83
46 51 55 46 47 48 53 53 54 51 49 50 58 54 52 54 55 56 57 60 64 64 66 69 72 75 77 79 81 85 88 89 90 91 91 92 89 85 84 85 85 87 87
47 51 57 57 55 56 56 55 57 51 47 48 52 56 50 52 54 57 61 63 63 67 72 78 78 80 84 85 87 89 90 91 91 90 89 88 86 87 88 88 90 90 89
58 57 57 55 53 64 61 59 60 54 49 49 51 53 57 58 59 62 64 67 71 74 78 80 81 83 86 88 90 92 92 90 89 90 91 91 91 91 92 93 93 93 92
51 47 46 51 53 51 51 52 54 57 58 57 56 58 62 65 68 70 73 74 76 78 79 81 84 87 89 90 90 89 90 92 93 94 94 95 96 97 97 98 96 91 86
48 48 45 50 54 56 56 56 54 53 54 56 60 64 66 68 71 74 76 78 79 81 83 86 88 89 88 90 91 93 94 95 96 98 99 100 101 100 98 94 90 86 80
53 43 54 57 47 52 54 53 57 61 63 65 67 69 72 73 75 76 78 80 83 85 86 86 89 91 92 93 95 97 99 100 102 103 102 101 98 95 91 88 84 81 77
44 46 51 52 53 55 58 62 64 66 68 70 71 72 74 76 77 79 81 82 82 85 88 90 92 94 96 98 101 102 103 103 102 100 98 96 94 92 90 86 82 77 70
52 53 57 59 61 63 67 68 68 68 69 70 72 74 75 76 77 79 83 86 89 90 92 94 98 100 102 103 103 103 100 97 96 95 93 91 89 87 83 79 74 67 60
56 59 61 63 64 64 65 65 65 67 69 70 71 72 75 79 82 85 88 89 92 95 97 99 100 100 99 97 96 95 94 93 91 89 86 83 80 76 70 62 55 46 39
61 60 61 62 63 65 65 64 65 67 69 72 76 79 81 84 86 89 92 93 95 96 96 94 92 91 91 91 90 88 87 85 83 80 74 68 61 55 48 41 34 28 24
59 59 58 58 59 61 64 67 69 72 74 77 80 83 86 88 90 91 91 90 87 86 86 86 85 84 83 83 82 81 78 74 68 61 54 47 40 34 28 23 18 16 16

GFSGL_500_spd_078.txt.gz
Wind_Speed
16 16 15 14 14 13 13 14 14 13 18 20 23 24 24 26 27 28 28 30 32 36 38 40 44 42 42 41 46 46 54 58 56 46 48 47 50 52 54 54 56 57 58
20 20 18 19 20 21 19 19 19 17 18 19 22 27 30 31 31 31 35 36 40 38 37 41 50 51 54 47 39 41 42 44 46 48 48 50 53 56 55 57 57 59 60
22 22 23 21 22 21 20 18 18 20 22 23 23 25 33 35 34 36 42 43 44 45 44 42 45 45 53 48 44 36 45 46 48 50 52 57 58 59 59 59 60 62 63
25 25 25 24 22 23 23 23 23 23 25 25 25 25 24 33 34 38 41 44 42 39 39 40 36 35 44 47 50 45 43 45 50 53 57 62 61 61 61 62 62 63 64
28 24 22 25 25 25 28 29 29 28 26 30 29 27 27 27 30 35 32 38 38 37 41 39 36 37 40 43 47 47 48 48 46 56 63 62 63 62 61 62 63 64 66
29 27 27 27 28 28 31 36 37 35 33 31 31 31 31 29 29 30 32 31 34 35 38 39 39 40 43 45 48 52 51 50 55 61 60 61 62 62 62 64 65 65 66
37 35 33 34 37 39 40 38 37 37 37 34 33 34 32 32 31 32 34 34 36 38 39 41 42 45 48 49 51 53 53 54 61 63 62 63 63 64 64 66 67 67 66
44 41 38 39 40 39 38 33 34 34 33 34 33 33 34 35 35 37 37 37 39 40 41 43 46 48 50 50 51 54 52 61 65 66 64 63 64 64 63 63 65 68 72
50 45 43 41 35 34 32 31 31 31 32 31 33 36 37 37 38 40 41 42 44 44 46 48 49 50 52 48 46 51 66 68 67 68 67 66 64 64 66 70 73 77 78
49 50 46 43 39 33 30 32 33 34 35 36 37 38 40 40 42 43 45 47 48 49 50 51 51 54 52 55 61 61 69 68 70 70 68 66 69 73 75 78 80 81 83
44 44 44 42 40 35 32 31 34 36 39 42 43 43 45 47 48 49 49 49 50 52 54 54 54 57 58 55 62 68 71 71 69 69 68 74 78 78 81 83 85 86 86
43 45 45 47 48 50 41 35 32 35 38 39 41 43 44 47 49 49 49 50 50 51 52 54 55 55 57 59 67 74 69 68 69 72 77 80 82 83 83 86 88 89 91
44 47 50 56 49 53 52 42 41 42 40 44 44 44 43 43 44 45 46 48 49 51 54 56 53 59 64 70 71 70 70 72 76 77 78 82 84 85 86 88 91 93 93
52 49 49 56 54 57 57 56 47 47 49 45 46 45 47 47 47 47 48 51 50 49 54 58 58 62 68 71 71 73 76 77 78 80 84 86 86 88 90 92 93 94 92
50 51 51 54 59 57 58 62 64 50 48 48 49 49 53 54 53 54 52 55 54 59 60 62 73 74 74 74 77 77 79 81 83 85 88 90 93 93 94 93 92 90 88
47 46 46 55 58 57 51 65 59 57 56 52 54 53 55 58 57 54 51 56 61 61 65 69 69 69 72 73 76 79 81 85 89 92 92 90 92 92 91 91 92 92 92
45 49 46 49 53 52 53 62 59 54 57 60 61 60 64 59 58 59 59 57 65 67 63 66 68 70 74 78 81 85 89 90 90 91 92 92 92 93 95 97 98 98 99
49 52 46 63 65 63 64 62 56 55 60 59 60 55 61 58 57 57 56 55 56 61 64 69 73 78 82 84 86 87 88 89 90 90 92 95 98 100 101 103 104 104 103
42 52 55 53 47 49 53 51 54 56 58 58 56 54 54 57 60 61 62 63 66 68 72 74 77 79 81 83 85 87 89 91 93 95 99 102 104 105 106 107 106 104 101
50 50 43 46 49 48 47 50 50 45 46 50 49 51 56 60 62 63 65 69 72 74 76 78 80 82 84 86 87 89 93 96 100 102 104 107 108 108 107 105 101 98 94
47 52 53 56 47 47 53 48 54 57 57 55 58 61 64 66 68 72 74 75 76 77 79 81 83 84 85 87 92 96 99 101 104 107 108 108 107 104 101 99 96 93 90
44 49 49 44 42 52 56 58 55 55 60 65 66 68 71 74 74 76 76 76 78 80 82 82 83 87 91 94 96 100 103 106 106 106 104 102 99 98 95 92 89 86 82
43 44 45 49 50 55 57 60 60 65 69 71 72 73 74 74 74 74 76 78 79 81 85 88 91 94 97 99 102 103 103 101 99 98 96 93 92 89 86 83 78 73 67
50 46 52 56 61 63 65 68 68 70 71 71 71 72 73 74 74 75 77 81 84 88 91 94 96 97 98 98 97 95 94 92 90 89 87 85 83 78 72 66 59 52 46
54 58 58 60 63 65 66 68 70 70 69 68 68 69 72 75 78 80 83 86 90 93 95 95 93 91 89 88 87 85 84 83 81 79 77 72 65 59 51 44 37 31 27
58 59 60 61 62 63 64 63 62 63 66 69 71 74 77 79 82 86 88 90 91 90 87 84 83 81 80 79 77 76 74 72 69 63 57 51 44 37 30 24 19 15 13

GFSGL_500_spd_081.txt.gz
Wind_Speed
11 12 12 11 12 13 14 14 15 13 14 16 18 22 22 22 24 25 24 25 26 26 27 28 31 34 38 41 43 43 48 50 49 53 48 46 45 44 49 50 51 50 53
17 15 15 15 12 15 18 19 20 18 16 18 18 20 21 24 28 28 29 29 30 31 33 35 37 41 40 41 44 48 50 53 52 54 44 47 42 48 50 49 50 58 59
23 22 21 19 16 18 20 21 18 18 19 18 19 19 23 24 26 33 35 35 33 36 42 44 46 47 45 39 43 44 45 49 50 43 44 49 46 49 53 55 60 63 63
27 26 23 24 23 21 21 21 21 23 24 24 23 23 22 25 27 27 30 37 36 42 43 44 45 43 40 42 40 42 42 38 43 53 57 50 49 46 49 57 62 63 64
31 30 29 29 29 26 24 24 26 28 29 32 32 31 29 28 28 27 29 29 38 34 34 38 40 39 40 40 40 42 45 46 47 50 50 54 56 52 54 56 59 63 65
35 34 34 33 31 29 29 30 30 31 33 39 40 37 36 33 30 31 33 33 35 33 34 32 34 38 42 42 43 46 48 49 51 53 45 64 62 62 66 63 64 63 64
37 36 35 34 33 32 35 36 38 39 42 42 40 41 40 38 34 33 36 38 37 35 35 37 37 40 44 46 48 49 47 59 56 56 56 59 58 63 61 71 68 68 69
40 39 38 36 37 37 38 38 39 41 41 40 39 40 41 40 37 33 38 41 39 38 40 42 43 45 47 50 52 55 54 60 58 58 58 59 67 61 77 77 72 73 72
42 45 43 40 41 43 44 43 42 42 37 33 36 37 37 36 38 38 41 44 43 44 45 46 48 51 54 56 57 58 59 59 58 56 60 68 72 70 78 79 79 76 77
45 48 50 46 47 49 46 46 40 41 39 38 37 36 37 37 40 41 44 45 47 50 51 52 53 56 58 59 60 61 60 60 57 65 62 64 61 75 81 84 80 80 82
52 52 54 50 49 51 54 45 41 41 39 38 42 41 41 43 43 46 48 50 53 55 56 57 58 60 61 60 60 61 63 64 67 67 69 68 74 84 88 83 83 86 87
53 52 48 50 55 51 49 48 47 49 45 52 46 42 43 46 48 49 51 53 54 54 54 55 56 57 58 59 60 65 62 66 68 66 64 71 77 84 83 85 87 90 92
46 48 49 51 53 55 58 50 54 56 53 55 61 50 49 48 46 46 52 54 53 54 57 58 59 59 58 59 63 67 69 68 70 77 82 82 82 84 85 86 88 90 92
49 54 52 50 53 56 55 58 63 57 66 65 65 63 60 58 61 56 52 53 51 54 59 60 61 62 60 62 68 65 62 70 77 78 86 85 83 83 87 91 91 94 99
53 52 50 53 56 59 57 62 62 62 68 69 68 64 60 64 69 67 56 55 55 57 60 63 62 60 62 62 69 69 75 79 82 82 83 85 86 88 90 94 99 102 101
47 47 50 52 58 59 63 61 66 65 62 66 66 72 69 78 81 75 67 63 66 64 66 65 63 63 65 67 71 74 76 77 80 85 86 86 89 93 96 99 100 99 97
50 52 54 56 62 66 65 61 59 58 60 67 67 65 67 81 74 64 66 71 74 72 69 66 67 68 74 76 77 78 79 80 83 88 91 91 93 94 96 97 97 98 101
52 51 50 53 51 63 58 60 66 64 66 74 76 74 71 55 54 60 56 57 56 61 64 61 65 69 71 76 79 80 81 83 85 87 90 92 94 96 97 100 104 106 109
67 59 60 53 41 33 37 44 45 49 55 53 53 54 46 43 45 48 47 48 51 56 59 63 68 70 71 75 80 82 84 85 86 89 92 94 95 99 103 107 110 113 115
52 59 62 55 50 41 44 42 40 44 46 47 48 49 51 53 52 45 48 58 64 66 69 72 74 78 80 82 82 83 84 88 90 91 95 99 103 106 109 112 115 114 112
41 45 44 43 40 34 41 39 46 42 44 50 50 49 54 55 57 57 61 66 68 71 75 77 78 80 81 82 84 85 87 89 94 97 100 105 109 112 113 111 109 107 103
39 43 43 45 46 49 51 51 48 48 51 51 56 55 53 61 68 69 69 71 74 75 77 79 80 81 81 82 85 89 92 95 99 103 106 108 108 109 105 102 100 97 92
41 42 43 47 50 48 50 55 53 51 52 55 59 63 65 68 71 73 74 76 77 77 78 78 79 82 85 88 90 94 97 99 101 103 102 100 98 96 93 90 88 84 78
43 44 46 49 54 56 53 54 58 63 64 64 67 70 72 75 76 78 81 79 76 77 79 82 85 88 90 93 94 96 97 97 96 93 91 89 86 82 80 77 71 64 58
47 51 52 56 60 63 65 65 65 66 68 70 70 71 71 73 75 74 74 76 79 81 84 86 88 90 90 90 90 89 88 86 84 82 79 76 72 67 60 54 49 44 37
53 54 55 57 57 59 61 63 62 62 62 63 64 65 68 71 73 75 78 81 83 85 85 85 84 82 81 81 80 78 77 74 72 69 66 61 53 46 39 36 32 27 23

GFSGL_500_spd_084.txt.gz
Wind_Speed
13 12 11 11 10 12 13 12 13 13 12 12 13 15 14 16 17 15 19 20 20 22 26 27 25 26 28 29 32 32 36 37 40 41 42 46 49 49 50 46 41 43 47
17 16 15 15 14 14 14 15 15 13 15 17 16 15 17 16 17 17 21 24 23 24 24 26 25 30 32 34 36 39 43 44 44 41 42 42 43 49 45 45 45 50 48
21 21 18 18 18 19 20 19 18 18 16 16 16 17 17 18 18 20 22 23 26 31 31 32 31 32 34 38 44 48 49 46 43 44 41 38 39 34 44 48 50 55 53
26 25 24 22 21 21 23 23 22 19 20 20 21 21 21 21 21 22 24 27 28 29 34 38 36 35 37 37 43 45 45 46 47 44 43 41 40 43 48 54 59 57 57
27 26 25 26 27 26 24 26 27 24 24 25 26 26 26 27 29 29 28 29 32 33 33 34 37 39 37 38 39 43 41 44 47 47 43 47 47 51 52 52 52 61 66
30 30 30 29 29 30 32 29 28 27 27 29 29 31 34 36 34 34 35 34 35 35 34 33 36 36 38 41 39 39 42 45 47 48 49 46 50 48 55 57 59 60 59
35 35 35 34 33 33 32 33 31 31 32 32 34 36 38 41 37 35 38 41 40 39 38 37 38 38 41 44 44 45 47 47 51 52 51 51 52 63 65 59 60 57 68
41 40 38 37 35 33 34 32 34 36 36 37 36 38 39 40 38 37 39 43 44 42 42 40 41 42 45 47 49 49 49 53 55 55 54 59 61 64 63 62 60 66 63
46 45 42 41 43 38 39 36 36 37 38 40 40 39 40 38 40 38 38 40 42 44 45 46 47 48 49 51 52 53 54 56 59 59 60 62 62 67 66 62 62 74 76
44 45 48 47 49 47 43 44 44 44 47 43 41 39 37 39 37 37 40 41 44 45 46 48 49 50 52 54 56 58 58 60 62 64 65 67 65 69 71 66 70 65 68
46 46 47 49 53 53 48 51 51 48 51 48 52 44 38 44 43 43 43 47 47 47 48 49 53 56 58 58 59 60 60 61 64 64 63 67 74 68 70 67 64 75 75
47 44 50 49 51 56 56 55 57 57 55 50 52 51 43 46 50 50 57 51 46 48 50 50 52 58 59 61 64 64 65 66 69 66 66 66 68 70 76 73 79 78 77
53 54 56 54 56 57 59 60 62 60 54 55 57 54 49 49 52 56 60 58 58 63 53 55 62 61 60 61 59 62 66 68 66 70 70 68 71 75 78 76 79 85 85
51 55 56 57 57 55 53 57 58 57 59 61 64 53 56 58 62 51 63 71 65 49 60 64 68 78 72 66 63 63 65 70 73 71 68 71 72 73 74 77 81 87 90
51 54 57 58 57 62 63 61 61 61 62 62 65 61 62 63 67 71 70 65 66 70 72 75 72 83 76 66 69 71 69 71 70 69 72 73 70 73 79 84 89 92 95
56 47 54 57 56 58 56 53 52 53 61 61 58 61 63 64 67 62 67 66 65 75 78 76 76 76 65 62 64 65 65 66 65 63 66 70 74 78 83 86 89 92 93
56 54 49 56 63 58 56 55 50 53 52 62 67 63 62 59 51 61 63 69 74 77 77 66 57 54 58 61 59 58 59 61 65 69 74 78 82 84 87 90 92 93 93
43 55 61 65 56 39 56 58 54 56 62 63 44 53 64 70 74 71 69 74 78 78 58 52 51 58 57 61 62 64 67 71 74 77 78 80 82 85 89 92 94 95 97
43 46 49 59 56 52 49 30 52 57 43 43 50 52 67 72 73 70 67 58 55 52 52 54 51 56 60 62 67 72 73 75 78 81 84 86 88 91 94 95 96 100 103
42 42 41 45 40 39 48 45 53 45 42 45 42 42 44 43 47 46 49 50 51 51 55 53 54 59 67 73 76 77 80 82 83 85 87 88 89 91 94 98 101 105 108
38 39 37 35 36 35 35 37 41 46 42 42 41 43 45 46 47 49 54 57 58 58 60 64 69 73 74 76 78 80 82 83 83 83 85 89 92 95 99 103 106 109 108
38 38 38 38 38 39 40 39 41 44 45 48 47 46 45 47 47 50 54 60 62 65 67 71 75 76 77 78 80 80 80 82 84 87 91 95 99 101 102 104 104 102 98
41 41 41 42 41 42 43 44 46 47 49 51 52 54 53 53 57 59 61 65 68 71 72 73 74 75 77 77 80 83 85 88 91 94 96 96 96 96 95 94 91 87 83
41 42 42 43 43 46 48 49 51 52 53 56 59 60 61 63 64 66 68 69 68 68 69 71 72 76 79 82 85 88 90 91 93 90 89 88 86 83 81 78 76 73 68
45 44 44 44 45 47 49 51 52 54 56 58 59 60 60 61 60 61 63 65 67 70 72 75 79 81 84 86 87 85 82 81 81 79 78 76 73 71 69 64 57 50 46
45 45 45 47 48 48 49 49 52 52 53 54 56 59 61 63 65 67 69 72 74 77 79 80 79 79 77 74 73 72 71 70 69 68 66 64 62 58 52 44 38 35 33

GFSGL_500_spd_087.txt.gz
Wind_Speed
16 15 11 9 7 7 7 6 5 5 7 8 8 9 10 13 14 16 17 17 17 19 21 23 26 29 28 29 32 33 32 33 36 33 36 37 38 40 42 45 46 44 45
19 18 17 14 12 10 12 11 10 9 9 10 11 11 11 14 14 15 17 19 17 18 21 24 26 31 33 32 34 34 35 37 39 43 44 43 41 42 43 43 41 35 35
21 21 21 20 18 16 16 16 15 14 14 14 13 14 13 13 13 15 16 18 20 20 22 26 29 32 30 32 34 37 36 41 46 49 50 51 46 45 45 44 38 37 39
21 23 25 26 25 24 21 19 18 19 17 17 18 18 17 17 17 18 19 21 23 24 25 26 26 28 33 37 38 36 37 38 39 41 43 49 42 41 46 45 42 43 44
30 27 28 30 30 27 25 25 24 22 22 22 22 20 21 22 23 24 27 28 29 30 32 32 31 31 28 35 40 41 42 41 41 41 42 47 44 44 49 47 44 44 50
31 30 29 29 27 26 26 27 28 27 26 25 26 26 25 25 27 30 32 34 35 37 37 37 37 37 36 36 39 40 41 41 44 47 46 47 47 48 50 49 47 49 52
30 31 33 34 34 33 33 32 31 32 31 28 31 30 30 29 29 31 34 36 36 36 38 40 40 40 40 41 43 45 46 45 46 49 50 50 50 50 50 53 52 50 59
33 38 39 41 41 39 38 35 35 35 33 34 35 37 37 32 33 34 35 38 36 35 37 38 41 43 43 46 48 48 50 50 52 52 53 53 52 54 56 56 55 61 61
33 34 37 40 42 43 40 38 38 40 39 36 37 38 40 40 38 36 38 40 37 35 36 37 39 40 42 45 48 51 53 53 54 56 57 57 55 60 58 61 61 65 70
41 41 40 40 41 43 46 46 45 47 45 43 43 42 44 42 46 43 44 45 43 38 38 40 42 43 43 45 47 50 54 55 57 59 60 60 61 60 61 61 68 68 70
48 49 48 45 44 46 46 49 52 50 52 50 49 47 50 49 48 48 54 50 49 48 46 46 47 49 49 50 53 55 55 52 56 57 58 59 58 63 65 63 68 68 74
50 53 55 53 52 49 49 48 51 55 55 55 52 54 52 54 56 58 56 56 53 53 54 54 55 56 59 61 59 57 57 57 55 66 64 69 68 68 68 66 70 76 79
50 54 56 57 58 58 53 54 53 53 59 61 58 59 60 62 63 62 57 61 62 61 60 60 59 65 69 75 62 68 61 67 69 68 74 77 68 73 72 74 79 83 79
50 53 55 58 60 62 62 62 62 63 63 58 60 58 62 63 59 60 62 59 61 71 63 62 66 72 75 73 68 75 68 67 64 72 78 80 76 75 74 82 88 79 70
41 48 54 57 61 61 60 63 63 61 65 61 65 63 66 68 64 66 64 67 65 64 74 73 65 75 85 80 74 63 70 61 69 69 77 75 74 74 73 68 67 70 73
38 40 44 44 50 63 64 60 58 65 65 62 63 65 63 61 60 58 64 68 63 64 68 71 71 68 66 59 57 66 74 75 78 73 66 68 67 63 64 67 71 75 79
45 45 45 46 47 46 55 65 65 53 56 63 64 63 69 65 62 63 63 73 73 64 71 62 58 59 62 73 77 80 73 62 64 62 62 64 67 70 74 77 80 85 89
51 51 51 52 50 48 51 51 59 79 45 63 50 50 48 55 63 53 54 49 56 48 58 57 63 70 73 73 70 61 57 59 62 64 65 69 73 78 81 86 90 92 93
57 57 56 55 54 50 45 49 53 47 49 50 47 47 37 56 65 63 50 49 47 44 44 44 48 51 53 55 56 57 61 62 64 68 72 77 81 85 88 90 91 91 90
56 55 54 49 46 45 44 44 43 41 36 38 43 46 47 45 43 46 46 46 47 46 48 48 49 52 56 58 60 62 63 67 71 77 81 86 88 88 87 87 88 91 94
52 45 44 42 41 41 41 41 41 40 37 37 39 42 39 43 44 47 46 46 47 47 49 51 52 56 58 61 64 68 72 75 78 81 83 83 83 84 88 91 94 97 98
45 44 48 50 47 44 43 44 44 44 44 42 43 45 44 45 46 48 50 51 52 53 56 58 60 63 65 68 71 74 76 77 78 79 81 84 87 90 93 94 95 94 93
45 44 46 48 46 46 49 47 46 46 47 46 46 46 46 47 48 52 55 57 58 60 62 63 64 67 70 71 71 72 74 77 80 82 85 87 87 87 88 88 85 82 80
35 37 38 39 42 44 45 46 47 48 48 48 48 49 50 50 51 53 55 55 57 59 60 62 64 66 68 70 72 75 78 80 82 81 80 81 79 76 76 75 73 71 68
37 37 38 40 41 42 43 44 45 46 48 49 49 49 49 50 51 51 53 54 56 58 61 64 67 69 72 73 75 75 75 73 70 68 68 68 68 67 66 65 62 58 51
41 40 40 40 41 41 43 44 45 46 47 48 50 51 52 53 55 57 60 62 63 65 66 68 69 68 65 62 60 59 59 59 61 62 63 62 61 59 57 53 47 41 38

GFSGL_500_spd_090.txt.gz
Wind_Speed
22 22 19 15 14 11 10 8 7 6 7 8 9 10 11 12 12 12 15 17 18 18 20 21 24 29 31 31 31 33 34 35 36 32 34 36 39 39 40 39 41 41 40
24 23 22 20 18 16 13 12 10 9 10 11 12 16 15 15 14 15 15 17 19 21 22 23 22 27 31 31 33 34 36 38 42 41 41 41 42 42 45 48 50 48 47
26 24 23 23 22 21 19 17 16 16 16 14 15 16 17 18 17 18 18 18 18 21 24 24 25 29 29 31 34 36 39 42 45 46 43 45 45 49 51 53 53 51 45
29 27 26 25 26 26 24 22 22 20 18 19 18 19 17 17 19 20 21 21 20 20 23 26 29 30 30 35 39 41 42 45 46 48 49 47 47 45 45 45 49 46 45
35 33 29 30 30 31 30 29 28 26 25 24 22 22 24 23 22 24 25 27 28 29 30 29 31 33 34 35 37 36 38 42 49 52 51 51 50 45 47 47 46 45 47
28 28 33 34 34 33 34 33 31 30 30 30 28 27 28 29 27 29 30 31 32 31 30 31 33 37 38 39 41 41 42 45 44 47 48 47 48 48 47 49 48 50 51
28 31 32 33 34 35 36 35 32 33 35 34 34 34 32 33 33 34 34 35 36 35 34 34 34 35 38 41 42 46 49 48 47 47 49 49 50 49 50 51 54 53 55
36 37 37 39 37 37 36 37 37 38 39 39 39 37 37 36 36 38 40 42 42 39 39 38 38 37 38 39 44 47 50 51 51 50 50 52 52 53 56 54 58 57 57
38 39 41 41 37 41 44 42 41 42 41 42 41 42 42 41 41 43 46 46 47 45 45 46 43 39 39 42 46 47 47 49 50 52 54 55 56 53 64 58 58 59 60
33 40 39 41 41 40 40 40 43 46 47 47 49 46 46 47 47 46 47 49 48 48 47 46 48 53 50 46 46 47 48 49 52 55 57 58 59 57 56 57 60 56 58
47 46 45 44 46 46 46 48 49 48 47 48 50 54 56 53 55 54 53 55 57 54 52 54 58 56 54 59 57 55 53 52 54 57 56 60 63 63 61 62 72 59 64
47 49 50 50 50 50 51 51 52 53 55 55 56 56 55 57 56 55 53 55 58 60 61 61 63 65 63 59 59 62 64 62 62 69 68 73 77 80 74 72 69 74 74
55 56 55 56 55 55 57 58 60 60 54 59 61 60 57 55 56 58 59 56 64 61 64 66 71 72 64 62 61 66 70 67 72 73 73 86 86 81 76 77 81 80 75
44 46 49 52 56 59 61 61 62 65 67 67 67 67 68 65 62 66 64 61 67 64 63 54 66 58 63 64 72 70 73 85 74 71 86 82 96 84 82 64 69 75 75
36 38 40 42 44 47 49 51 57 62 66 70 72 71 70 68 70 72 55 66 70 72 69 70 71 75 66 66 71 67 69 70 82 82 79 78 77 73 68 78 69 67 62
40 41 41 43 44 44 47 49 50 55 58 60 58 62 72 70 65 68 68 71 60 61 66 65 64 63 65 63 70 75 70 75 73 68 61 62 62 68 76 71 66 63 62
45 46 46 47 48 49 50 51 51 52 53 55 59 60 57 58 69 71 74 67 69 72 65 66 77 71 73 77 75 66 57 60 60 59 58 59 63 63 62 62 66 70 73
50 52 53 54 56 56 57 58 59 59 59 59 59 58 58 59 56 62 60 54 57 65 71 54 60 66 54 50 52 55 54 53 51 53 54 56 58 61 65 67 71 76 80
55 57 59 61 63 64 64 64 64 65 64 62 60 55 51 45 42 42 46 53 52 55 49 40 48 51 47 48 51 52 52 52 54 58 60 62 64 68 71 75 79 81 84
64 66 67 68 67 66 65 64 63 59 54 51 50 50 48 43 42 43 42 46 48 45 47 47 48 48 47 49 52 54 56 59 61 63 64 67 70 74 77 80 82 84 86
58 59 59 58 58 58 55 53 48 46 46 46 48 50 50 48 47 46 44 45 44 45 47 49 50 51 51 52 54 57 59 61 63 66 68 71 74 75 76 79 81 85 88
48 49 51 49 48 48 42 43 48 49 47 46 47 48 49 48 47 47 49 50 50 50 50 51 53 55 56 57 59 60 61 63 66 68 70 71 74 77 80 82 85 88 89
46 47 47 43 40 41 44 44 46 48 48 47 48 49 50 50 49 47 47 48 50 52 53 54 56 58 58 59 60 61 63 65 67 69 71 74 76 79 81 82 81 80 80
47 46 45 45 44 39 36 36 40 42 43 44 47 47 48 49 50 50 50 50 51 52 54 55 57 58 59 60 62 64 67 69 71 73 74 74 75 75 74 71 69 68 68
46 47 46 45 44 43 42 42 42 42 43 45 47 48 48 48 49 50 50 51 53 54 56 57 58 60 62 63 65 67 68 69 67 65 63 62 61 60 61 61 61 60 59
45 46 46 47 45 44 44 44 44 44 45 46 48 49 50 52 53 53 54 55 57 59 61 63 65 65 64 63 62 60 58 55 53 52 53 55 56 57 57 56 55 52 49

GFSGL_500_spd_093.txt.gz
Wind_Speed
25 24 24 20 18 17 14 12 13 12 11 11 8 8 10 10 10 12 13 14 14 17 18 17 20 25 28 30 32 32 33 34 38 34 36 36 39 40 39 41 42 43 42
25 24 25 23 22 20 19 16 15 13 12 13 14 15 15 14 14 15 17 17 18 19 20 21 21 24 25 27 28 31 34 36 38 37 39 41 43 43 43 44 44 45 46
27 26 26 25 25 24 23 22 20 18 18 18 18 19 18 17 20 21 21 21 22 22 23 24 25 27 25 28 30 33 36 39 42 45 41 44 45 47 49 49 46 49 53
29 28 28 28 29 29 28 26 26 24 22 22 22 23 23 20 20 22 25 26 27 28 28 27 27 27 27 30 33 35 40 42 44 47 48 47 48 50 51 49 48 50 51
34 32 30 31 33 34 32 31 32 31 29 28 27 26 25 25 25 25 26 28 30 31 31 32 33 33 32 34 37 37 40 44 46 48 50 50 51 52 52 52 56 55 57
44 36 36 34 32 33 35 35 34 36 36 35 33 32 32 29 28 31 34 35 35 35 33 35 36 38 36 39 41 43 46 50 52 52 53 53 51 50 49 47 52 53 51
27 28 35 36 37 34 36 37 37 37 37 36 37 37 34 34 35 36 37 39 41 41 41 39 38 38 38 38 41 44 47 49 51 52 53 55 54 52 53 53 53 54 55
31 33 34 33 36 39 39 39 39 39 37 35 37 35 40 41 40 41 42 46 47 46 45 44 45 44 44 43 43 45 45 48 50 52 53 52 54 56 56 57 57 57 58
38 37 39 42 44 44 44 41 42 46 43 42 43 43 46 46 46 46 48 48 50 48 49 51 52 52 50 51 53 52 53 52 50 50 52 53 55 54 54 55 58 59 60
37 39 45 47 46 47 47 46 44 43 42 43 48 50 53 52 54 53 52 53 52 49 51 53 56 57 56 54 57 57 57 58 57 55 56 58 56 55 55 55 57 61 61
39 40 40 40 44 47 49 48 47 47 51 51 51 49 49 52 53 53 47 53 55 56 56 56 59 60 61 62 62 63 65 65 64 63 66 65 63 63 64 65 66 69 70
44 44 45 46 47 49 51 53 53 54 55 53 54 57 57 58 59 58 58 58 57 54 58 63 67 67 60 64 69 72 69 67 68 67 72 70 72 69 67 76 75 75 75
42 46 48 50 50 50 51 55 59 58 58 59 60 60 60 60 61 59 60 61 63 64 65 63 67 68 61 71 65 71 70 77 70 73 63 72 73 90 85 82 89 82 87
47 48 48 52 55 58 59 56 56 57 59 61 62 64 64 65 65 67 67 69 68 68 67 72 73 72 76 72 73 74 71 74 74 75 85 72 70 75 75 82 84 88 87
43 44 46 47 46 48 46 47 47 48 48 49 50 51 52 54 55 58 59 60 60 58 61 68 72 76 73 69 67 62 70 71 73 70 74 84 86 85 81 80 77 77 73
41 42 43 44 45 47 47 47 48 50 51 52 53 54 55 56 57 58 58 58 58 59 62 62 61 68 72 74 76 67 75 70 70 69 73 73 76 77 73 69 61 60 63
44 46 47 48 49 50 52 53 53 53 57 59 60 60 61 62 62 64 65 64 63 63 63 63 63 64 69 60 61 61 71 70 75 81 72 67 64 58 56 54 56 58 61
50 50 51 52 53 54 56 57 58 59 61 63 64 66 67 68 69 69 69 70 67 64 60 55 56 55 55 54 55 55 58 57 57 57 55 56 54 55 58 60 61 64 66
53 54 55 56 57 58 60 62 65 67 69 71 73 75 75 74 73 72 69 64 58 54 52 53 52 47 47 47 48 49 49 50 53 52 55 55 56 59 61 63 64 67 69
57 58 60 63 65 68 70 71 73 73 75 74 73 72 69 64 59 57 54 52 52 52 51 50 48 47 46 46 45 46 47 50 51 53 56 58 60 62 64 66 67 69 71
63 65 66 66 67 66 63 59 56 56 55 56 54 54 54 52 54 48 46 48 47 47 49 50 53 52 51 51 51 52 52 53 54 56 57 59 62 64 65 67 69 71 73
61 60 60 57 54 53 52 49 48 49 48 48 47 45 49 50 50 50 48 49 48 48 49 49 51 52 52 53 53 54 55 57 58 59 60 61 63 65 66 68 71 73 75
54 53 53 53 53 51 51 49 48 47 46 45 44 46 46 48 48 48 47 47 48 50 51 50 51 52 53 54 55 56 59 61 62 63 64 67 69 71 72 74 75 75 75
55 56 57 56 55 53 51 51 51 49 49 48 45 44 46 47 48 49 49 49 50 51 52 51 52 53 54 56 58 60 61 62 64 66 69 70 71 72 72 71 68 65 63
58 58 57 55 50 48 47 48 48 49 49 50 50 49 49 49 49 49 49 50 51 52 53 55 57 58 59 60 62 63 65 66 67 66 66 65 63 61 58 55 54 56 56
52 53 51 48 47 47 48 48 49 50 51 52 52 51 50 50 50 51 52 53 55 56 57 58 59 61 62 63 65 65 64 62 60 57 54 52 51 50 51 52 53 53 52

GFSGL_500_spd_096.txt.gz
Wind_Speed
24 26 27 25 21 21 18 16 13 11 10 9 10 10 9 9 8 8 9 11 14 18 21 20 19 19 20 22 25 27 28 29 30 32 35 36 39 37 37 42 41 43 42
24 25 26 27 23 23 23 21 19 16 13 12 13 13 12 12 12 13 13 15 16 17 18 18 20 21 21 22 24 26 27 29 32 30 34 36 39 41 42 44 44 45 47
26 26 27 26 25 26 26 25 24 22 19 17 16 16 16 17 18 18 18 19 20 20 21 22 23 23 24 24 25 26 28 31 34 36 35 39 42 44 46 48 48 49 50
27 25 28 28 27 27 28 27 26 25 26 24 23 22 21 20 20 23 23 23 24 25 26 25 25 25 26 29 31 31 33 35 36 39 39 39 42 43 47 47 48 51 52
33 31 31 29 28 28 29 29 28 27 29 29 28 28 27 25 27 28 27 26 28 29 29 30 31 32 32 33 34 33 37 41 42 45 47 46 45 46 45 45 49 50 53
31 33 33 31 31 33 34 32 32 33 33 33 32 32 32 32 32 34 34 34 34 34 34 35 36 36 35 37 39 39 42 41 41 44 46 47 48 50 51 53 54 54 54
27 22 24 25 31 40 38 38 37 38 37 36 37 37 36 38 38 38 39 39 40 39 39 40 42 42 42 43 41 43 44 45 46 46 48 47 46 46 50 53 54 55 56
30 29 28 27 28 28 33 37 40 39 38 38 40 40 37 34 36 37 37 40 42 44 45 44 45 45 47 47 48 49 49 50 51 54 53 54 53 52 50 50 52 55 57
36 36 36 30 30 32 33 35 37 39 41 43 45 43 43 44 42 42 44 46 49 48 48 48 49 50 51 51 51 53 54 55 56 57 60 59 59 58 58 57 56 55 56
42 40 39 37 37 38 39 42 44 46 48 49 50 49 45 47 48 48 48 50 55 56 59 59 48 47 56 53 57 55 55 60 63 63 64 67 64 65 66 64 67 66 62
48 46 43 37 39 43 46 47 49 49 49 49 50 51 51 53 53 51 51 50 54 55 55 54 51 56 61 64 64 66 59 64 65 71 71 72 71 75 73 75 73 72 74
39 33 34 34 37 38 41 43 47 49 50 51 52 51 52 52 52 53 53 55 61 62 64 61 63 52 61 62 59 53 55 67 61 71 75 73 79 72 72 80 79 77 84
34 34 37 39 38 39 41 44 46 46 46 48 49 53 56 56 55 54 53 52 51 51 53 56 61 64 65 62 67 71 72 75 72 78 75 71 69 78 76 73 77 76 82
40 39 39 42 44 42 40 40 42 43 45 46 46 46 46 46 46 46 46 47 47 47 48 49 52 54 58 60 63 65 70 69 72 78 83 86 84 80 76 67 68 77 75
42 43 43 39 37 39 38 38 39 39 41 43 44 46 46 47 48 49 50 52 53 54 54 55 56 56 57 58 60 62 64 68 65 68 72 79 78 79 80 70 72 70 72
35 38 39 40 41 41 43 43 43 43 45 47 48 49 51 52 54 55 57 58 60 60 61 61 62 63 63 63 64 64 64 66 66 68 66 69 69 71 70 72 76 68 69
36 37 39 41 43 45 47 49 51 51 51 51 53 55 57 59 61 63 64 66 68 69 70 71 72 72 72 71 70 68 65 63 61 59 60 62 63 63 57 52 50 54 53
40 43 45 47 49 52 53 55 55 55 56 56 57 58 61 64 67 70 72 74 77 79 80 80 80 79 76 72 66 60 57 58 58 56 58 60 60 57 54 53 53 52 53
47 49 50 53 56 57 58 58 59 60 61 63 65 68 71 73 75 77 79 81 81 79 74 69 65 62 60 56 54 52 52 51 51 51 51 52 52 52 53 54 56 58 59
51 53 54 55 57 59 60 62 64 66 68 70 72 74 75 75 74 73 67 62 57 53 54 54 55 51 48 49 47 47 48 51 53 53 53 53 54 56 57 57 58 59 61
55 57 59 59 60 61 63 64 66 67 68 67 66 63 61 57 54 51 52 52 49 50 54 56 54 53 51 52 51 51 51 52 53 54 55 54 55 55 56 58 59 61 63
57 58 60 62 63 63 63 63 62 60 58 56 56 55 54 51 49 50 48 47 51 52 52 52 51 52 52 52 52 52 53 54 55 55 57 57 58 60 61 62 64 66 69
59 59 59 58 58 56 55 54 56 57 58 59 59 58 55 55 54 53 51 49 47 48 51 53 54 54 54 53 52 52 52 53 55 57 59 60 62 64 65 66 68 70 71
57 56 57 59 60 60 59 60 59 59 60 60 57 55 54 55 55 55 54 54 55 54 53 53 53 52 52 53 54 55 57 58 60 61 62 63 64 65 66 67 67 66 64
55 53 53 53 54 54 54 56 58 59 58 56 53 52 51 51 51 52 53 54 55 55 56 55 56 56 57 57 58 59 61 62 63 64 65 64 63 62 60 57 54 51 50
56 56 56 57 57 56 55 54 53 52 52 52 52 52 52 53 53 53 54 54 54 56 57 58 59 60 61 62 63 64 64 65 64 62 59 56 53 51 49 47 47 48 49

GFSGL_500_spd_099.txt.gz
Wind_Speed
29 30 29 29 25 23 21 19 17 15 12 9 10 10 9 7 7 7 8 9 14 15 19 22 22 23 25 27 29 30 29 29 27 24 26 29 30 30 34 35 36 37 36
29 29 28 27 27 26 24 22 20 18 17 15 11 9 10 10 11 11 12 13 14 15 16 16 19 22 24 23 23 23 24 26 28 25 29 31 32 33 35 36 41 40 42
31 29 28 25 27 28 25 24 23 21 20 19 18 15 13 13 14 15 17 17 17 18 19 19 20 20 20 21 23 24 26 28 29 30 26 30 30 34 35 37 38 42 45
31 28 29 28 27 28 26 25 25 24 24 23 23 22 21 20 20 20 20 19 18 20 21 21 23 24 26 28 30 29 29 32 33 34 31 30 34 31 38 36 40 43 45
33 35 30 29 30 29 29 27 26 26 26 26 26 27 26 25 26 27 27 27 26 25 24 23 24 25 26 28 29 29 34 35 36 37 38 39 37 38 39 40 46 45 48
37 35 29 35 34 35 32 30 28 27 29 28 28 29 30 30 30 31 32 33 32 31 30 30 30 31 32 35 36 37 39 40 40 42 42 43 40 42 43 44 44 44 46
36 34 27 30 30 30 29 31 32 30 29 30 31 32 32 31 32 32 33 35 36 37 36 35 35 35 37 39 41 42 45 47 48 48 50 50 51 50 51 50 49 49 49
39 36 29 24 21 24 25 25 27 31 33 31 31 33 33 32 32 35 36 37 36 35 36 36 36 36 38 41 43 45 47 51 53 54 55 55 56 57 58 58 56 56 57
38 29 26 29 28 29 28 27 28 29 31 31 31 34 35 37 40 42 45 46 44 46 44 46 49 49 48 49 50 51 53 57 58 55 55 61 63 62 64 66 66 65 64
34 30 34 33 33 33 33 35 33 33 35 36 38 40 43 44 43 46 48 51 51 51 52 55 56 56 54 54 56 58 58 63 62 54 60 69 69 65 62 73 75 69 77
42 41 42 40 39 38 37 39 40 40 42 43 43 43 45 48 50 50 48 50 51 52 52 53 56 52 51 54 57 58 58 61 60 62 68 69 67 66 74 72 73 78 75
48 51 47 42 43 39 35 34 34 38 41 44 48 49 50 50 51 50 48 46 48 51 53 55 55 58 56 56 56 56 60 63 68 71 70 74 70 72 76 76 76 76 76
27 27 28 34 45 49 43 40 39 39 40 43 48 48 47 50 49 49 50 48 45 44 44 46 47 49 49 50 52 53 56 57 59 62 64 67 67 74 80 78 77 80 80
31 31 32 35 36 36 38 38 41 43 44 45 43 43 43 43 42 42 42 43 43 43 44 45 47 48 51 53 55 57 59 61 62 63 65 66 68 70 73 74 74 74 75
35 36 37 37 39 41 40 41 40 39 39 39 39 41 42 42 43 44 45 47 48 49 51 52 54 56 58 59 60 62 64 66 67 69 70 71 71 71 72 73 73 74 74
35 32 32 31 33 35 35 36 36 37 38 39 40 42 42 44 46 48 49 51 52 54 56 58 60 61 63 65 67 69 72 74 75 77 78 78 78 77 76 73 69 69 70
32 31 31 31 32 33 35 36 38 41 43 45 46 47 49 50 51 52 53 55 57 59 61 63 66 68 71 73 75 78 80 82 84 84 82 78 75 73 70 66 64 62 62
31 32 33 35 36 37 38 40 43 45 47 50 51 53 54 55 56 58 59 62 65 66 68 70 71 73 75 77 79 77 69 64 58 58 56 56 56 55 55 55 54 54 56
40 40 40 42 43 44 46 48 49 51 52 54 55 55 57 58 59 61 63 65 67 68 70 71 72 70 68 63 58 53 50 53 55 53 55 54 53 53 54 55 56 57 58
45 46 47 49 50 51 53 54 55 56 56 56 57 58 59 61 62 64 67 68 66 63 61 57 54 52 51 49 50 53 51 57 57 56 55 56 55 55 55 56 57 58 58
51 51 52 53 54 55 55 56 57 57 58 59 60 61 62 63 63 61 59 58 56 55 56 54 52 51 48 49 52 54 52 53 54 55 57 58 57 57 57 56 56 57 58
53 54 55 56 57 57 58 59 60 60 60 59 59 59 58 57 56 57 57 56 57 57 56 57 56 55 54 53 52 53 54 55 56 57 57 57 57 57 57 58 58 60 61
56 56 57 58 60 60 61 61 60 59 59 59 59 59 59 59 59 59 59 59 57 55 55 56 57 58 58 58 58 58 58 58 58 58 58 58 58 58 59 60 61 62 64
60 61 60 59 58 57 56 56 56 56 55 54 54 54 55 57 58 59 58 57 56 54 54 54 55 55 56 57 57 57 57 58 59 60 60 60 61 62 63 63 64 64 62
56 56 55 54 54 54 55 55 56 57 58 57 57 57 57 57 56 55 55 55 55 55 56 55 55 56 57 57 58 58 59 60 60 61 62 63 63 62 61 60 57 54 52
58 58 58 57 57 57 58 58 57 57 56 57 56 55 55 55 55 55 55 55 55 55 55 56 56 56 56 57 58 59 60 61 62 61 60 58 57 55 53 51 49 46 45

GFSGL_500_spd_102.txt.gz
Wind_Speed
33 37 34 29 31 30 29 23 20 17 14 10 11 11 10 8 9 10 11 12 11 15 16 16 27 30 26 29 29 28 30 30 30 32 31 31 29 28 28 29 30 31 34
36 39 35 29 31 31 31 27 22 20 17 16 12 12 13 13 12 11 11 11 11 12 13 15 17 21 24 26 26 24 24 25 26 22 26 27 28 28 27 30 30 33 35
40 37 32 30 31 28 29 30 28 24 22 20 18 16 14 13 13 14 13 12 12 12 13 15 17 17 19 20 21 22 25 25 27 25 22 28 28 26 30 31 32 34 34
39 37 36 33 32 31 29 29 31 28 26 25 23 21 20 18 17 17 16 15 16 16 15 16 18 20 23 26 27 28 28 28 31 32 26 27 32 30 34 33 37 38 39
39 39 34 32 34 33 32 31 31 30 30 29 26 25 23 23 24 22 21 21 21 21 20 21 22 22 23 25 26 27 28 29 32 31 30 29 32 32 36 37 41 40 41
40 41 39 38 36 37 39 37 32 31 30 30 29 27 27 27 26 25 25 25 25 26 26 26 27 28 30 30 30 30 32 33 34 37 38 39 38 41 43 45 45 46 46
44 44 43 40 37 39 32 36 39 36 33 30 29 28 30 28 26 28 28 28 28 27 28 28 29 31 33 34 33 35 36 35 37 40 41 43 45 47 48 50 52 54 54
48 45 44 39 39 37 30 38 25 27 29 33 33 32 31 29 29 29 30 31 31 33 35 36 36 36 37 38 36 38 39 41 45 47 48 50 49 52 53 54 52 55 54
48 46 44 43 41 43 33 32 32 30 28 28 27 29 31 30 31 31 33 35 36 38 39 41 43 45 47 48 46 49 51 46 51 47 41 52 59 56 56 62 59 63 64
54 52 49 48 52 49 35 30 31 32 32 30 28 29 30 32 34 36 38 40 42 44 43 44 45 45 48 51 54 58 58 56 58 60 66 60 60 57 63 63 69 65 72
50 54 61 55 41 37 35 37 39 37 34 36 37 37 36 38 41 43 45 46 47 47 47 48 48 48 48 42 53 50 51 51 51 54 50 59 56 61 61 66 67 74 76
57 61 49 45 54 48 47 43 43 42 40 41 44 44 44 45 45 46 46 46 48 50 53 53 53 52 53 53 52 51 51 57 54 56 59 60 61 67 69 68 68 69 69
31 38 45 55 57 56 49 49 46 46 43 41 41 40 43 43 43 45 48 51 51 51 52 51 49 50 49 50 50 51 52 54 55 57 58 61 63 65 67 69 70 72 73
28 26 30 29 32 32 33 33 40 42 45 47 45 45 43 44 47 49 50 48 47 46 46 47 47 48 48 50 51 52 54 56 58 61 63 65 68 70 72 74 76 77 79
27 29 29 31 31 32 33 34 36 39 39 41 43 44 44 44 45 46 46 46 46 47 48 48 50 51 53 54 56 58 60 62 64 66 68 71 73 76 78 80 81 83 85
25 27 29 30 30 31 32 32 35 37 39 40 40 41 41 42 43 44 46 48 49 51 53 55 56 57 58 59 61 63 65 68 70 72 74 75 77 79 81 83 85 83 79
27 29 31 32 33 34 35 35 36 36 38 39 39 40 42 43 45 47 50 52 54 56 57 58 59 60 62 64 67 68 70 71 71 74 76 78 79 79 75 68 62 57 57
31 32 33 34 35 35 36 37 37 38 39 40 42 43 46 48 49 51 52 54 57 58 59 61 62 64 65 66 67 69 71 73 73 71 69 66 63 59 58 54 55 56 58
37 38 39 40 40 41 42 43 44 45 46 47 50 51 53 54 55 57 57 58 59 59 60 61 62 65 67 68 68 67 65 63 61 58 56 55 55 53 51 52 54 57 57
42 43 44 45 47 48 49 49 50 52 54 55 57 57 58 60 60 59 60 60 60 62 63 63 64 65 65 64 62 61 61 60 58 57 55 54 55 56 55 56 58 59 61
49 51 52 52 53 54 55 57 58 58 58 59 60 60 60 60 60 60 61 62 63 64 63 63 61 61 60 59 59 58 58 59 60 60 60 59 59 58 59 58 59 60 60
57 58 59 59 60 61 61 61 61 61 61 62 62 62 63 64 64 64 63 63 64 64 64 62 62 62 61 60 59 58 57 58 58 60 61 61 61 62 61 61 60 61 61
59 59 60 61 61 62 62 63 64 64 64 65 66 67 68 68 66 64 62 61 61 60 59 58 59 59 60 59 59 58 57 58 58 59 59 59 59 60 60 61 61 61 61
63 63 63 63 63 63 63 64 65 66 67 66 65 64 63 62 61 60 60 61 61 62 61 60 60 60 59 59 59 59 59 59 60 59 59 60 60 60 60 61 62 62 62
59 60 61 62 63 64 64 63 63 63 63 63 62 62 62 62 62 62 62 61 61 61 61 60 60 58 58 58 58 58 58 57 57 58 59 60 61 62 63 62 61 59 56
60 61 61 61 62 63 64 64 64 64 64 64 64 64 64 64 63 62 61 61 59 59 58 57 57 56 56 56 56 56 56 57 59 60 61 61 59 57 55 53 51 50 49

GFSGL_500_spd_105.txt.gz
Wind_Speed
40 41 46 41 30 26 23 25 26 26 24 21 14 14 13 11 10 10 9 10 9 10 15 18 19 25 32 30 32 35 35 34 34 28 27 29 31 31 30 29 29 26 27
41 48 49 32 29 27 23 25 26 28 24 24 21 15 13 14 14 14 12 11 9 10 11 14 18 19 16 19 22 20 22 24 25 22 25 24 24 24 25 27 25 27 27
50 51 41 32 29 26 26 25 26 29 29 26 25 22 18 15 14 14 14 14 14 14 13 14 14 14 15 17 19 20 22 25 24 23 21 25 28 27 27 27 28 31 32
53 51 37 34 34 28 29 26 25 28 30 30 29 27 25 23 21 19 17 15 13 13 14 15 15 18 19 20 21 23 25 27 29 27 25 28 30 28 31 28 31 32 33
54 47 38 40 38 32 29 30 30 30 30 32 32 30 29 28 26 23 21 20 19 18 18 19 19 19 20 21 22 25 26 27 28 29 27 30 28 31 34 36 37 34 37
51 42 43 44 40 36 35 34 34 34 34 34 34 34 33 31 28 26 24 24 24 24 25 26 25 25 26 27 27 28 30 30 32 34 34 32 31 34 36 38 39 40 42
51 41 47 44 40 37 37 36 37 36 35 42 40 36 35 31 29 28 28 28 28 29 30 30 29 29 28 28 29 32 33 36 38 39 39 37 37 37 40 44 43 44 46
45 46 43 42 42 42 42 40 42 39 39 44 49 42 37 33 33 33 33 33 33 34 33 31 31 32 33 34 35 37 38 41 41 41 44 45 45 47 48 49 48 50 48
47 45 46 48 47 45 44 45 41 38 38 35 31 40 37 36 37 37 36 36 36 36 36 35 34 35 38 39 40 38 41 43 46 49 51 55 56 57 51 53 55 55 52
44 61 54 57 52 50 48 45 40 40 49 36 35 33 33 33 35 36 37 38 37 35 36 37 39 40 40 40 41 41 45 47 45 46 48 49 49 54 59 59 57 58 58
51 43 66 54 52 53 50 50 46 44 34 35 38 39 38 38 35 32 35 38 40 39 40 42 44 44 47 47 45 43 49 52 50 43 52 56 52 54 56 64 62 63 65
55 64 65 59 62 59 56 56 57 45 43 49 43 46 40 45 47 45 46 46 47 47 48 48 50 51 51 52 51 52 53 55 57 57 58 56 55 57 61 62 61 63 65
38 42 42 50 53 59 64 55 63 52 52 54 54 54 55 52 51 49 50 51 49 48 50 51 51 52 52 53 54 54 53 54 54 55 57 58 60 61 62 64 66 68 70
23 23 24 33 35 44 50 59 64 60 59 63 62 62 63 62 51 46 45 46 49 49 50 50 52 53 53 54 54 55 55 56 57 58 60 61 63 65 66 69 71 73 75
24 24 25 28 27 27 27 30 32 34 37 41 42 47 48 46 47 48 49 47 46 47 49 50 50 51 52 53 54 55 56 58 59 61 63 65 67 69 72 74 75 77 78
30 29 28 29 28 30 29 30 32 33 36 37 39 41 44 46 46 46 46 48 48 48 49 51 52 52 53 55 58 60 61 64 66 67 69 71 73 74 74 74 76 78 79
34 33 33 32 32 33 33 33 34 35 37 38 39 41 43 44 45 46 47 47 48 49 51 52 53 54 56 58 61 62 65 67 69 71 72 73 74 74 75 76 77 76 72
35 35 35 34 34 35 36 37 39 40 40 41 41 42 43 44 45 46 47 47 48 50 53 56 58 60 61 63 65 67 68 70 70 71 72 73 73 72 72 71 70 67 63
37 39 40 41 40 41 41 42 43 44 44 45 45 46 46 47 49 50 52 53 56 57 59 61 63 65 67 68 68 69 68 69 70 72 74 72 70 68 67 66 65 64 64
43 42 42 45 45 46 46 47 47 49 50 52 53 53 55 56 57 58 61 63 64 65 66 67 68 68 68 68 69 69 71 72 73 72 71 68 67 66 64 64 64 65 66
52 51 51 51 52 53 54 55 55 57 57 58 59 60 61 62 63 65 67 67 68 68 68 68 68 69 70 71 72 73 73 72 71 69 69 68 65 65 63 63 63 63 64
61 61 61 61 61 61 61 62 62 63 63 64 65 66 66 68 68 68 68 68 68 69 69 71 72 73 74 73 72 71 69 68 67 66 65 65 64 64 64 65 64 64 65
64 65 65 66 66 66 66 65 66 66 66 67 67 68 68 68 68 69 70 70 71 72 73 73 72 71 70 69 68 68 67 67 66 66 65 64 64 65 65 65 65 64 64
63 64 66 67 68 69 69 68 68 68 68 68 68 68 69 69 70 71 72 73 73 72 71 70 70 69 69 69 69 68 67 67 66 65 64 63 63 63 63 63 63 64 64
65 65 65 65 65 65 65 65 65 65 66 66 67 67 68 68 69 69 70 70 70 70 70 71 70 70 69 69 68 66 65 64 63 62 62 62 62 62 63 63 64 64 62
64 65 66 67 68 68 68 68 68 68 69 69 70 70 70 70 71 70 70 70 70 70 69 68 67 66 65 65 64 63 62 61 61 61 60 61 62 63 61 58 55 53 52

GFSGL_500_spd_108.txt.gz
Wind_Speed
42 34 36 35 36 34 32 36 27 26 24 26 26 22 20 18 13 13 13 12 12 13 11 25 24 25 28 25 26 30 27 30 34 33 32 32 27 24 25 27 25 25 23
32 35 36 35 37 36 38 41 22 25 25 25 26 23 22 20 17 15 14 14 12 12 11 11 13 15 15 15 17 29 34 34 25 19 20 21 22 21 23 23 23 25 23
32 34 37 37 39 41 44 34 22 24 25 27 27 24 24 24 20 16 16 16 16 16 14 14 14 14 15 17 18 17 21 23 23 20 20 22 22 22 24 23 26 27 28
35 35 36 40 43 47 45 30 27 26 25 29 30 29 27 26 26 22 18 17 17 18 18 18 18 19 19 19 20 21 21 22 22 22 23 26 27 28 29 28 29 30 30
36 38 40 43 47 48 41 30 26 27 27 28 29 32 32 30 29 27 24 22 22 22 22 21 22 22 21 22 22 23 23 24 26 26 26 26 27 29 30 32 33 31 32
40 42 45 49 51 51 41 36 38 36 32 33 31 30 32 31 31 31 31 31 31 31 30 29 28 27 27 27 28 28 30 31 31 31 31 30 30 32 34 35 36 35 35
46 46 43 45 51 47 40 39 41 39 38 36 34 30 30 32 34 35 36 37 37 36 34 33 32 30 30 30 31 31 32 31 31 32 32 34 33 35 38 37 37 39 43
47 48 48 48 46 50 43 43 42 38 42 40 37 34 34 41 41 39 41 41 39 38 36 36 35 34 34 34 34 33 33 34 35 36 36 35 37 40 43 45 44 44 48
45 51 49 49 50 45 41 46 44 40 46 44 40 41 40 42 45 45 44 42 41 40 39 39 37 38 37 36 38 36 35 37 37 37 37 39 41 45 46 49 52 52 54
48 51 50 53 56 46 44 44 44 42 44 46 45 44 40 41 45 47 47 42 42 43 42 41 40 38 36 36 37 39 42 42 39 35 41 45 48 47 47 47 47 53 56
50 45 48 49 56 44 46 58 52 48 56 49 48 50 47 46 35 36 39 39 40 40 42 42 43 40 34 38 37 40 39 42 46 45 50 47 51 55 54 52 55 59 66
37 58 57 70 59 50 73 59 56 60 58 57 53 48 49 38 39 44 39 49 47 41 42 46 38 39 42 44 45 50 50 52 53 52 52 53 55 55 56 56 57 59 61
23 31 40 51 49 56 54 52 55 61 55 59 60 54 53 59 54 56 58 49 53 56 52 53 53 50 51 53 53 53 54 53 53 53 54 54 55 56 57 58 60 62 64
20 19 23 29 33 45 49 62 66 61 65 67 70 74 67 59 56 58 62 60 65 58 55 60 59 57 53 51 54 54 55 54 54 53 55 56 57 58 60 63 65 66 68
31 30 29 26 25 27 31 30 36 35 39 50 49 58 63 70 70 72 64 59 58 52 56 60 54 48 52 53 54 54 54 54 54 55 56 58 60 62 63 66 68 69 72
32 31 32 33 34 35 33 31 31 30 28 29 30 31 32 32 35 39 41 42 43 46 49 49 50 51 52 53 54 55 56 57 58 59 60 61 63 65 67 69 71 73 74
35 33 33 33 33 35 36 34 33 34 34 34 33 32 34 36 37 38 41 43 46 49 50 48 48 50 53 54 55 55 56 56 59 61 63 65 67 69 72 73 74 75 76
32 35 36 36 36 37 38 38 37 37 38 37 37 37 38 39 41 42 44 45 48 49 50 51 52 53 54 55 56 58 59 61 64 67 69 72 73 74 75 75 76 77 78
38 37 37 39 39 39 41 43 43 43 44 43 43 43 44 44 45 46 48 50 51 51 53 54 55 57 58 60 62 65 67 68 70 73 74 75 75 75 76 77 78 79 80
46 46 46 46 45 45 46 46 46 47 49 50 50 51 51 51 52 53 54 55 57 58 59 61 63 65 66 68 69 70 72 73 75 75 75 76 77 78 79 79 78 76 75
57 57 57 57 56 55 55 54 54 54 55 55 55 56 57 58 58 60 62 63 63 64 66 67 69 70 72 73 74 74 74 75 75 76 77 79 79 77 75 74 73 71 71
62 62 63 63 63 64 64 64 63 63 63 64 64 64 64 65 66 67 67 68 69 70 71 72 72 73 74 74 75 75 75 76 77 78 77 75 74 72 71 73 74 73 72
64 63 62 62 63 64 65 67 67 68 68 68 69 69 70 71 71 72 72 73 74 74 75 75 75 75 76 76 77 76 76 76 75 73 73 72 72 72 73 72 71 72 71
68 69 69 69 68 67 67 67 67 67 67 68 69 70 70 71 72 73 73 73 73 73 74 74 73 73 73 73 72 72 73 72 72 72 72 72 72 71 71 70 69 68 67
65 64 65 67 68 70 71 71 71 70 69 68 68 67 67 67 67 68 68 69 69 69 70 70 71 71 71 72 72 72 72 72 71 70 69 69 68 67 67 67 66 66 67
65 65 65 65 66 67 69 70 71 72 72 72 71 71 71 70 70 71 71 71 72 72 71 72 72 71 71 71 70 69 68 67 67 66 65 64 64 63 63 63 64 65 62

GFSGL_500_spd_111.txt.gz
Wind_Speed
44 44 40 37 39 41 39 40 35 29 26 31 29 27 26 24 24 20 20 20 20 20 20 21 24 30 27 28 31 29 27 27 29 31 29 30 30 33 32 29 27 26 27
40 39 36 34 38 40 41 40 31 31 30 31 30 28 27 24 25 22 21 19 17 15 16 17 16 25 26 26 29 30 27 26 29 29 29 29 27 25 25 26 26 24 22
33 34 35 36 38 39 41 37 32 34 34 31 29 28 27 26 26 25 22 22 21 17 16 16 15 16 16 18 21 23 20 24 28 31 27 23 26 25 24 24 24 24 26
31 30 32 34 35 39 38 36 38 39 37 35 28 27 29 28 26 26 25 23 23 22 20 19 20 20 20 20 20 20 21 23 22 24 25 28 27 26 26 28 29 31 29
28 30 31 29 33 40 38 39 41 40 39 39 32 27 30 32 30 29 28 27 26 24 22 23 22 22 22 22 23 25 25 26 26 27 28 30 31 32 31 31 29 31 32
31 32 32 32 35 40 38 39 43 40 40 41 37 32 28 28 30 32 33 32 32 31 30 29 29 27 27 26 27 28 29 28 29 29 31 30 32 32 33 34 35 35 35
33 34 36 37 39 40 38 41 42 41 38 39 42 35 31 32 32 31 33 35 34 36 37 36 35 34 34 34 35 34 35 35 35 35 35 35 36 36 37 38 38 38 38
35 35 39 41 43 41 40 40 41 44 44 43 41 38 39 37 36 35 33 37 33 41 43 42 40 40 40 40 40 39 39 39 37 36 35 35 35 36 38 39 40 39 41
37 38 41 43 46 44 41 40 42 45 43 46 42 40 39 44 41 41 39 35 36 41 47 46 44 44 43 43 43 42 41 40 40 39 38 38 38 38 40 38 43 45 45
36 35 41 40 41 42 46 44 48 42 43 40 46 45 43 50 46 47 42 40 40 43 46 49 47 46 45 45 44 44 44 42 43 42 41 42 43 38 40 39 43 50 51
20 32 40 42 54 46 53 55 47 51 51 47 48 44 43 46 49 52 48 50 54 52 51 50 48 46 45 44 46 47 41 39 39 44 38 42 42 40 44 49 53 52 56
22 21 25 34 54 49 64 51 60 71 59 54 57 57 50 49 51 47 48 51 49 53 48 43 50 48 42 42 51 45 44 43 48 48 43 46 51 56 55 55 56 55 56
20 21 22 26 30 39 50 60 66 55 55 53 58 68 67 60 61 61 59 61 57 55 48 47 50 49 52 60 60 58 53 55 56 55 58 60 54 53 54 55 56 57 57
24 28 27 25 20 20 27 30 36 45 48 57 58 64 66 61 59 55 58 59 57 54 59 60 63 66 63 61 60 59 58 56 57 56 53 53 54 55 56 57 58 59 61
30 29 30 33 34 33 28 25 28 28 23 33 38 48 48 52 57 60 62 57 59 62 63 75 71 66 69 67 74 76 60 49 47 45 50 52 54 57 58 58 60 62 64
33 33 33 34 32 32 34 36 37 35 33 31 28 29 33 32 31 38 46 54 58 65 58 60 58 54 52 48 46 49 51 49 48 48 50 53 56 59 61 61 62 65 67
32 32 31 32 35 35 37 35 34 34 35 37 40 40 38 36 35 34 36 36 35 37 37 39 41 42 44 45 46 44 45 47 49 52 55 58 60 61 64 65 67 69 71
35 37 36 35 33 34 35 38 40 40 40 39 39 38 39 38 39 40 39 38 39 40 42 42 42 43 44 44 45 46 49 52 55 57 59 61 63 65 68 71 73 75 75
41 41 40 41 40 39 39 39 40 41 42 43 44 45 44 43 44 43 44 45 44 44 45 46 47 49 49 50 52 54 56 58 61 63 65 68 70 73 76 76 77 79 81
47 46 48 49 50 50 49 49 49 48 47 48 48 49 49 50 51 52 52 51 52 52 52 54 54 55 56 57 59 61 63 66 69 71 73 75 77 79 80 81 83 84 83
57 56 57 57 57 57 58 59 60 59 59 59 57 56 56 56 57 57 57 58 59 60 60 60 61 62 64 65 67 69 71 73 75 76 77 79 80 81 82 83 83 83 83
64 63 60 60 61 63 64 65 65 66 66 66 66 66 66 66 66 65 65 65 66 66 66 67 68 69 71 72 72 73 75 77 78 79 80 82 82 82 81 81 80 80 78
71 71 72 69 66 65 64 65 66 67 67 67 66 66 67 68 68 69 70 70 70 70 71 72 73 74 75 75 76 76 78 78 79 79 78 78 78 77 76 76 77 78 78
72 72 73 73 72 67 64 64 65 68 70 70 69 68 68 67 67 68 69 69 70 71 71 71 71 72 73 73 74 73 74 74 74 74 73 75 76 77 78 79 78 77 75
65 65 66 68 68 69 67 65 62 62 62 64 66 68 69 69 70 70 69 69 70 71 71 71 70 71 71 72 72 73 74 73 73 74 76 77 77 77 76 74 72 69 67
54 55 56 57 59 61 62 63 64 63 63 62 62 64 66 67 69 70 70 70 70 70 70 70 71 71 71 72 72 73 72 73 74 74 72 71 69 68 66 64 63 63 62

GFSGL_500_spd_114.txt.gz
Wind_Speed
40 44 46 47 40 41 46 43 38 40 39 39 36 37 31 30 29 28 27 22 20 23 22 21 21 22 25 23 19 23 24 26 24 24 24 24 25 28 31 30 29 32 33
40 44 45 46 43 43 43 42 39 39 42 38 38 38 34 30 31 30 28 24 19 22 22 24 26 25 23 28 30 27 27 31 31 30 29 32 31 30 33 35 34 34 33
41 43 43 42 43 39 38 39 39 42 47 38 42 38 36 33 32 31 30 27 20 24 22 23 21 20 19 24 29 31 30 32 35 37 33 33 36 33 34 35 31 29 28
38 39 39 37 37 38 36 36 37 42 49 36 43 41 38 33 34 33 31 30 25 24 25 25 24 22 20 19 21 24 26 29 29 28 31 34 35 33 32 30 27 33 34
36 37 37 39 37 36 34 32 33 42 41 36 44 44 40 37 34 35 34 33 29 26 26 27 26 27 25 24 23 24 25 26 27 29 28 28 29 30 33 35 35 34 35
29 30 33 35 36 36 35 32 34 39 40 42 46 46 44 39 35 36 37 36 34 30 30 30 29 29 28 28 28 28 28 29 30 31 31 31 33 35 36 37 37 38 38
28 29 30 32 35 35 36 34 38 40 40 43 43 47 47 45 38 37 38 39 37 35 34 35 35 35 34 34 33 33 33 33 33 33 32 33 35 36 38 39 39 40 40
19 27 27 32 34 36 35 35 36 38 38 38 43 45 42 42 42 39 39 39 37 36 38 39 37 39 40 42 41 40 40 39 39 38 38 39 39 41 42 41 41 41 41
16 25 34 31 31 36 33 38 43 44 41 53 38 43 34 40 48 41 45 41 42 41 38 35 41 37 39 45 47 47 46 44 43 43 43 43 43 43 43 44 44 44 45
15 24 22 34 36 43 52 37 39 42 44 37 38 35 35 38 42 44 42 45 46 45 46 42 38 36 38 43 47 52 51 49 47 46 45 46 47 46 46 48 48 48 47
18 20 17 25 37 36 39 36 39 41 43 47 46 41 44 43 41 43 47 48 50 54 51 50 47 46 45 50 52 51 54 51 48 47 46 46 48 45 47 44 49 47 49
17 15 16 20 25 36 42 41 44 49 51 50 61 57 53 51 43 48 50 49 57 55 62 55 51 50 52 55 59 53 55 52 49 51 48 47 53 49 54 47 53 52 52
19 19 18 20 21 26 31 33 49 58 54 59 57 55 55 58 59 56 60 59 58 60 55 57 54 58 61 58 54 52 53 52 51 58 55 56 57 58 64 60 58 56 60
25 23 23 24 24 24 25 27 30 29 34 43 44 47 54 57 59 59 63 67 61 62 63 70 71 71 61 62 58 55 60 62 64 70 71 66 63 64 71 70 69 69 65
29 29 28 28 27 29 28 32 36 34 28 24 23 32 39 45 52 55 58 64 66 68 67 68 68 68 66 65 63 63 66 71 73 70 70 72 74 75 76 74 70 62 53
29 30 33 35 34 33 35 35 35 37 39 44 42 37 30 28 27 33 39 47 52 54 56 62 66 71 67 69 71 72 71 82 80 80 84 83 73 67 66 68 67 58 56
35 35 33 35 36 36 36 37 37 38 38 37 38 40 44 45 45 41 36 35 34 35 41 47 53 54 57 56 55 56 60 61 60 57 56 57 60 58 53 52 52 54 58
39 39 41 40 40 41 41 40 40 40 40 41 40 40 42 41 41 42 44 46 47 43 43 41 41 43 45 47 47 47 47 48 48 49 49 49 49 51 53 55 57 59 63
47 47 47 48 49 50 49 48 47 46 45 45 46 45 44 44 44 44 44 45 46 45 45 45 46 46 47 47 48 48 50 51 52 53 54 55 56 58 60 62 65 68 70
57 58 58 56 56 56 56 56 55 55 54 54 53 53 52 51 50 49 50 51 51 51 52 51 51 52 51 52 54 55 55 55 57 58 59 60 62 64 66 67 70 73 75
60 61 62 62 62 61 61 63 64 64 63 63 61 60 60 61 62 60 59 58 58 57 58 58 58 58 59 59 59 60 61 62 63 64 65 66 68 69 70 72 74 75 76
65 66 67 68 68 68 66 65 66 67 67 67 68 68 68 68 66 67 68 67 66 66 67 67 66 65 66 66 66 66 67 68 69 69 69 71 72 74 75 75 76 78 78
74 73 72 72 72 72 72 71 69 70 71 71 70 70 70 70 69 69 69 69 69 70 70 71 71 71 72 73 74 73 73 73 73 74 75 76 76 77 78 78 78 77 77
67 66 66 65 65 65 66 67 66 64 63 65 67 68 69 70 72 72 72 72 71 70 70 71 71 71 72 71 71 72 72 72 73 74 75 75 75 76 75 75 75 75 76
51 52 53 55 56 57 58 60 61 61 61 60 61 64 66 68 69 70 70 71 71 71 70 71 72 72 72 72 72 72 72 71 71 72 72 73 73 74 74 75 75 75 75
41 41 40 41 42 43 45 46 48 49 50 51 52 54 58 63 66 67 69 69 69 68 67 68 68 67 68 69 69 70 70 70 70 72 73 72 72 72 71 71 70 70 69

GFSGL_500_spd_117.txt.gz
Wind_Speed
47 48 48 48 47 44 40 44 45 46 46 47 44 40 39 41 40 40 37 34 30 30 27 25 23 21 20 23 21 18 25 28 28 27 28 27 23 26 24 24 24 27 29
44 45 45 46 46 42 39 45 46 46 45 48 46 42 42 42 40 41 38 36 31 31 28 26 23 22 24 23 24 25 19 21 22 28 25 24 24 25 26 27 29 33 33
44 48 49 52 53 49 45 45 44 41 43 46 47 46 45 45 42 41 41 37 34 32 30 28 24 21 22 24 27 28 28 30 26 27 29 31 32 32 32 33 34 36 37
42 42 43 43 42 43 40 39 38 40 40 42 45 49 51 46 43 44 41 39 35 34 32 31 27 23 24 24 24 23 27 31 33 33 35 33 37 40 39 38 37 38 36
40 39 41 43 43 41 39 37 36 37 38 37 36 42 53 52 39 45 42 42 38 37 36 33 30 25 26 27 26 25 24 27 30 35 35 34 33 36 38 37 38 37 37
37 37 37 39 41 41 41 41 38 36 36 35 36 43 39 42 40 47 46 44 41 40 39 36 35 30 27 28 29 29 29 29 28 29 31 31 31 33 35 35 35 36 39
31 34 34 36 37 39 42 42 40 37 37 39 38 42 33 29 43 48 49 45 42 42 42 41 38 36 34 34 32 31 31 31 31 31 32 33 34 35 35 35 36 38 40
26 31 31 34 34 35 35 37 39 37 37 41 41 38 44 40 45 48 49 48 48 43 42 45 44 42 40 39 38 36 37 38 38 38 37 37 36 37 37 38 39 40 41
22 25 28 29 34 35 34 36 39 38 38 38 40 43 36 40 47 47 49 51 49 47 45 44 43 44 45 44 41 40 42 43 45 46 45 44 43 43 43 43 44 46 47
20 21 22 20 24 30 33 33 37 43 38 49 51 48 47 40 42 44 47 50 45 45 43 47 45 43 42 44 46 43 41 40 39 48 51 49 48 48 48 47 48 50 51
17 17 19 22 20 24 28 34 36 43 47 40 44 40 42 44 46 45 42 40 39 41 46 43 49 51 48 48 51 51 48 46 48 48 48 51 52 52 51 49 51 52 52
19 19 19 17 16 22 25 30 43 42 37 48 50 42 41 42 50 51 51 46 45 46 52 53 49 52 54 55 55 57 62 54 49 50 52 57 54 54 52 51 54 53 51
26 26 24 22 22 22 23 25 26 27 40 53 47 42 45 50 51 60 50 58 52 54 53 54 54 48 55 57 56 60 68 62 56 56 58 62 60 53 55 56 56 56 61
30 31 31 31 29 28 28 29 28 26 28 31 33 37 41 44 48 48 54 55 53 59 56 59 59 58 60 62 64 66 62 63 65 64 67 66 65 57 64 64 68 69 71
33 34 34 36 35 34 33 33 34 34 33 33 32 34 33 34 33 33 37 46 55 58 64 63 62 66 66 72 73 70 66 70 69 70 70 70 69 69 70 70 72 78 77
34 35 36 37 38 39 39 39 38 38 40 41 41 39 37 35 39 40 39 34 33 42 51 57 62 63 63 65 69 68 71 70 68 69 68 70 70 71 72 75 77 76 78
41 42 41 42 42 41 42 42 42 43 42 41 42 41 40 39 40 40 41 45 48 45 40 36 38 44 50 55 58 59 60 62 65 67 69 67 67 68 75 78 76 73 71
47 48 47 47 47 48 48 48 50 49 48 46 45 45 44 44 43 43 42 42 43 47 50 50 48 43 42 42 42 44 48 54 59 62 62 63 66 65 65 67 66 66 65
54 55 56 57 57 57 56 55 55 54 56 56 55 53 52 51 50 48 48 48 48 47 47 48 49 49 48 48 48 47 48 50 51 52 53 54 54 54 54 55 56 57 59
60 61 60 61 61 62 63 63 63 63 62 61 61 61 60 59 58 56 57 55 54 53 52 51 50 51 52 51 52 52 51 51 51 53 53 54 56 56 56 57 59 60 62
65 67 68 68 67 67 67 68 67 67 66 66 66 66 67 67 66 66 65 63 63 63 63 62 60 59 58 58 57 57 57 57 57 57 57 58 59 60 61 62 63 65 66
71 70 70 70 73 75 75 75 75 74 73 72 71 70 70 70 70 70 69 69 69 69 68 68 68 67 66 66 67 65 65 65 64 64 64 64 64 65 66 67 67 68 69
62 60 59 59 61 63 66 67 69 70 71 73 74 73 73 73 73 73 73 73 72 72 71 70 71 71 71 71 71 71 70 70 70 70 69 69 69 69 69 69 70 70 71
57 52 49 47 47 48 50 53 56 60 62 64 65 66 67 67 67 69 70 71 72 72 73 73 73 73 73 73 73 72 71 71 71 71 71 71 70 70 70 71 71 71 72
54 48 45 44 42 41 41 42 43 45 48 51 55 59 61 62 63 65 67 68 69 70 70 71 71 72 72 72 72 72 73 73 73 73 73 72 71 71 71 70 71 72 72
51 46 43 41 40 38 37 37 37 37 38 39 41 43 46 48 50 52 57 61 64 66 67 68 68 68 68 68 68 68 68 69 70 70 71 71 71 70 70 70 69 69 69

GFSGL_500_spd_123.txt.gz
Wind_Speed
39 42 37 41 43 42 47 46 47 47 48 49 49 48 46 47 46 46 46 44 41 41 40 39 38 43 39 35 33 31 29 28 27 30 21 23 30 37 43 44 45 44 40
27 31 33 37 43 43 44 49 48 49 49 50 51 49 49 47 48 46 46 45 43 44 44 45 39 43 41 36 34 31 30 31 29 26 25 25 27 34 34 37 40 39 40
36 37 32 30 32 36 42 47 52 52 50 50 51 50 51 51 49 46 44 44 44 44 46 47 42 43 43 38 35 32 30 30 29 30 29 27 25 25 28 31 34 33 34
27 24 26 26 32 32 36 42 47 46 44 46 48 48 50 50 46 44 45 45 45 42 45 47 47 44 45 40 38 34 33 30 30 29 32 29 26 26 30 29 29 30 28
26 31 33 33 32 31 35 37 39 41 43 46 45 46 47 48 47 47 46 45 43 41 42 43 50 47 48 43 39 36 36 32 32 30 33 33 32 29 28 30 32 33 33
27 27 29 30 34 37 38 38 39 40 39 41 43 48 49 52 52 51 48 44 44 43 44 44 47 51 49 46 40 39 37 37 34 34 35 34 35 36 33 35 35 38 38
21 24 28 30 32 33 36 38 40 41 45 44 43 43 41 36 45 43 43 36 41 44 50 45 45 50 53 48 42 40 38 40 39 36 37 38 36 35 42 38 39 41 37
20 21 21 23 26 31 37 38 41 43 42 43 44 44 45 48 49 45 46 46 42 38 44 38 37 39 46 44 46 42 39 41 41 39 39 39 40 37 37 39 37 37 37
17 19 18 17 17 17 20 27 29 32 37 40 43 44 45 49 49 47 44 52 46 48 49 42 40 37 44 48 47 44 42 41 42 44 43 42 42 41 40 40 39 39 38
15 16 17 16 16 16 16 17 19 20 25 34 38 41 39 40 44 48 51 49 51 52 49 51 44 45 45 47 46 45 45 46 43 45 47 48 47 47 46 46 46 44 43
18 19 19 19 18 18 19 18 18 19 21 21 28 35 37 39 41 44 45 49 44 41 51 48 45 48 48 49 49 53 53 49 50 50 53 50 51 48 48 48 46 46 45
23 25 26 27 29 29 29 29 27 26 26 27 26 26 31 37 44 45 47 50 56 61 50 50 53 46 47 47 50 52 53 51 52 54 47 53 53 52 50 49 48 51 49
28 30 31 34 35 36 39 41 40 37 35 34 33 33 32 32 33 39 46 48 49 50 55 54 56 57 59 53 50 53 52 54 57 54 56 50 49 55 56 54 54 56 56
32 33 36 37 38 39 39 39 41 43 42 40 40 40 38 38 37 36 35 37 40 44 50 55 61 68 60 59 61 67 57 58 60 56 54 51 52 55 56 56 59 60 60
37 38 40 40 42 42 41 43 45 47 48 48 48 46 46 45 45 44 44 42 41 40 43 43 44 45 51 58 60 57 60 61 61 62 57 58 58 54 53 58 59 54 59
35 37 39 40 42 45 48 50 51 52 53 54 55 55 54 53 52 51 50 49 48 47 45 44 44 43 41 43 50 57 59 63 66 65 62 64 66 65 61 66 64 63 62
38 40 42 44 46 47 50 53 57 60 61 61 62 62 61 60 59 58 56 54 53 53 51 49 49 49 48 48 47 48 47 51 54 58 60 66 66 62 64 67 67 68 69
46 48 51 54 56 58 62 65 67 67 68 69 69 69 68 68 67 65 64 60 58 56 56 53 52 53 52 51 51 50 50 50 49 49 49 54 56 57 61 68 73 72 66
52 55 58 60 60 63 67 69 71 72 73 74 74 74 73 74 74 73 72 70 67 64 61 59 59 58 57 55 53 53 53 53 53 53 52 52 51 51 52 52 53 54 55
56 59 61 62 65 68 69 73 76 76 74 73 73 76 76 76 76 77 76 76 74 72 70 67 64 63 63 62 60 58 57 56 56 55 54 54 55 56 56 56 56 56 56
58 61 62 66 67 71 74 74 74 74 72 71 69 68 68 68 68 70 75 77 76 76 74 72 71 70 68 66 65 66 65 63 61 60 59 59 58 57 57 58 59 61 63
62 65 67 70 73 74 74 74 73 72 71 68 64 59 56 56 58 60 63 67 71 74 76 75 74 72 72 71 71 69 69 69 68 67 66 65 65 65 64 64 64 64 63
69 71 73 76 75 76 75 73 70 66 62 57 52 49 48 47 47 49 51 55 61 66 70 72 74 75 74 73 73 72 72 72 72 72 72 72 71 71 70 70 69 69 69
73 75 77 77 77 74 69 64 61 57 52 47 44 42 41 39 40 40 42 44 47 51 58 64 68 71 73 74 75 74 74 74 74 74 74 74 74 74 74 74 73 73 73
77 78 79 77 71 65 61 56 51 47 44 41 39 37 36 35 35 35 35 36 38 41 44 47 53 60 65 67 70 72 73 74 74 74 75 75 75 75 75 75 75 75 74
80 80 76 69 63 58 53 47 43 41 39 37 35 34 33 32 32 32 32 33 34 35 36 38 41 45 49 53 57 62 64 66 67 67 69 70 71 71 72 73 73 73 73

GFSGL_500_spd_126.txt.gz
Wind_Speed
50 55 57 59 57 61 62 65 60 61 62 56 46 46 46 50 48 44 38 43 40 40 41 41 40 40 40 43 43 44 38 39 37 31 29 30 32 31 32 33 43 42 43
43 46 57 54 53 48 47 59 53 50 53 54 48 47 48 49 48 46 45 45 45 42 42 43 43 43 42 46 47 45 41 40 40 34 31 32 30 29 30 32 39 43 44
41 42 39 43 41 40 36 39 43 47 50 50 47 45 48 50 49 49 49 48 47 46 46 45 44 46 46 47 47 46 43 41 41 37 34 31 33 31 30 31 37 39 39
21 27 27 33 26 30 33 31 35 37 35 36 39 44 49 51 53 52 51 50 48 48 49 47 45 48 47 47 46 48 46 43 42 40 36 34 32 33 30 30 31 32 36
16 17 19 21 20 22 25 28 32 33 35 37 42 44 48 52 51 49 48 47 45 47 48 48 48 47 48 48 46 49 50 46 44 42 39 36 33 32 31 34 32 31 33
13 14 18 22 25 27 28 31 32 33 38 42 42 43 46 49 50 50 48 48 49 50 50 52 52 50 50 49 50 48 52 51 46 42 40 39 34 34 34 37 40 32 34
12 15 17 19 21 24 27 31 34 37 40 40 43 44 46 45 48 50 53 52 54 54 53 56 54 51 50 47 54 51 51 55 49 45 41 39 39 36 39 40 38 41 39
10 12 14 18 19 20 21 25 30 36 39 40 44 46 47 48 49 46 47 49 44 37 53 45 49 45 53 51 56 48 50 55 57 45 44 41 41 40 40 41 43 44 46
9 11 11 12 14 16 17 19 20 25 31 35 38 42 47 49 50 52 55 56 63 54 45 53 51 52 51 44 39 45 46 48 51 47 46 42 42 44 43 43 42 42 45
14 15 15 16 17 17 17 18 18 20 21 24 27 30 34 41 45 47 48 50 55 58 54 51 48 50 56 57 49 44 46 45 49 49 48 44 41 42 44 47 47 46 46
16 17 18 21 21 21 22 23 25 26 26 25 25 25 27 30 36 41 43 48 48 51 54 59 59 49 58 55 56 48 48 48 48 51 50 49 48 46 44 44 48 50 51
22 24 25 27 29 30 32 34 35 36 37 37 36 34 33 33 33 33 35 42 46 46 48 51 49 52 43 51 49 51 53 55 48 52 54 57 53 56 54 47 50 54 57
25 27 29 31 33 34 37 39 39 42 43 43 43 42 41 41 41 39 38 38 39 42 48 52 55 63 66 68 59 53 56 51 53 55 53 59 56 55 59 54 55 58 53
34 36 37 39 41 42 44 45 46 47 48 47 48 49 49 47 46 46 45 45 43 43 43 45 50 57 60 62 58 57 59 62 61 62 60 58 61 59 58 60 58 59 50
34 34 35 36 38 40 41 43 45 47 50 52 53 54 54 55 55 54 53 53 52 51 49 49 48 48 50 55 59 63 67 67 72 68 70 69 68 65 62 66 66 61 56
29 33 35 38 41 45 48 50 52 55 57 57 57 57 57 57 58 60 61 60 60 60 59 57 55 55 55 54 53 51 55 64 72 75 72 74 73 71 69 70 65 59 60
34 37 40 41 44 50 53 57 60 61 60 61 63 65 66 66 66 65 64 66 67 66 65 65 64 62 60 59 58 55 56 54 53 52 58 62 66 69 71 72 71 70 68
38 41 43 47 51 55 59 62 63 65 67 69 71 73 74 73 72 70 70 68 67 70 73 72 70 68 66 64 62 61 59 59 58 58 54 50 52 55 57 61 66 67 68
43 47 50 54 58 61 64 65 67 69 71 74 76 78 79 79 80 79 80 80 79 77 73 75 76 74 72 70 68 65 63 62 60 58 59 61 58 53 52 53 56 58 60
49 52 56 60 65 68 69 70 73 76 79 81 82 83 83 83 82 83 83 82 80 78 78 77 77 79 77 75 73 71 69 66 64 62 61 60 60 60 61 61 59 57 56
54 57 62 67 71 72 75 78 81 84 84 82 80 77 75 73 71 70 69 68 68 68 68 71 73 77 80 78 76 74 74 72 70 68 66 64 63 62 61 61 61 62 63
60 65 71 74 76 79 82 85 85 82 77 72 68 64 62 60 58 57 55 52 52 52 54 57 62 67 73 76 76 76 75 75 75 74 72 70 69 68 66 65 65 63 63
68 73 77 80 83 86 88 85 79 72 66 61 58 55 53 50 46 45 44 43 43 43 44 46 49 55 62 67 71 72 73 74 74 75 76 76 75 73 72 71 70 69 69
75 79 82 85 88 89 85 77 69 61 56 53 49 45 42 41 40 39 38 37 37 37 38 39 40 44 48 54 60 65 69 71 72 73 74 74 75 75 76 76 75 74 73
81 83 85 88 88 83 75 67 58 53 49 46 43 40 38 37 35 34 34 33 34 34 34 34 35 36 39 43 47 52 58 63 67 70 71 73 74 74 74 75 75 76 76
83 85 87 87 82 73 65 56 50 47 45 43 40 38 36 35 33 33 32 32 31 32 32 32 33 33 34 35 38 42 46 50 55 60 64 66 69 71 72 73 74 75 75

GFSGL_500_spd_129.txt.gz
Wind_Speed
43 54 59 50 70 46 56 49 46 51 55 57 59 55 53 55 60 58 63 64 62 55 51 38 37 37 41 40 37 36 37 39 41 39 39 37 37 39 37 35 35 35 35
51 45 57 64 63 53 53 59 60 57 60 59 60 56 60 58 59 63 62 66 62 52 45 38 39 44 44 41 39 40 39 41 43 41 42 39 38 39 38 38 36 34 33
24 29 50 60 62 60 61 54 56 55 61 65 65 59 63 65 61 66 68 59 53 48 45 45 44 44 43 42 41 45 44 42 47 46 42 43 40 39 39 37 37 36 35
24 29 31 36 46 55 50 58 60 59 58 64 61 60 63 67 61 63 63 49 47 48 48 46 46 46 46 47 47 47 46 45 49 46 44 44 43 39 40 37 37 37 38
20 22 32 36 36 40 45 49 52 58 41 48 53 51 52 60 65 58 58 50 46 49 50 47 48 49 50 51 50 49 47 47 51 49 45 41 45 43 42 41 39 38 39
25 29 25 32 37 33 19 30 26 27 27 31 37 41 42 41 39 31 47 41 50 49 49 50 51 52 52 52 52 53 51 50 53 50 47 46 46 46 45 44 41 42 40
10 9 14 10 12 14 17 24 27 28 30 32 36 38 41 44 44 44 48 49 50 50 47 53 53 53 53 54 56 57 58 56 53 56 57 52 45 49 49 48 45 43 42
4 3 4 5 8 11 15 19 20 22 25 28 32 36 41 45 46 48 50 50 52 51 53 55 58 60 60 58 59 52 58 55 55 62 59 59 46 50 53 50 49 50 45
7 6 3 4 7 9 12 15 16 17 19 21 23 27 32 36 41 46 50 53 54 51 52 52 50 55 55 47 54 51 51 51 56 49 59 55 47 51 56 55 53 51 50
7 7 8 9 10 12 14 17 19 18 20 22 24 25 26 29 32 36 42 48 53 55 56 61 66 62 67 46 49 49 54 54 52 39 43 45 45 48 50 56 54 51 49
14 14 16 17 19 21 23 24 26 27 28 30 32 34 36 37 36 37 37 37 40 48 53 58 60 62 62 62 60 58 55 53 53 52 48 43 45 54 52 56 51 49 48
17 19 21 23 26 28 30 32 34 36 38 39 40 41 42 43 43 44 45 47 46 45 45 49 55 56 56 55 57 60 58 57 57 54 54 50 52 55 55 56 55 54 51
25 28 31 33 34 38 40 42 43 44 46 47 48 50 51 53 53 52 52 52 52 52 52 51 49 50 56 56 54 56 59 58 60 59 54 51 58 63 57 59 59 59 59
33 34 34 34 31 32 33 31 33 35 38 43 46 48 51 54 56 59 60 60 59 59 57 56 56 55 53 52 57 59 62 65 60 59 58 56 56 57 63 61 59 62 64
29 27 26 27 29 31 31 33 34 37 41 43 44 46 49 54 58 62 64 65 65 65 65 65 63 61 60 60 57 55 57 63 71 70 68 65 66 66 67 68 65 70 68
28 29 29 30 32 34 35 39 42 46 50 53 56 57 60 63 65 65 66 68 67 67 69 69 69 70 68 66 65 63 61 58 59 62 66 68 68 68 69 68 71 76 76
30 32 35 37 39 42 44 47 50 55 59 61 64 67 70 73 75 75 75 74 73 75 74 72 73 74 72 71 72 70 68 66 65 63 61 62 66 73 78 77 78 80 78
37 38 40 43 46 49 52 56 59 62 66 69 73 76 79 82 83 84 84 85 85 83 81 78 75 73 75 74 70 72 73 73 70 69 67 65 64 64 61 60 65 72 80
40 42 45 48 51 55 58 61 65 69 73 76 79 83 87 90 91 93 93 92 91 89 89 87 85 81 77 76 73 72 70 73 75 74 71 70 67 66 65 67 64 59 60
45 48 51 54 57 59 62 66 71 75 80 84 87 89 92 92 89 83 79 76 74 73 73 73 75 78 81 80 80 78 76 75 74 76 76 74 71 69 68 67 65 65 63
49 52 55 59 61 64 69 74 78 81 85 88 91 89 83 76 69 64 60 58 58 57 56 56 56 57 60 65 70 73 75 77 79 77 78 78 75 72 70 67 66 66 65
55 58 61 64 68 72 76 80 83 86 89 90 83 73 65 57 53 52 51 50 47 45 44 43 43 44 45 47 52 59 66 71 76 77 78 79 78 76 73 72 69 67 66
60 64 68 71 75 78 81 84 88 90 87 77 67 58 52 50 49 48 45 41 39 37 36 35 35 35 36 38 41 46 53 59 64 69 73 75 76 76 75 74 73 72 71
66 70 73 76 79 82 85 89 89 83 73 63 55 51 49 47 46 43 40 37 35 34 32 31 31 31 31 32 34 37 42 45 50 56 62 68 71 71 71 71 72 72 72
72 75 78 80 83 86 89 87 80 69 61 54 50 48 47 45 43 41 37 35 34 32 31 30 30 29 29 30 30 32 34 37 41 45 51 57 62 66 68 68 69 69 69
76 78 80 83 86 89 86 78 68 60 55 52 49 48 46 45 42 40 37 34 33 32 31 30 29 29 28 29 29 30 30 32 34 37 41 46 51 56 61 64 66 67 67